[[{"header":{"parameterUnit":"m.s-1","parameterCategory":1,"la1":31.0,"la2":29.5877,"lo1":-88.7671,"lo2":-86.6584,"dy":0.0162,"dx":0.0185,"nx":115,"ny":88,"refTime":"2023-03-14T18:00:00:Z","depth":0,"parameterNumber":2,"parameterNumberName":"U-component_of_WINDS"},"data":[0.0,0.0,0.0,0.0,0.0,0.0,0.0,0.0,0.0,0.0,0.0,0.0,0.0,0.0,0.0,0.0,0.0,0.0,0.0,0.0,0.0,0.0,0.0,0.0,0.0,0.0,0.0,0.0,0.0,0.0,0.0,0.0,0.0,0.0,0.0,0.0,0.0,0.0,0.0,0.0,0.0,0.0,0.0,0.0,0.0,0.0,0.0,0.0,0.0,0.0,0.0,0.0,0.0,0.0,0.0,0.0,0.0,0.0,0.0,0.0,0.0,0.0,0.0,0.0,0.0,0.0,0.0,0.0,0.0,0.0,0.0,0.0,0.0,0.0,0.0,0.0,0.0,0.0,0.0,0.0,0.0,0.0,0.0,0.0,0.0,0.0,0.0,0.0,0.0,0.0,0.0,0.0,0.0,0.0,0.0,0.0,0.0,0.0,0.0,0.0,0.0,0.0,0.0,0.0,0.0,0.0,0.0,0.0,0.0,0.0,0.0,0.0,0.0,0.0,0.0,0.0,0.0,0.0,0.0,0.0,0.0,0.0,0.0,0.0,0.0,0.0,0.0,0.0,0.0,0.0,0.0,0.0,0.0,0.0,0.0,0.0,0.0,0.0,0.0,0.0,0.0,0.0,0.0,0.0,0.0,0.0,0.0,0.0,0.0,0.0,0.0,0.0,0.0,0.0,0.0,0.0,0.0,0.0,0.0,0.0,0.0,0.0,0.0,0.0,0.0,0.0,0.0,0.0,0.0,0.0,0.0,0.0,0.0,0.0,0.0,0.0,0.0,0.0,0.0,0.0,0.0,0.0,0.0,0.0,0.0,0.0,0.0,0.0,0.0,0.0,0.0,0.0,0.0,0.0,0.0,0.0,0.0,0.0,0.0,0.0,0.0,0.0,0.0,0.0,0.0,0.0,0.0,0.0,0.0,0.0,0.0,0.0,0.0,0.0,0.0,0.0,0.0,0.0,0.0,0.0,0.0,0.0,0.0,0.0,0.0,0.0,0.0,0.0,0.0,0.0,0.0,0.0,0.0,0.0,0.0,0.0,0.0,0.0,0.0,0.0,0.0,0.0,0.0,0.0,0.0,0.0,0.0,0.0,0.0,0.0,0.0,0.0,0.0,0.0,0.0,0.0,0.0,0.0,0.0,0.0,0.0,0.0,0.0,0.0,0.0,0.0,0.0,0.0,0.0,0.0,0.0,0.0,0.0,0.0,0.0,0.0,0.0,0.0,0.0,0.0,0.0,0.0,0.0,0.0,0.0,0.0,0.0,0.0,0.0,0.0,0.0,0.0,0.0,0.0,0.0,0.0,0.0,0.0,0.0,0.0,0.0,0.0,0.0,0.0,0.0,0.0,0.0,0.0,0.0,0.0,0.0,0.0,0.0,0.0,0.0,0.0,0.0,0.0,0.0,0.0,0.0,0.0,0.0,0.0,0.0,0.0,0.0,0.0,0.0,0.0,0.0,0.0,0.0,0.0,0.0,0.0,0.0,0.0,0.0,0.0,0.0,0.0,0.0,0.0,0.0,0.0,0.0,0.0,0.0,0.0,0.0,0.0,0.0,0.0,0.0,0.0,0.0,0.0,0.0,0.0,0.0,0.0,0.0,0.0,0.0,0.0,0.0,0.0,0.0,0.0,0.0,0.0,0.0,0.0,0.0,0.0,0.0,0.0,0.0,0.0,0.0,0.0,0.0,0.0,0.0,0.0,0.0,0.0,0.0,0.0,0.0,0.0,0.0,0.0,0.0,0.0,0.0,0.0,0.0,0.0,0.0,0.0,0.0,0.0,0.0,0.0,0.0,0.0,0.0,0.0,0.0,0.0,0.0,0.0,0.0,0.0,0.0,0.0,0.0,0.0,0.0,0.0,0.0,0.0,0.0,0.0,0.0,0.0,0.0,0.0,0.0,0.0,0.0,0.0,0.0,0.0,0.0,0.0,0.0,0.0,0.0,0.0,0.0,0.0,0.0,0.0,0.0,0.0,0.0,0.0,0.0,0.0,0.0,0.0,0.0,0.0,0.0,0.0,0.0,0.0,0.0,0.0,0.0,0.0,0.0,0.0,0.0,0.0,0.0,0.0,0.0,0.0,0.0,0.0,0.0,0.0,0.0,0.0,0.0,0.0,0.0,0.0,0.0,0.0,0.0,0.0,0.0,0.0,0.0,0.0,0.0,0.0,0.0,0.0,0.0,0.0,0.0,0.0,0.0,0.0,0.0,0.0,0.0,0.0,0.0,0.0,0.0,0.0,0.0,0.0,0.0,0.0,0.0,0.0,0.0,0.0,0.0,0.0,0.0,0.0,0.0,0.0,0.0,0.0,0.0,0.0,0.0,0.0,0.0,0.0,0.0,0.0,0.0,0.0,0.0,0.0,0.0,0.0,0.0,0.0,0.0,0.0,0.0,0.0,0.0,0.0,0.0,0.0,0.0,0.0,0.0,0.0,0.0,0.0,0.0,0.0,0.0,0.0,0.0,0.0,0.0,0.0,0.0,0.0,0.0,0.0,0.0,0.0,0.0,0.0,0.0,0.0,0.0,0.0,0.0,0.0,0.0,0.0,0.0,0.0,0.0,0.0,0.0,0.0,0.0,0.0,0.0,0.0,0.0,0.0,0.0,0.0,0.0,0.0,0.0,0.0,0.0,0.0,0.0,0.0,0.0,0.0,0.0,0.0,0.0,0.0,0.0,0.0,0.0,0.0,0.0,0.0,0.0,0.0,0.0,0.0,0.0,0.0,0.0,0.0,0.0,0.0,0.0,0.0,0.0,0.0,0.0,0.0,0.0,0.0,0.0,0.0,0.0,0.0,0.0,0.0,0.0,0.0,0.0,0.0,0.0,0.0,0.0,0.0,0.0,0.0,0.0,0.0,0.0,0.0,0.0,0.0,0.0,0.0,0.0,0.0,0.0,0.0,0.0,0.0,0.0,0.0,0.0,0.0,0.0,0.0,0.0,0.0,0.0,0.0,0.0,0.0,0.0,0.0,0.0,0.0,0.0,0.0,0.0,0.0,0.0,0.0,0.0,0.0,0.0,0.0,0.0,0.0,0.0,0.0,0.0,0.0,0.0,0.0,0.0,0.0,0.0,0.0,0.0,0.0,0.0,0.0,0.0,0.0,0.0,0.0,0.0,0.0,0.0,0.0,0.0,0.0,0.0,0.0,0.0,0.0,0.0,0.0,0.0,0.0,0.0,0.0,0.0,0.0,0.0,0.0,0.0,0.0,0.0,0.0,0.0,0.0,0.0,0.0,0.0,0.0,0.0,0.0,0.0,0.0,0.0,0.0,0.0,0.0,0.0,0.0,0.0,0.0,0.0,0.0,0.0,0.0,0.0,0.0,0.0,0.0,0.0,0.0,0.0,0.0,0.0,0.0,0.0,0.0,0.0,0.0,0.0,0.0,0.0,0.0,0.0,0.0,0.0,0.0,0.0,0.0,0.0,0.0,0.0,0.0,0.0,0.0,0.0,0.0,0.0,0.0,0.0,0.0,0.0,0.0,0.0,0.0,0.0,0.0,0.0,0.0,0.0,0.0,0.0,0.0,0.0,0.0,0.0,0.0,0.0,0.0,0.0,0.0,0.0,0.0,0.0,0.0,0.0,0.0,0.0,0.0,0.0,0.0,0.0,0.0,0.0,0.0,0.0,0.0,0.0,0.0,0.0,0.0,0.0,0.0,0.0,0.0,0.0,0.0,0.0,0.0,0.0,0.0,0.0,0.0,0.0,0.0,0.0,0.0,0.0,0.0,0.0,0.0,0.0,0.0,0.0,0.0,0.0,0.0,0.0,0.0,0.0,0.0,0.0,0.0,0.0,0.0,0.0,0.0,0.0,0.0,0.0,0.0,0.0,0.0,0.0,0.0,0.0,0.0,0.0,0.0,0.0,0.0,0.0,0.0,0.0,0.0,0.0,0.0,0.0,0.0,0.0,0.0,0.0,0.0,0.0,0.0,0.0,0.0,0.0,0.0,0.0,0.0,0.0,0.0,0.0,0.0,0.0,0.0,0.0,0.0,0.0,0.0,0.0,0.0,0.0,0.0,0.0,0.0,0.0,0.0,0.0,0.0,0.0,0.0,0.0,0.0,0.0,0.0,0.0,0.0,0.0,0.0,0.0,0.0,0.0,0.0,0.0,0.0,0.0,0.0,0.0,0.0,0.0,0.0,0.0,0.0,0.0,0.0,0.0,0.0,0.0,0.0,0.0,0.0,0.0,0.0,0.0,0.0,0.0,0.0,0.0,0.0,0.0,0.0,0.0,0.0,0.0,0.0,0.0,0.0,-6.0811,0.0,0.0,0.0,0.0,0.0,0.0,0.0,0.0,0.0,0.0,0.0,0.0,0.0,0.0,0.0,0.0,0.0,0.0,0.0,0.0,0.0,0.0,0.0,0.0,0.0,0.0,0.0,0.0,0.0,0.0,0.0,0.0,0.0,0.0,0.0,0.0,0.0,0.0,0.0,0.0,0.0,0.0,0.0,0.0,0.0,0.0,0.0,0.0,0.0,0.0,0.0,0.0,0.0,0.0,0.0,0.0,0.0,0.0,0.0,0.0,0.0,0.0,0.0,0.0,0.0,0.0,0.0,0.0,0.0,0.0,0.0,0.0,0.0,0.0,0.0,0.0,0.0,0.0,0.0,0.0,0.0,0.0,0.0,0.0,0.0,0.0,0.0,0.0,0.0,0.0,0.0,0.0,0.0,0.0,0.0,0.0,0.0,0.0,0.0,0.0,0.0,0.0,0.0,0.0,0.0,0.0,0.0,0.0,0.0,0.0,-6.0315,-6.0109,-6.0548,-6.076,-6.0642,0.0,0.0,0.0,0.0,0.0,0.0,0.0,0.0,0.0,0.0,0.0,0.0,0.0,0.0,0.0,0.0,0.0,0.0,0.0,0.0,0.0,0.0,0.0,0.0,0.0,0.0,0.0,0.0,0.0,0.0,0.0,0.0,0.0,0.0,0.0,0.0,0.0,0.0,0.0,0.0,0.0,0.0,0.0,0.0,0.0,0.0,0.0,0.0,0.0,0.0,0.0,0.0,0.0,0.0,0.0,0.0,0.0,0.0,0.0,0.0,0.0,0.0,0.0,0.0,0.0,0.0,0.0,0.0,0.0,0.0,0.0,0.0,0.0,0.0,0.0,0.0,0.0,0.0,0.0,0.0,0.0,0.0,0.0,0.0,0.0,0.0,0.0,0.0,0.0,0.0,0.0,0.0,0.0,0.0,0.0,0.0,0.0,0.0,0.0,0.0,0.0,0.0,0.0,0.0,0.0,0.0,0.0,0.0,0.0,0.0,0.0,0.0,-6.1011,-6.1177,-6.0717,0.0,0.0,0.0,0.0,0.0,0.0,0.0,0.0,0.0,0.0,0.0,0.0,0.0,0.0,0.0,0.0,0.0,0.0,0.0,0.0,0.0,0.0,0.0,0.0,0.0,0.0,0.0,0.0,0.0,0.0,0.0,0.0,0.0,0.0,0.0,0.0,0.0,0.0,0.0,0.0,0.0,0.0,0.0,0.0,0.0,0.0,0.0,0.0,0.0,0.0,0.0,0.0,0.0,0.0,0.0,0.0,0.0,0.0,0.0,0.0,0.0,0.0,0.0,0.0,0.0,0.0,0.0,0.0,0.0,0.0,0.0,0.0,0.0,0.0,0.0,0.0,0.0,0.0,0.0,0.0,0.0,0.0,0.0,0.0,0.0,0.0,0.0,0.0,0.0,0.0,0.0,0.0,0.0,0.0,0.0,0.0,0.0,0.0,0.0,0.0,0.0,0.0,0.0,0.0,0.0,0.0,0.0,0.0,0.0,0.0,-5.9822,-5.976,-6.0249,0.0,-6.1506,0.0,0.0,0.0,0.0,0.0,0.0,0.0,0.0,0.0,0.0,0.0,0.0,0.0,0.0,0.0,0.0,0.0,0.0,0.0,0.0,0.0,0.0,0.0,0.0,0.0,0.0,0.0,0.0,0.0,0.0,0.0,0.0,0.0,0.0,0.0,0.0,0.0,0.0,0.0,0.0,0.0,0.0,0.0,0.0,0.0,0.0,0.0,0.0,0.0,0.0,0.0,0.0,0.0,0.0,0.0,0.0,0.0,0.0,0.0,0.0,0.0,0.0,0.0,0.0,0.0,0.0,0.0,0.0,0.0,0.0,0.0,0.0,0.0,0.0,0.0,0.0,0.0,0.0,0.0,0.0,0.0,0.0,0.0,0.0,0.0,0.0,0.0,0.0,0.0,0.0,0.0,0.0,0.0,0.0,0.0,0.0,0.0,0.0,0.0,0.0,0.0,0.0,0.0,0.0,0.0,0.0,0.0,0.0,0.0,0.0,-6.067,-6.0473,-6.1144,-6.175,0.0,0.0,0.0,0.0,0.0,0.0,0.0,0.0,0.0,0.0,0.0,0.0,0.0,0.0,0.0,0.0,0.0,0.0,0.0,0.0,0.0,0.0,0.0,0.0,0.0,0.0,0.0,0.0,0.0,0.0,0.0,0.0,0.0,0.0,0.0,0.0,0.0,0.0,0.0,0.0,0.0,0.0,0.0,0.0,0.0,0.0,0.0,0.0,0.0,0.0,0.0,0.0,0.0,0.0,0.0,0.0,0.0,0.0,0.0,0.0,0.0,0.0,0.0,0.0,0.0,0.0,0.0,0.0,0.0,0.0,0.0,0.0,0.0,0.0,0.0,0.0,0.0,0.0,0.0,0.0,0.0,0.0,0.0,0.0,0.0,0.0,0.0,0.0,0.0,0.0,0.0,0.0,0.0,0.0,0.0,0.0,0.0,0.0,0.0,0.0,0.0,0.0,0.0,0.0,0.0,0.0,0.0,0.0,0.0,0.0,-6.038,-6.111,-6.1227,-6.1917,-6.2347,-6.2381,0.0,0.0,0.0,0.0,0.0,0.0,0.0,0.0,0.0,0.0,0.0,0.0,0.0,0.0,0.0,0.0,0.0,0.0,0.0,0.0,0.0,0.0,0.0,0.0,0.0,0.0,0.0,0.0,0.0,0.0,0.0,0.0,0.0,0.0,0.0,0.0,0.0,0.0,0.0,0.0,0.0,0.0,0.0,0.0,0.0,0.0,0.0,0.0,0.0,0.0,0.0,0.0,0.0,0.0,0.0,0.0,0.0,0.0,0.0,0.0,0.0,0.0,0.0,0.0,0.0,0.0,0.0,0.0,0.0,0.0,0.0,0.0,0.0,0.0,0.0,0.0,0.0,0.0,0.0,0.0,0.0,0.0,0.0,0.0,0.0,0.0,0.0,0.0,0.0,0.0,0.0,0.0,0.0,0.0,0.0,0.0,0.0,0.0,0.0,0.0,0.0,0.0,0.0,0.0,0.0,0.0,0.0,0.0,-5.9004,-5.9728,-6.06,-6.1628,-6.2076,-6.2347,0.0,0.0,0.0,0.0,0.0,0.0,0.0,0.0,0.0,0.0,0.0,0.0,0.0,0.0,0.0,0.0,0.0,0.0,0.0,0.0,0.0,0.0,0.0,0.0,0.0,0.0,0.0,0.0,0.0,0.0,0.0,0.0,0.0,0.0,0.0,0.0,0.0,0.0,0.0,0.0,0.0,0.0,0.0,0.0,0.0,0.0,0.0,0.0,0.0,0.0,0.0,0.0,0.0,0.0,0.0,0.0,0.0,0.0,0.0,0.0,0.0,0.0,0.0,0.0,0.0,0.0,0.0,0.0,0.0,0.0,0.0,0.0,0.0,0.0,0.0,0.0,0.0,0.0,0.0,0.0,0.0,0.0,0.0,0.0,0.0,0.0,0.0,0.0,0.0,0.0,0.0,0.0,0.0,0.0,0.0,0.0,0.0,0.0,0.0,0.0,0.0,0.0,0.0,0.0,0.0,0.0,0.0,0.0,0.0,-5.9508,-6.0778,-6.1837,-6.2503,-6.3121,-6.3346,0.0,0.0,0.0,0.0,0.0,0.0,0.0,0.0,0.0,0.0,0.0,0.0,0.0,0.0,0.0,0.0,0.0,0.0,0.0,0.0,0.0,0.0,0.0,0.0,0.0,0.0,0.0,0.0,0.0,0.0,0.0,0.0,0.0,0.0,0.0,0.0,0.0,0.0,0.0,0.0,0.0,0.0,0.0,0.0,0.0,0.0,0.0,0.0,0.0,0.0,0.0,0.0,0.0,0.0,0.0,0.0,0.0,0.0,0.0,0.0,0.0,0.0,0.0,0.0,0.0,0.0,0.0,0.0,0.0,0.0,0.0,0.0,0.0,0.0,0.0,0.0,0.0,0.0,0.0,0.0,0.0,0.0,0.0,0.0,0.0,0.0,0.0,0.0,0.0,0.0,0.0,0.0,0.0,0.0,0.0,0.0,0.0,0.0,0.0,0.0,0.0,0.0,0.0,0.0,0.0,0.0,0.0,0.0,0.0,-6.044,0.0,-6.2855,-6.3227,-6.3785,-6.3966,0.0,0.0,0.0,0.0,0.0,0.0,0.0,0.0,0.0,0.0,0.0,0.0,0.0,0.0,0.0,0.0,0.0,0.0,0.0,0.0,0.0,0.0,0.0,0.0,0.0,0.0,0.0,0.0,0.0,0.0,0.0,0.0,0.0,0.0,0.0,0.0,0.0,0.0,0.0,0.0,0.0,0.0,0.0,0.0,0.0,0.0,0.0,0.0,0.0,0.0,0.0,0.0,0.0,0.0,0.0,0.0,0.0,0.0,0.0,0.0,0.0,0.0,0.0,0.0,0.0,0.0,0.0,0.0,0.0,0.0,0.0,0.0,0.0,0.0,0.0,0.0,0.0,0.0,0.0,0.0,0.0,0.0,0.0,0.0,0.0,0.0,0.0,0.0,0.0,0.0,0.0,0.0,0.0,0.0,0.0,0.0,0.0,0.0,0.0,0.0,0.0,0.0,0.0,0.0,0.0,0.0,0.0,0.0,-6.0216,-6.1883,-6.3007,-6.3634,-6.3671,-6.4036,-6.4001,0.0,0.0,0.0,0.0,0.0,0.0,0.0,0.0,0.0,0.0,0.0,0.0,0.0,0.0,0.0,0.0,0.0,0.0,0.0,0.0,0.0,0.0,0.0,0.0,0.0,0.0,0.0,0.0,0.0,0.0,0.0,0.0,0.0,0.0,0.0,0.0,0.0,0.0,0.0,0.0,0.0,0.0,0.0,0.0,0.0,0.0,0.0,0.0,0.0,0.0,0.0,0.0,0.0,0.0,0.0,0.0,0.0,0.0,0.0,0.0,0.0,0.0,0.0,0.0,0.0,0.0,0.0,0.0,0.0,0.0,0.0,0.0,0.0,0.0,0.0,0.0,0.0,0.0,0.0,0.0,0.0,0.0,0.0,0.0,0.0,0.0,0.0,0.0,0.0,0.0,0.0,0.0,0.0,0.0,0.0,0.0,0.0,0.0,0.0,0.0,0.0,0.0,0.0,0.0,0.0,0.0,0.0,0.0,0.0,-6.4194,-6.5083,-6.56,-6.56,-6.5929,-6.6037,0.0,0.0,0.0,0.0,0.0,0.0,0.0,0.0,0.0,0.0,0.0,0.0,0.0,0.0,0.0,0.0,0.0,0.0,0.0,0.0,0.0,0.0,0.0,0.0,0.0,0.0,0.0,0.0,0.0,0.0,0.0,0.0,0.0,0.0,0.0,0.0,0.0,0.0,0.0,0.0,0.0,0.0,0.0,0.0,0.0,0.0,0.0,0.0,0.0,0.0,0.0,0.0,0.0,0.0,0.0,0.0,0.0,0.0,0.0,0.0,0.0,0.0,0.0,0.0,0.0,0.0,0.0,0.0,0.0,0.0,0.0,0.0,0.0,0.0,0.0,0.0,0.0,0.0,0.0,0.0,0.0,0.0,0.0,0.0,0.0,0.0,0.0,0.0,0.0,0.0,0.0,0.0,0.0,0.0,0.0,0.0,0.0,0.0,0.0,0.0,0.0,0.0,0.0,0.0,0.0,0.0,0.0,0.0,0.0,-6.731,-6.7125,-6.7043,-6.7153,-6.7263,-6.7232,-6.7023,0.0,0.0,0.0,0.0,0.0,0.0,0.0,0.0,0.0,0.0,0.0,0.0,0.0,0.0,0.0,0.0,0.0,0.0,0.0,0.0,0.0,0.0,0.0,0.0,0.0,0.0,0.0,0.0,0.0,0.0,0.0,0.0,0.0,0.0,0.0,0.0,0.0,0.0,0.0,0.0,0.0,0.0,0.0,0.0,0.0,0.0,0.0,0.0,0.0,0.0,0.0,0.0,0.0,0.0,0.0,0.0,0.0,0.0,0.0,0.0,0.0,0.0,0.0,0.0,0.0,0.0,0.0,0.0,0.0,0.0,0.0,0.0,0.0,0.0,0.0,0.0,0.0,0.0,0.0,0.0,0.0,0.0,0.0,0.0,0.0,0.0,0.0,0.0,0.0,0.0,0.0,0.0,0.0,0.0,0.0,0.0,0.0,0.0,0.0,0.0,0.0,0.0,0.0,0.0,0.0,0.0,0.0,0.0,-7.1106,-6.9241,-6.8311,-6.8391,-6.8208,-6.7823,0.0,0.0,0.0,0.0,0.0,0.0,0.0,0.0,0.0,0.0,0.0,0.0,0.0,0.0,0.0,0.0,0.0,0.0,0.0,0.0,0.0,0.0,0.0,0.0,0.0,0.0,0.0,0.0,0.0,0.0,0.0,0.0,0.0,0.0,0.0,0.0,0.0,0.0,0.0,0.0,0.0,0.0,0.0,0.0,0.0,0.0,0.0,0.0,0.0,0.0,0.0,0.0,0.0,0.0,0.0,0.0,0.0,0.0,0.0,0.0,0.0,0.0,0.0,0.0,0.0,0.0,0.0,0.0,0.0,0.0,0.0,0.0,0.0,0.0,0.0,0.0,0.0,0.0,0.0,0.0,0.0,0.0,0.0,0.0,0.0,0.0,0.0,0.0,0.0,0.0,0.0,0.0,0.0,0.0,0.0,0.0,0.0,0.0,0.0,0.0,0.0,0.0,0.0,0.0,0.0,0.0,0.0,0.0,0.0,-7.2188,-7.2586,-7.2031,-7.0549,-7.0441,-7.0056,0.0,0.0,0.0,0.0,0.0,0.0,0.0,0.0,0.0,0.0,0.0,0.0,0.0,0.0,0.0,0.0,0.0,0.0,0.0,0.0,0.0,0.0,0.0,0.0,0.0,0.0,0.0,0.0,0.0,0.0,0.0,0.0,0.0,0.0,0.0,0.0,0.0,0.0,0.0,0.0,0.0,0.0,0.0,0.0,0.0,0.0,0.0,0.0,0.0,0.0,0.0,0.0,0.0,0.0,0.0,0.0,0.0,0.0,0.0,0.0,0.0,0.0,0.0,0.0,0.0,0.0,0.0,0.0,0.0,0.0,0.0,0.0,0.0,0.0,0.0,0.0,0.0,0.0,0.0,0.0,0.0,0.0,0.0,0.0,0.0,0.0,0.0,0.0,0.0,0.0,0.0,0.0,0.0,0.0,0.0,0.0,0.0,0.0,0.0,0.0,0.0,0.0,0.0,0.0,0.0,0.0,0.0,0.0,-7.1454,-7.3955,-7.4956,-7.4796,-7.3514,-7.2504,-7.1708,0.0,0.0,0.0,0.0,0.0,0.0,0.0,0.0,0.0,0.0,0.0,0.0,0.0,0.0,0.0,0.0,0.0,0.0,0.0,0.0,0.0,0.0,0.0,0.0,0.0,0.0,0.0,0.0,0.0,0.0,0.0,0.0,0.0,0.0,0.0,0.0,0.0,0.0,0.0,0.0,0.0,0.0,0.0,0.0,0.0,0.0,0.0,0.0,0.0,0.0,0.0,0.0,0.0,0.0,0.0,0.0,0.0,0.0,0.0,0.0,0.0,0.0,0.0,0.0,0.0,0.0,0.0,0.0,0.0,0.0,0.0,0.0,0.0,0.0,0.0,0.0,0.0,0.0,0.0,0.0,0.0,0.0,0.0,0.0,0.0,0.0,0.0,0.0,0.0,0.0,0.0,0.0,0.0,0.0,0.0,0.0,0.0,0.0,0.0,0.0,0.0,0.0,0.0,0.0,0.0,0.0,0.0,0.0,-7.2843,-7.6063,-7.6733,-7.6937,-7.6574,-7.4495,-7.3018,0.0,0.0,0.0,0.0,0.0,0.0,0.0,0.0,0.0,0.0,0.0,0.0,0.0,0.0,0.0,0.0,0.0,0.0,0.0,0.0,0.0,0.0,0.0,0.0,0.0,0.0,0.0,0.0,0.0,0.0,0.0,0.0,0.0,0.0,0.0,0.0,0.0,0.0,0.0,0.0,0.0,0.0,0.0,0.0,0.0,0.0,0.0,0.0,0.0,0.0,0.0,0.0,0.0,0.0,0.0,0.0,0.0,0.0,0.0,0.0,0.0,0.0,0.0,0.0,0.0,0.0,0.0,0.0,0.0,0.0,0.0,0.0,0.0,0.0,0.0,0.0,0.0,0.0,0.0,0.0,0.0,0.0,0.0,0.0,0.0,0.0,0.0,0.0,0.0,0.0,0.0,0.0,0.0,0.0,0.0,0.0,0.0,0.0,0.0,0.0,0.0,0.0,0.0,0.0,0.0,0.0,0.0,0.0,-7.4864,-7.7712,-7.8302,-7.8423,-7.8202,-7.6574,-7.4772,0.0,0.0,0.0,0.0,0.0,0.0,0.0,0.0,0.0,0.0,0.0,0.0,0.0,0.0,0.0,0.0,0.0,0.0,0.0,0.0,0.0,0.0,0.0,0.0,0.0,0.0,0.0,0.0,0.0,0.0,0.0,0.0,0.0,0.0,0.0,0.0,0.0,0.0,0.0,0.0,0.0,0.0,0.0,0.0,0.0,0.0,0.0,0.0,-8.2186,0.0,0.0,0.0,0.0,0.0,0.0,0.0,0.0,0.0,0.0,0.0,0.0,0.0,0.0,0.0,0.0,0.0,0.0,0.0,0.0,0.0,0.0,0.0,0.0,0.0,0.0,0.0,0.0,0.0,0.0,0.0,0.0,0.0,0.0,0.0,0.0,0.0,0.0,0.0,0.0,0.0,0.0,0.0,0.0,0.0,0.0,0.0,0.0,0.0,0.0,0.0,0.0,0.0,0.0,0.0,0.0,0.0,0.0,0.0,-7.6076,-7.8726,-7.9749,-8.0121,-7.9772,-7.8618,-7.6738,0.0,0.0,0.0,0.0,0.0,0.0,0.0,0.0,0.0,0.0,0.0,0.0,0.0,0.0,0.0,0.0,0.0,0.0,0.0,0.0,0.0,0.0,0.0,0.0,0.0,0.0,0.0,0.0,0.0,0.0,0.0,0.0,0.0,0.0,0.0,0.0,0.0,0.0,0.0,0.0,0.0,0.0,0.0,0.0,0.0,0.0,0.0,0.0,0.0,0.0,0.0,0.0,0.0,0.0,0.0,0.0,0.0,0.0,0.0,0.0,0.0,0.0,0.0,0.0,0.0,0.0,0.0,0.0,0.0,0.0,0.0,0.0,0.0,0.0,0.0,0.0,0.0,0.0,0.0,0.0,0.0,0.0,0.0,0.0,0.0,0.0,0.0,0.0,0.0,0.0,0.0,0.0,0.0,0.0,0.0,0.0,0.0,0.0,0.0,0.0,0.0,0.0,0.0,0.0,0.0,0.0,0.0,-7.4125,-7.6927,-7.9573,-8.1007,-8.1519,-8.1066,-8.0292,-7.839,-7.5232,0.0,0.0,0.0,0.0,0.0,0.0,0.0,0.0,0.0,0.0,0.0,0.0,0.0,0.0,0.0,0.0,0.0,0.0,0.0,0.0,0.0,0.0,0.0,0.0,0.0,0.0,0.0,0.0,0.0,0.0,0.0,0.0,0.0,0.0,0.0,0.0,0.0,0.0,-7.7941,-8.0034,0.0,0.0,0.0,0.0,0.0,0.0,0.0,0.0,-8.2186,0.0,0.0,0.0,0.0,0.0,0.0,0.0,0.0,0.0,0.0,0.0,0.0,0.0,0.0,0.0,0.0,0.0,0.0,0.0,0.0,0.0,0.0,0.0,0.0,0.0,0.0,0.0,0.0,0.0,0.0,0.0,0.0,0.0,0.0,0.0,0.0,0.0,0.0,0.0,0.0,0.0,0.0,0.0,0.0,0.0,0.0,0.0,0.0,0.0,0.0,0.0,0.0,0.0,0.0,0.0,0.0,-7.2387,-7.5471,-7.8238,-8.056,-8.1331,-8.1608,-8.1339,-8.0418,-7.8632,-7.5982,0.0,0.0,0.0,0.0,0.0,0.0,0.0,0.0,0.0,0.0,0.0,0.0,0.0,0.0,0.0,0.0,0.0,0.0,0.0,0.0,0.0,0.0,0.0,0.0,0.0,0.0,0.0,0.0,0.0,0.0,0.0,0.0,0.0,0.0,0.0,0.0,0.0,0.0,0.0,-8.0625,-8.1885,0.0,0.0,0.0,0.0,0.0,0.0,0.0,0.0,-8.2154,0.0,0.0,0.0,0.0,0.0,0.0,0.0,0.0,0.0,0.0,0.0,0.0,0.0,0.0,0.0,0.0,0.0,0.0,0.0,0.0,0.0,0.0,0.0,0.0,0.0,0.0,0.0,0.0,0.0,0.0,0.0,0.0,0.0,0.0,0.0,0.0,0.0,0.0,0.0,0.0,0.0,0.0,0.0,0.0,0.0,0.0,0.0,0.0,0.0,0.0,0.0,0.0,0.0,0.0,0.0,-7.3103,-7.6364,-7.896,-8.0856,-8.1918,-8.2292,-8.1976,-8.0727,-7.9009,0.0,0.0,0.0,0.0,0.0,0.0,0.0,0.0,0.0,0.0,0.0,0.0,0.0,0.0,0.0,0.0,0.0,0.0,0.0,0.0,0.0,0.0,0.0,0.0,0.0,0.0,0.0,0.0,0.0,0.0,0.0,0.0,0.0,0.0,0.0,0.0,0.0,0.0,0.0,0.0,-8.0661,-8.1998,-8.2741,0.0,0.0,0.0,0.0,0.0,0.0,-8.248,-8.2121,0.0,0.0,0.0,0.0,0.0,0.0,0.0,0.0,0.0,0.0,0.0,0.0,0.0,0.0,0.0,0.0,0.0,0.0,0.0,0.0,0.0,0.0,0.0,0.0,0.0,0.0,0.0,0.0,0.0,0.0,0.0,0.0,0.0,0.0,0.0,0.0,0.0,0.0,0.0,0.0,0.0,0.0,0.0,0.0,0.0,0.0,0.0,0.0,0.0,0.0,0.0,0.0,0.0,0.0,0.0,-7.3731,-7.7124,-7.9592,-8.1137,-8.2462,-8.2941,-8.2498,-8.0991,-7.9228,0.0,0.0,0.0,0.0,0.0,0.0,0.0,0.0,0.0,0.0,0.0,0.0,0.0,0.0,0.0,0.0,0.0,0.0,0.0,0.0,0.0,0.0,0.0,0.0,0.0,0.0,0.0,0.0,0.0,0.0,0.0,0.0,0.0,0.0,0.0,0.0,0.0,0.0,0.0,0.0,0.0,-8.226,-8.3188,-8.3377,0.0,0.0,0.0,0.0,-8.3401,-8.2847,0.0,0.0,0.0,0.0,0.0,0.0,0.0,0.0,0.0,0.0,0.0,0.0,0.0,0.0,0.0,0.0,0.0,0.0,0.0,0.0,0.0,0.0,0.0,0.0,0.0,0.0,0.0,0.0,0.0,0.0,0.0,0.0,0.0,0.0,0.0,0.0,0.0,0.0,0.0,0.0,0.0,0.0,0.0,0.0,0.0,0.0,0.0,0.0,0.0,0.0,0.0,0.0,0.0,0.0,0.0,0.0,-7.4522,-7.7891,-8.04,-8.1874,-8.2566,-8.2796,-8.2453,-8.0845,-7.9093,0.0,0.0,0.0,0.0,0.0,0.0,0.0,0.0,0.0,0.0,0.0,0.0,0.0,0.0,0.0,0.0,0.0,0.0,0.0,0.0,0.0,0.0,0.0,0.0,0.0,0.0,0.0,0.0,0.0,0.0,0.0,0.0,0.0,0.0,0.0,0.0,0.0,0.0,0.0,0.0,0.0,-8.2949,-8.3093,-8.3851,-8.4465,0.0,0.0,-8.4172,-8.3544,-8.3324,0.0,0.0,0.0,0.0,0.0,0.0,0.0,0.0,0.0,0.0,0.0,0.0,0.0,0.0,0.0,0.0,0.0,0.0,0.0,0.0,0.0,0.0,0.0,0.0,0.0,0.0,0.0,0.0,0.0,0.0,0.0,0.0,0.0,0.0,0.0,0.0,0.0,0.0,0.0,0.0,0.0,0.0,0.0,0.0,0.0,0.0,0.0,0.0,0.0,0.0,0.0,0.0,0.0,0.0,0.0,-7.2468,-7.521,-7.8275,-8.0708,-8.2426,-8.2756,-8.2914,-8.2963,-8.0997,-7.9048,0.0,0.0,0.0,0.0,0.0,0.0,0.0,0.0,0.0,0.0,0.0,0.0,0.0,0.0,0.0,0.0,0.0,0.0,0.0,0.0,0.0,0.0,0.0,0.0,0.0,0.0,0.0,0.0,0.0,0.0,0.0,0.0,0.0,0.0,0.0,0.0,0.0,0.0,0.0,0.0,0.0,0.0,-8.3681,-8.4552,0.0,0.0,0.0,-8.4877,-8.4172,0.0,0.0,0.0,0.0,0.0,0.0,0.0,0.0,0.0,0.0,0.0,0.0,0.0,0.0,0.0,0.0,0.0,0.0,0.0,0.0,0.0,0.0,0.0,0.0,0.0,0.0,0.0,0.0,0.0,0.0,0.0,0.0,0.0,0.0,0.0,0.0,0.0,0.0,0.0,0.0,0.0,0.0,0.0,0.0,0.0,0.0,0.0,0.0,0.0,0.0,0.0,0.0,0.0,0.0,0.0,0.0,0.0,-7.5742,-7.8563,-8.0955,-8.2935,-8.303,-8.3079,-8.3261,-8.1205,0.0,0.0,0.0,0.0,0.0,0.0,0.0,0.0,0.0,0.0,0.0,0.0,0.0,0.0,0.0,0.0,0.0,0.0,0.0,0.0,0.0,0.0,0.0,0.0,0.0,0.0,0.0,-7.3799,0.0,0.0,0.0,0.0,0.0,0.0,0.0,0.0,0.0,0.0,0.0,0.0,0.0,0.0,-8.3399,-8.4156,-8.5213,-8.6125,0.0,0.0,-8.5355,-8.4685,-8.3911,-8.3001,0.0,0.0,0.0,0.0,0.0,0.0,0.0,0.0,0.0,0.0,0.0,0.0,0.0,0.0,0.0,0.0,0.0,0.0,0.0,0.0,0.0,0.0,0.0,0.0,0.0,0.0,0.0,0.0,0.0,0.0,0.0,0.0,0.0,0.0,0.0,0.0,0.0,0.0,0.0,0.0,0.0,0.0,0.0,0.0,0.0,0.0,0.0,0.0,0.0,0.0,0.0,0.0,0.0,0.0,-7.3328,-7.6036,-7.894,-8.1424,-8.3427,-8.3333,-8.3261,-8.3296,-8.1503,-7.9844,0.0,0.0,0.0,0.0,0.0,0.0,0.0,0.0,0.0,0.0,0.0,0.0,0.0,0.0,0.0,0.0,0.0,0.0,0.0,0.0,0.0,0.0,0.0,0.0,0.0,0.0,0.0,0.0,0.0,0.0,0.0,0.0,0.0,0.0,0.0,0.0,0.0,0.0,0.0,0.0,0.0,-8.4091,-8.43,-8.5793,-8.6887,0.0,-8.6334,-8.5527,-8.4719,-8.3911,-8.2818,-8.1077,0.0,0.0,0.0,0.0,0.0,0.0,0.0,0.0,0.0,0.0,0.0,0.0,0.0,0.0,0.0,0.0,0.0,0.0,0.0,0.0,0.0,0.0,0.0,0.0,0.0,0.0,0.0,0.0,0.0,0.0,0.0,0.0,0.0,0.0,0.0,0.0,0.0,0.0,0.0,0.0,0.0,0.0,0.0,0.0,0.0,0.0,0.0,0.0,0.0,0.0,0.0,0.0,0.0,-7.3386,-7.6576,-7.9484,-8.2,-8.3992,-8.3989,-8.4135,-8.4474,-8.2444,-8.0638,0.0,0.0,0.0,0.0,0.0,0.0,0.0,0.0,0.0,0.0,0.0,0.0,0.0,0.0,0.0,0.0,0.0,0.0,0.0,0.0,0.0,0.0,0.0,0.0,0.0,0.0,0.0,0.0,-7.5841,-7.5768,-7.5587,0.0,0.0,0.0,0.0,0.0,0.0,0.0,0.0,0.0,0.0,-8.3362,-8.3534,-8.4657,0.0,0.0,-8.527,-8.4792,-8.3985,-8.3618,-8.2781,-8.1004,-7.9954,0.0,0.0,0.0,0.0,0.0,0.0,0.0,0.0,0.0,0.0,0.0,0.0,0.0,0.0,0.0,0.0,0.0,0.0,0.0,0.0,0.0,0.0,0.0,0.0,0.0,0.0,0.0,0.0,0.0,0.0,0.0,0.0,0.0,0.0,0.0,0.0,0.0,0.0,0.0,0.0,0.0,0.0,0.0,0.0,0.0,0.0,0.0,0.0,0.0,0.0,0.0,0.0,-7.3376,-7.6748,-7.9705,-8.2211,-8.4226,-8.4502,-8.4834,-8.5121,-8.3225,-8.1535,0.0,0.0,0.0,0.0,0.0,0.0,0.0,0.0,0.0,0.0,0.0,0.0,0.0,0.0,0.0,0.0,0.0,0.0,0.0,0.0,0.0,0.0,0.0,0.0,0.0,0.0,0.0,0.0,-7.6094,-7.5623,-7.4793,0.0,0.0,0.0,0.0,0.0,0.0,0.0,0.0,0.0,0.0,-8.2957,-8.3096,-8.389,-8.4508,-8.4474,-8.422,-8.3887,-8.3371,-8.3081,-8.2388,-8.0996,0.0,0.0,0.0,0.0,0.0,0.0,0.0,0.0,0.0,0.0,0.0,0.0,0.0,0.0,0.0,0.0,0.0,0.0,0.0,0.0,0.0,0.0,0.0,0.0,0.0,0.0,0.0,-5.8369,0.0,0.0,-6.0198,0.0,0.0,0.0,0.0,0.0,0.0,0.0,0.0,0.0,0.0,0.0,0.0,0.0,0.0,0.0,0.0,0.0,0.0,0.0,0.0,0.0,0.0,-7.3286,-7.6519,-7.95,-8.1977,-8.3949,-8.4777,-8.519,-8.519,-8.3707,-8.25,-8.1707,0.0,0.0,0.0,0.0,0.0,0.0,0.0,0.0,0.0,0.0,0.0,0.0,0.0,0.0,0.0,0.0,0.0,0.0,0.0,0.0,0.0,0.0,0.0,0.0,0.0,0.0,-7.6275,-7.5587,-7.4793,0.0,0.0,0.0,0.0,0.0,0.0,0.0,0.0,0.0,-7.9175,-8.1422,-8.3059,-8.3093,-8.3751,-8.4193,-8.4092,-8.34,-8.2888,-8.3059,-8.2299,-8.1495,0.0,0.0,0.0,0.0,0.0,0.0,0.0,0.0,0.0,0.0,0.0,0.0,0.0,0.0,0.0,0.0,0.0,0.0,0.0,0.0,0.0,0.0,0.0,0.0,0.0,0.0,0.0,-6.1542,-6.1554,0.0,0.0,0.0,0.0,0.0,0.0,0.0,0.0,0.0,0.0,0.0,-7.05,-7.0323,0.0,0.0,0.0,0.0,0.0,0.0,0.0,0.0,0.0,0.0,0.0,0.0,-7.3753,-7.6918,-7.9982,-8.2354,-8.3983,-8.5294,-8.5949,-8.5915,-8.4432,-8.2811,-8.1052,0.0,0.0,0.0,0.0,0.0,0.0,0.0,0.0,0.0,0.0,0.0,0.0,0.0,0.0,0.0,0.0,0.0,0.0,0.0,0.0,0.0,0.0,0.0,0.0,0.0,-7.6275,0.0,0.0,0.0,0.0,0.0,0.0,0.0,0.0,0.0,0.0,-7.7489,-7.8426,-7.9102,-8.0308,-8.1399,-8.2012,-8.2338,-8.2555,0.0,0.0,0.0,0.0,0.0,0.0,0.0,0.0,0.0,0.0,0.0,0.0,0.0,0.0,-7.9026,-7.8688,-7.9044,-7.943,-7.9335,0.0,0.0,0.0,0.0,0.0,0.0,0.0,0.0,0.0,0.0,0.0,0.0,0.0,0.0,-6.4536,-6.4485,-6.4666,0.0,0.0,0.0,0.0,0.0,0.0,0.0,0.0,-7.1284,-7.2293,-7.2888,-7.2715,-7.2485,-7.2202,-7.1206,-7.0212,0.0,0.0,0.0,0.0,0.0,0.0,0.0,0.0,-7.4263,-7.7592,-8.0396,-8.25,-8.3983,-8.5501,-8.6294,-8.6294,-8.4811,-8.3087,-8.1121,-7.9327,-7.8051,0.0,0.0,0.0,0.0,0.0,0.0,0.0,0.0,0.0,0.0,0.0,0.0,0.0,0.0,0.0,0.0,0.0,0.0,0.0,0.0,0.0,0.0,0.0,-7.6275,0.0,0.0,0.0,0.0,0.0,0.0,0.0,0.0,0.0,-7.6541,-7.7334,-7.8092,-7.8698,-7.9467,-8.0128,-8.0602,0.0,0.0,0.0,0.0,0.0,0.0,0.0,-8.1364,-8.0891,-8.0781,-8.0667,-8.0349,-8.0365,-8.0571,-8.0768,0.0,0.0,-8.0076,-8.0468,-8.0929,-8.0814,-8.1237,-8.1244,-8.0105,-8.0371,-8.0634,0.0,0.0,0.0,0.0,-5.9351,0.0,0.0,0.0,-6.6362,-6.7182,0.0,-6.6552,0.0,0.0,0.0,0.0,-6.6763,-6.8996,0.0,0.0,-7.3226,-7.4269,-7.4929,-7.4901,-7.4876,-7.4761,-7.4351,-7.3791,-7.299,-6.9117,-6.701,0.0,0.0,0.0,0.0,0.0,-7.4919,-7.8327,-8.0672,-8.2569,-8.3983,-8.5501,-8.6294,-8.6225,-8.4846,-8.3362,-8.1914,-8.1052,-7.9603,-7.7465,-7.7481,0.0,0.0,0.0,0.0,0.0,0.0,0.0,0.0,0.0,0.0,0.0,0.0,0.0,0.0,0.0,0.0,0.0,0.0,0.0,0.0,-7.6275,0.0,0.0,0.0,0.0,0.0,0.0,0.0,0.0,0.0,-7.665,-7.6723,-7.7469,-7.8005,-7.8114,0.0,0.0,0.0,0.0,-8.0349,-8.004,-8.0585,-8.1199,-8.141,-8.141,-8.1514,-8.1818,0.0,0.0,-8.2641,-8.2883,-8.3225,-8.4035,-8.4497,-8.4049,-8.1363,-8.135,-8.1681,-8.1972,-8.2084,-8.1907,-8.2028,-8.249,-8.2796,-6.1711,0.0,0.0,0.0,0.0,-6.5281,-6.6563,-6.7608,-6.8691,-6.9182,-6.9182,-6.9245,0.0,0.0,0.0,0.0,0.0,0.0,-7.2305,-7.3293,-7.447,-7.54,-7.6018,-7.5773,-7.5801,-7.5946,-7.5139,-7.4862,-7.5088,-7.304,-7.1242,-6.9793,0.0,0.0,0.0,0.0,-7.6496,-7.8419,-8.119,-8.3052,-8.4018,-8.5501,-8.6053,-8.5535,-8.5087,-8.4156,-8.2638,-8.1879,-8.0914,-7.9707,-7.8489,0.0,0.0,0.0,0.0,0.0,0.0,0.0,0.0,0.0,0.0,0.0,0.0,0.0,0.0,0.0,0.0,0.0,0.0,0.0,-7.6275,-7.6275,-7.6275,0.0,0.0,0.0,0.0,0.0,0.0,0.0,0.0,0.0,-7.838,-7.8092,-7.8277,0.0,0.0,-7.9961,-8.0438,-8.0831,-8.1116,-8.1079,-8.1332,0.0,-8.1754,-8.1649,-8.1581,-8.1683,-8.2651,-8.3556,-8.3954,-8.4497,-8.4867,-8.4824,-8.5342,-8.5517,-8.49,-8.5285,-8.5692,-8.5536,-8.5706,-8.5667,-8.502,-8.4976,-8.5091,-6.7254,-6.6461,-6.5685,-6.5781,-6.6576,-6.8122,-6.9435,-7.0588,-7.143,-7.1867,-7.1962,-7.1904,-7.1351,-7.0488,-7.0945,0.0,0.0,0.0,-7.4213,-7.5424,-7.6176,-7.6868,-7.7465,-7.7306,-7.6994,-7.6651,-7.5901,-7.5741,-7.601,-7.5246,-7.4212,-7.3099,0.0,-7.3399,-7.3636,-7.5708,-7.7468,-7.8879,-8.1224,-8.2949,-8.4018,-8.5501,-8.6087,-8.5639,-8.5052,-8.4294,-8.3362,-8.2362,-8.1431,-8.0638,-7.947,-7.852,0.0,0.0,0.0,0.0,0.0,0.0,0.0,0.0,0.0,0.0,0.0,-7.3904,-7.4798,0.0,0.0,0.0,-7.6901,-7.7217,-7.7253,-7.7253,0.0,0.0,0.0,0.0,0.0,0.0,0.0,-7.7217,-7.779,-7.8472,-7.9337,-7.9015,-7.8942,-7.98,-7.9771,-7.978,-8.0288,0.0,-8.1144,-8.1141,-8.1396,-8.1649,-8.1785,-8.2007,-8.2336,-8.2732,-8.3972,-8.4964,-8.5244,-8.586,-8.6339,-8.6406,-8.664,-8.6939,-8.7267,-8.7902,-8.8047,-8.7147,-8.7241,-8.7254,-8.6511,-8.653,-8.6753,-7.1562,-7.1591,-6.8284,-6.767,-6.8892,-7.0437,-7.1804,-7.313,-7.4062,-7.4694,-7.4889,-7.4368,-7.3934,-7.3617,-7.3297,0.0,-7.38,-7.4733,-7.607,-7.7628,-7.7952,-7.8393,-7.9018,-7.9018,-7.8333,-7.7055,-7.6705,-7.6427,-7.6213,-7.6337,-7.641,-7.6419,-7.5523,-7.5111,-7.5216,-7.6656,-7.8085,-7.95,-8.1086,-8.2604,-8.3983,-8.5397,-8.6122,-8.6087,-8.4742,-8.3983,-8.388,-8.2604,-8.1535,-8.0788,-8.0487,-7.9634,-7.8215,0.0,0.0,0.0,0.0,0.0,0.0,0.0,0.0,0.0,0.0,0.0,0.0,0.0,0.0,0.0,-7.8163,0.0,-7.8702,-7.8702,0.0,0.0,0.0,-7.8702,-7.8702,-7.8702,-7.8738,-7.8774,0.0,0.0,-8.0006,-8.0078,-8.0034,-7.9808,-7.9526,-7.9391,-7.9357,-8.0253,-8.0722,-8.0628,-8.1175,-8.1683,-8.19,-8.2589,-8.3527,-8.4496,-8.5648,-8.6312,-8.6534,-8.7007,-8.7723,-8.8342,-8.8176,-8.809,-8.8869,-8.9114,-8.8907,-8.7461,-8.7373,-8.7433,-8.7223,-8.7506,-8.7802,-7.2513,-7.2523,-7.2256,-7.1985,-7.1874,-7.2505,-7.3022,-7.3381,-7.418,-7.45,-7.463,-7.4702,-7.4705,-7.4641,-7.4577,-7.513,-7.6177,-7.6396,-7.7293,-7.8688,-7.8817,-7.88,-7.8723,-7.8429,-7.7996,-7.7385,-7.703,-7.7144,-7.7738,-7.8332,-7.8628,-7.8669,-7.8978,-7.8216,-7.651,-7.8074,-7.9155,-7.95,-8.1569,-8.3087,-8.3983,-8.4363,-8.4535,-8.457,-8.419,-8.3742,-8.319,-8.3037,-8.2578,-8.1782,-8.1478,-8.091,-8.0002,-7.8897,0.0,0.0,0.0,0.0,0.0,0.0,0.0,0.0,0.0,-7.4759,-7.6052,0.0,-7.7225,0.0,-7.8489,-7.8702,-7.8702,-7.8702,0.0,0.0,-7.8702,-7.8702,-7.8702,-7.8702,-7.8955,-7.9535,-7.9607,-8.0221,-8.1777,-8.1815,-8.1814,-8.198,-8.133,-8.0863,-8.0897,-8.1282,-8.1593,-8.1596,-8.1882,-8.2275,-8.2901,-8.3563,-8.4434,-8.5677,-8.6412,-8.7096,-8.811,-8.8624,-8.8973,-8.9161,-8.8937,-8.8914,-8.9227,-8.9211,-8.9071,-8.8843,-8.8871,-8.8897,-8.882,-8.873,-8.8808,-7.2952,-7.33,-7.3714,-7.3849,-7.3791,-7.3964,-7.4165,-7.4299,-7.4728,-7.5059,-7.5387,-7.5778,-7.5907,-7.5907,-7.5907,-7.6492,-7.7447,-7.7447,-7.8216,-7.9509,-7.9232,-7.9028,-7.8791,-7.8252,-7.7794,-7.7473,-7.7147,-7.7581,-7.8711,-7.938,-7.9836,-8.0039,-8.0653,-8.0028,-7.8456,-7.9449,-8.0017,-8.0051,-8.1914,-8.3087,-8.35,-8.3845,-8.4018,-8.3983,-8.3673,-8.3376,-8.3058,-8.2855,-8.2615,-8.2257,-8.1903,-8.1523,-8.1103,-7.985,-7.875,0.0,0.0,0.0,0.0,0.0,0.0,0.0,0.0,0.0,0.0,0.0,-7.8341,-7.9032,-7.9501,-7.9788,-7.9752,-8.0078,-8.0295,-8.0295,-8.0621,-8.0839,-8.0839,-8.0839,-8.0984,-8.1454,-8.1491,-8.1853,-8.2867,-8.2903,-8.2903,-8.3083,-8.2719,-8.2354,-8.2274,-8.2659,-8.3118,-8.3118,-8.3184,-8.3544,-8.4352,-8.4659,-8.5278,-8.6582,-8.7167,-8.7764,-8.872,-8.9163,-8.9386,-8.9359,-8.9184,-8.9047,-8.9184,-8.9102,-8.9047,-8.9146,-8.9238,-8.9265,-8.9397,-8.9541,-8.979,-7.3128,-7.3761,-7.3831,-7.4248,-7.4869,-7.4869,-7.5074,-7.5346,-7.5346,-7.5819,-7.6523,-7.6818,-7.695,-7.7016,-7.7016,-7.7385,-7.8031,-7.8031,-7.8739,-7.9909,-7.9386,-7.9047,-7.8955,-7.8308,-7.7794,-7.7408,-7.7147,-7.7734,-7.9192,-7.9817,-8.0344,-8.0792,-8.1324,-8.1201,-8.0445,-8.0635,-8.0776,-8.0776,-8.2086,-8.2776,-8.2776,-8.3397,-8.3742,-8.3756,-8.3135,-8.292,-8.3204,-8.2546,-8.2303,-8.2498,-8.2097,-8.1847,-8.1751,-8.07,-7.9733,0.0,-7.8265,0.0,0.0,0.0,0.0,0.0,0.0,0.0,0.0,-7.8817,-7.9499,-8.0295,-8.102,-8.1418,-8.1418,-8.2034,-8.2469,-8.2468,-8.3048,-8.3483,-8.3483,-8.3483,-8.3483,-8.3483,-8.3483,-8.3483,-8.3627,-8.3627,-8.3627,-8.37,-8.3883,-8.3845,-8.3504,-8.3966,-8.4395,-8.4609,-8.4649,-8.4835,-8.5388,-8.5579,-8.5978,-8.7147,-8.7746,-8.8272,-8.8767,-8.9109,-8.9371,-8.9371,-8.9184,-8.9019,-8.9047,-8.9047,-8.9019,-8.9075,-8.9102,-8.9157,-8.9345,-8.9766,-9.0295,-7.334,-7.3831,-7.411,-7.4456,-7.4869,-7.4869,-7.4937,-7.5006,-7.5278,-7.5819,-7.6488,-7.6554,-7.6752,-7.695,-7.7016,-7.7385,-7.8031,-7.8031,-7.8493,-7.9263,-7.917,-7.877,-7.8247,-7.8093,-7.7662,-7.7112,-7.7016,-7.7312,-7.7927,-7.9607,-8.0344,-8.0157,-8.1749,-8.2232,-8.1509,0.0,0.0,0.0,-8.1845,-8.2017,-8.2017,-8.2155,-8.2285,-8.2474,-8.2336,0.0,-8.2639,-8.2694,-8.2796,-8.2841,-8.289,0.0,0.0,0.0,0.0,0.0,0.0,0.0,0.0,0.0,0.0,0.0,-8.2022,-8.1416,-7.954,-8.0731,-8.1925,-8.2722,-8.2976,-8.3048,-8.3048,-8.3157,-8.3265,-8.3265,-8.341,-8.3483,-8.3483,-8.3483,-8.3483,-8.3483,-8.3483,-8.3736,-8.4352,-8.446,-8.446,-8.4497,-8.5153,-8.5337,-8.4718,-8.4527,-8.4476,-8.4612,-8.506,-8.5325,-8.5331,-8.5737,-8.6246,-8.6921,-8.7583,-8.8127,-8.8567,-8.8889,-8.9184,-8.9345,-8.9184,-8.9075,-8.9265,-8.9157,-8.9075,-8.9254,-8.9318,-8.9254,-8.9129,-8.9211,-8.9412,-7.3269,-7.3831,-7.397,-7.4387,0.0,-7.4869,-7.4869,-7.4937,-7.5074,-7.5482,-7.5954,-7.6324,-7.662,-7.6752,-7.695,-7.7385,-7.8031,-7.8031,-7.8432,-7.9078,-7.8739,-7.8401,-7.8031,-7.7693,-7.742,-7.7277,-7.7081,-7.7572,-7.8786,-8.0351,-8.1209,-8.1379,-8.3142,-8.3673,-8.2914,-8.2914,-8.2535,-8.181,-8.1776,-8.1776,-8.1776,-8.1776,-8.1871,-8.2071,-8.2118,0.0,0.0,0.0,0.0,0.0,0.0,0.0,0.0,-8.2296,0.0,-8.1523,-8.1564,-8.1692,-8.1896,-8.2417,-8.2843,-8.3034,-8.326,-8.2828,-8.1636,-8.236,-8.3048,-8.3446,-8.3483,-8.3483,-8.3483,-8.3845,-8.4098,-8.4098,-8.4424,-8.4678,-8.4678,-8.4678,-8.4678,-8.4678,-8.4678,-8.4859,-8.5257,-8.5293,-8.5293,-8.5293,-8.5695,-8.5879,-8.5591,-8.5445,-8.5403,-8.5473,-8.573,-8.5952,-8.5953,-8.6029,-8.6393,-8.6958,-8.7295,-8.7683,-8.8332,-8.8719,-8.9047,-8.9184,-8.9102,-8.9047,-8.9157,-8.9102,-8.9047,-8.9157,-8.9211,-8.9184,-8.9047,-8.9307,-8.9616,-7.3057,-7.3761,-7.3761,-7.4248,-7.4869,-7.4869,-7.4869,-7.4869,-7.4869,0.0,0.0,-7.6088,-7.6391,-7.6554,-7.6818,-7.7323,-7.7847,-7.7847,-7.8185,-7.8709,-7.8124,-7.7847,-7.7816,-7.7293,-7.7147,-7.7408,-7.7442,-7.828,-8.0024,-8.1447,-8.2422,-8.3052,-8.4471,-8.4811,-8.4052,-8.4018,-8.3397,-8.2259,-8.219,-8.219,-8.2237,-8.2237,-8.2345,-8.2627,-8.2627,-8.2859,-8.3316,-8.3256,-8.3276,-8.3375,-8.3279,-8.3208,-8.3173,-8.2612,-8.2304,-8.2391,-8.222,-8.2287,-8.2691,-8.3161,-8.3544,-8.3917,-8.3917,-8.3845,-8.3736,-8.37,-8.3772,-8.3917,-8.3917,-8.3917,-8.3917,-8.4497,-8.4895,-8.4895,-8.5511,-8.5873,-8.5873,-8.5909,-8.5837,-8.5909,-8.5837,-8.5909,-8.5873,-8.5873,-8.5909,-8.5909,-8.5873,-8.5911,-8.6062,-8.6174,-8.6247,-8.6247,-8.621,-8.6356,-8.6465,-8.6356,-8.6465,-8.6921,-8.7077,-8.7364,-8.8053,-8.8671,-8.8964,-8.9019,-8.8992,-8.8992,-8.8992,-8.8992,-8.8992,-8.8992,-8.8992,-8.8992,-8.9047,-8.9541,-8.9911,-7.3057,-7.3761,-7.3761,-7.4248,-7.4869,-7.4869,-7.4869,-7.4869,-7.4869,-7.5074,-7.5414,-7.5789,-7.6191,-7.6523,-7.6818,-7.7077,-7.7169,-7.7169,-7.7231,-7.7323,-7.72,-7.7169,-7.7139,-7.7046,-7.7016,-7.7147,-7.8344,-7.9314,-8.011,-8.2392,-8.3585,-8.349,-8.4572,-8.4811,-8.4087,-8.4018,-8.3914,-8.3707,-8.3707,-8.3804,-8.4045,-8.401,-8.4283,-8.4751,-8.4716,-8.489,-8.5129,-8.4533,-8.4182,-8.4227,-8.3595,-8.3208,-8.3208,-8.3103,-8.3209,-8.3642,-8.3922,-8.4304,-8.4741,-8.5242,-8.5509,-8.5583,-8.5547,-8.5257,-8.4605,-8.4533,-8.4823,-8.5475,-8.5475,-8.5583,-8.5583,-8.5619,-8.5692,-8.5728,-8.5801,-8.5909,-8.5909,-8.5909,-8.5909,-8.5909,-8.5909,-8.5909,-8.5909,-8.5909,-8.5909,-8.5909,-8.5909,-8.5909,-8.5986,-8.621,-8.6283,-8.6174,-8.6137,-8.6136,-8.6098,-8.6169,-8.6392,-8.6607,-8.7378,-8.7905,-8.8127,-8.8642,-8.8964,-8.8992,-8.8992,-8.8992,-8.8992,-8.8992,-8.9067,-8.9104,-8.9142,-8.9142,-8.9179,-8.9495,-8.9705,-7.3057,-7.3761,-7.3761,-7.4248,-7.4869,-7.4869,-7.4869,-7.4869,-7.4869,-7.5006,-7.521,-7.5685,-7.6021,-7.6288,-7.6752,-7.7016,-7.7016,-7.7016,-7.7016,-7.7016,-7.7016,-7.7016,-7.7016,-7.7016,-7.7016,-7.7081,-7.7896,-7.8848,-7.9989,-8.2026,-8.3351,-8.4031,-8.5189,-8.5604,-8.5294,-8.5259,-8.5309,-8.5422,-8.4481,-8.4164,-8.4404,-8.4404,-8.469,-8.5158,-8.5205,-8.5297,-8.5491,-8.5175,-8.4999,-8.4999,-8.4648,-8.4437,-8.4437,-8.4086,-8.4062,-8.4463,-8.4504,-8.4707,-8.5179,-8.5644,-8.5909,-8.5909,-8.5909,-8.5728,-8.5402,-8.533,-8.5511,-8.5873,-8.5909,-8.5909,-8.5909,-8.5909,-8.5909,-8.5909,-8.5909,-8.5909,-8.5909,-8.5909,-8.5909,-8.5909,-8.5909,-8.5909,-8.5909,-8.5909,-8.5909,-8.5909,-8.5909,-8.5909,-8.5909,-8.6024,-8.6099,-8.5987,-8.5987,-8.5987,-8.5987,-8.6319,-8.6611,-8.6748,-8.7756,-8.8313,-8.8323,-8.8642,-8.8964,-8.8992,-8.8992,-8.8992,-8.9029,-8.9367,-8.9592,-8.9705,-9.0118,-9.0306,-9.04,-9.0702,-9.0752,-7.3057,-7.3761,-7.3761,-7.4248,-7.4869,-7.4869,-7.4869,-7.4869,-7.4869,-7.4869,-7.5006,-7.558,-7.5917,-7.6051,-7.662,-7.695,-7.7016,-7.7016,-7.7016,-7.7016,-7.7016,-7.7016,-7.7016,-7.7016,-7.7016,-7.7212,-7.7734,-7.888,-8.0472,-8.1968,-8.3464,-8.4856,-8.5856,-8.6294,-8.6294,-8.6344,-8.6494,-8.6622,-8.5367,-8.4828,-8.5116,-8.5116,-8.5354,-8.5776,-8.5811,-8.5868,-8.6017,-8.5842,-8.5771,-8.5771,-8.5596,-8.5536,-8.5591,-8.5144,-8.5049,-8.5472,-8.5353,-8.5365,-8.584,-8.6044,-8.6163,-8.6163,-8.5982,-8.5909,-8.5909,-8.5909,-8.5909,-8.5909,-8.5909,-8.5909,-8.5945,-8.609,-8.6163,-8.6163,-8.6344,-8.6489,-8.6452,-8.6416,-8.6416,-8.6416,-8.6271,-8.6126,-8.5944,-8.5909,-8.5909,-8.5909,-8.5909,-8.5909,-8.5909,-8.5909,-8.5909,-8.5909,-8.5909,-8.6024,-8.6174,-8.6501,-8.6856,-8.709,-8.8075,-8.8517,-8.8503,-8.8757,-8.9114,-8.9217,-8.9292,-8.948,-8.9592,-9.0043,-9.0456,-9.0531,-9.0944,-9.1386,-9.1461,-9.1843,-9.2012,-7.3057,-7.3761,-7.3831,-7.4248,-7.4869,-7.4869,-7.4869,-7.4869,-7.4869,-7.4869,-7.4937,-7.5278,-7.5647,-7.6051,-7.6355,-7.6752,-7.695,-7.7016,-7.7016,-7.7016,-7.7016,-7.7016,-7.7016,-7.7016,-7.7147,-7.7572,-7.888,-8.0231,-8.1853,-8.3519,-8.4909,-8.6008,-8.6244,-8.6294,-8.6294,-8.6543,-8.6691,-8.6691,-8.6748,-8.6956,-8.7196,-8.7243,-8.7351,-8.7667,-8.7632,-8.7667,-8.7527,-8.6965,-8.6579,-8.6544,-8.5912,-8.5707,-8.6109,-8.6047,-8.6446,-8.7244,-8.7335,-8.7501,-8.7821,-8.7283,-8.6923,-8.6851,-8.6344,-8.5982,-8.5982,-8.5945,-8.5909,-8.5982,-8.5945,-8.5982,-8.5945,-8.6525,-8.6923,-8.6959,-8.7503,-8.801,-8.7862,-8.801,-8.7971,-8.801,-8.7285,-8.6668,-8.6084,-8.5906,-8.5909,-8.5909,-8.5909,-8.5909,-8.5909,-8.5909,-8.5909,-8.5909,-8.5909,-8.6062,-8.6428,-8.657,-8.709,-8.7841,-8.8195,-8.8548,-8.8878,-8.9095,-8.9217,-9.0005,-9.0118,-9.0343,-9.0832,-9.1357,-9.1357,-9.1395,-9.1574,-9.1668,-9.1833,-9.2239,-9.244,-7.3269,-7.386,-7.404,-7.4387,-7.4869,-7.4869,-7.4869,-7.4869,-7.4869,-7.4869,-7.4869,-7.5006,-7.5278,-7.5685,-7.6221,-7.662,-7.6752,-7.6884,-7.7016,-7.7016,-7.7016,-7.7016,-7.7016,-7.7016,-7.7212,-7.7538,-7.8438,-8.0021,-8.2288,-8.4471,-8.5805,-8.6244,-8.6294,-8.6294,-8.6294,-8.6543,-8.6789,-8.6936,-8.7213,-8.7501,-8.769,-8.7596,-8.7643,-8.7878,-8.7925,-8.7925,-8.789,-8.7609,-8.7386,-8.7386,-8.707,-8.7125,-8.7506,-8.7161,-8.7315,-8.8157,-8.8049,-8.8031,-8.8188,-8.7901,-8.7681,-8.7681,-8.7467,-8.7249,-8.7285,-8.7249,-8.7285,-8.7213,-8.6851,-8.6742,-8.7177,-8.7539,-8.7718,-8.7754,-8.8007,-8.8188,-8.8188,-8.8188,-8.8188,-8.8152,-8.7899,-8.7245,-8.6186,-8.5899,-8.5906,-8.5909,-8.5909,-8.5909,-8.5909,-8.5909,-8.5909,-8.5909,-8.5909,-8.6099,-8.6535,-8.7188,-8.7683,-8.8164,-8.8869,-8.9497,-8.9658,-9.0231,-9.0644,-9.0944,-9.0944,-9.1057,-9.132,-9.192,-9.2221,-9.2258,-9.2738,-9.3078,-9.3509,-9.3693,-9.3995,-7.351,-7.397,-7.4318,-7.4594,-7.4869,-7.4869,-7.4869,-7.4869,-7.4869,-7.4869,-7.4869,-7.4869,-7.5006,-7.5346,-7.599,-7.6391,-7.6554,-7.6818,-7.7016,-7.7016,-7.7016,-7.7016,-7.7016,-7.7147,-7.7343,-7.7667,-7.8054,-7.9718,-8.2401,-8.5014,-8.6294,-8.6294,-8.6294,-8.6344,-8.6444,-8.6691,-8.6971,-8.7178,-8.7501,-8.7737,-8.7831,-8.7737,-8.7655,-8.7878,-8.7925,-8.7925,-8.7925,-8.7925,-8.7936,-8.8075,-8.8075,-8.8315,-8.8828,-8.8374,-8.84,-8.9076,-8.8971,-8.8879,-8.8879,-8.8662,-8.8553,-8.8553,-8.8333,-8.8188,-8.8188,-8.8188,-8.8297,-8.8481,-8.801,-8.7937,-8.808,-8.8408,-8.8553,-8.8553,-8.8698,-8.8879,-8.8915,-8.8879,-8.8915,-8.8879,-8.8734,-8.7932,-8.6586,-8.6044,-8.5904,-8.5907,-8.5909,-8.5909,-8.5909,-8.5909,-8.5909,-8.5909,-8.5986,-8.632,-8.6781,-8.7321,-8.8004,-8.8869,-8.9618,-9.0137,-9.0456,-9.1169,-9.1695,-9.162,-9.1733,-9.2033,-9.2446,-9.2859,-9.3009,-9.316,-9.3527,-9.4076,-9.4436,-9.4729,-9.4983,-7.3621,-7.4318,-7.4731,-7.4869,-7.4869,-7.4869,-7.4869,-7.4869,-7.4869,-7.4869,-7.4869,-7.4869,-7.4869,-7.5006,-7.5654,-7.6124,-7.6488,-7.6818,-7.7016,-7.7016,-7.7016,-7.7016,-7.7016,-7.7343,-7.7667,-7.799,-7.8374,-7.9963,-8.2661,-8.5066,-8.6294,-8.6294,-8.6294,-8.6444,-8.6642,-8.6936,-8.7213,-8.7453,-8.7737,-8.7878,-8.7878,-8.7878,-8.7878,-8.7925,-8.7925,-8.7925,-8.7925,-8.789,-8.8075,-8.8461,-8.8497,-8.8863,-8.9683,-8.9773,-8.9945,-9.0353,-9.0473,-9.0436,-9.0292,-8.9712,-8.935,-8.9277,-8.877,-8.8261,-8.8405,-8.8405,-8.8734,-8.9277,-8.9277,-8.8988,-8.8553,-8.9024,-8.9314,-8.9386,-9.0002,-9.0328,-9.04,-9.0255,-9.0473,-9.0292,-8.9712,-8.8662,-8.7138,-8.6302,-8.5976,-8.5907,-8.5909,-8.5909,-8.5909,-8.5909,-8.5909,-8.6022,-8.6283,-8.6783,-8.7258,-8.7804,-8.8512,-8.9526,-9.0304,-9.0606,-9.1057,-9.1545,-9.2033,-9.2371,-9.2559,-9.2972,-9.3573,-9.3865,-9.3798,-9.3798,-9.376,-9.4208,-9.4689,-9.4767,-9.5021,-7.404,-7.4663,-7.48,-7.4869,-7.4869,-7.4869,-7.4869,-7.4869,-7.4869,-7.4869,-7.4869,-7.4869,-7.4869,-7.4937,-7.5617,-7.6021,-7.6221,-7.6752,-7.7016,-7.7016,-7.7016,-7.7016,-7.7016,-7.7343,-7.7732,-7.8054,-7.8469,-7.9992,-8.2718,-8.5118,-8.6294,-8.6344,-8.6494,-8.6593,-8.674,-8.713,-8.7405,-8.7513,-8.7784,-8.7925,-8.7925,-8.7925,-8.7925,-8.7925,-8.7925,-8.8029,-8.827,-8.827,-8.8461,-8.8951,-8.8951,-8.9256,-8.9809,-9.0177,-9.0421,-9.0541,-9.0618,-9.0618,-9.0581,-9.0328,-9.0147,-9.0147,-8.9893,-8.9676,-8.9748,-8.9748,-8.9857,-9.0074,-9.0147,-9.0002,-8.9893,-9.0002,-9.0183,-9.0219,-9.0436,-9.0618,-9.0618,-9.0618,-9.0618,-9.0545,-9.0259,-8.9356,-8.7503,-8.6374,-8.594,-8.5907,-8.5909,-8.5909,-8.5909,-8.5909,-8.5945,-8.6019,-8.646,-8.7195,-8.8169,-8.8562,-8.9268,-9.0505,-9.1395,-9.177,-9.2221,-9.2709,-9.3197,-9.3197,-9.3385,-9.346,-9.394,-9.394,-9.4015,-9.4015,-9.4015,-9.4265,-9.4689,-9.4819,-9.5094,-7.4456,-7.4869,-7.4869,-7.4869,-7.4869,-7.4869,-7.4869,-7.4869,-7.4869,-7.4869,-7.4869,-7.4869,-7.4869,-7.5006,-7.5715,-7.5984,-7.6051,-7.6686,-7.7016,-7.7016,-7.7016,-7.7016,-7.7212,-7.7538,-7.7925,-7.8374,-7.9037,-8.0537,-8.2628,-8.4717,-8.5907,-8.6444,-8.6642,-8.6789,-8.6985,-8.7322,-8.7548,-8.7643,-8.7831,-8.7925,-8.7925,-8.7925,-8.7925,-8.7925,-8.7925,-8.8075,-8.8461,-8.8506,-8.8819,-8.9343,-8.9429,-8.9641,-9.0095,-9.0421,-9.0618,-9.0618,-9.0618,-9.0618,-9.0618,-9.0618,-9.0581,-9.0581,-9.0581,-9.0618,-9.0618,-9.0618,-9.0618,-9.0618,-9.0618,-9.0618,-9.0618,-9.0581,-9.0618,-9.0618,-9.0618,-9.0618,-9.0618,-9.0618,-9.0473,-9.0147,-8.9679,-8.8701,-8.7394,-8.641,-8.5976,-8.5909,-8.5909,-8.5909,-8.5909,-8.6126,-8.6271,-8.6344,-8.6959,-8.8034,-8.9148,-8.9835,-9.0379,-9.1507,-9.2071,-9.2596,-9.3084,-9.3648,-9.3948,-9.4015,-9.4015,-9.4015,-9.4015,-9.4015,-9.4015,-9.4015,-9.416,-9.4376,-9.4663,-9.4895,-9.5167,-7.4869,-7.4869,-7.4869,-7.4869,-7.4869,-7.4869,-7.4869,-7.4869,-7.4869,-7.4869,-7.4869,-7.4869,-7.4937,-7.5074,-7.5685,-7.5984,-7.6185,-7.6686,-7.7016,-7.7016,-7.7016,-7.7212,-7.7442,-7.7861,-7.8246,-7.8691,-8.0146,-8.1486,-8.2718,-8.4184,-8.5481,-8.6459,-8.6691,-8.6985,-8.7466,-8.7501,-8.7643,-8.7831,-8.7925,-8.7925,-8.7925,-8.7925,-8.7925,-8.7925,-8.7925,-8.8167,-8.8506,-8.8551,-8.8995,-8.9803,-8.9929,-9.0136,-9.0461,-9.0618,-9.0618,-9.0618,-9.0618,-9.0618,-9.0618,-9.0618,-9.0618,-9.0618,-9.0618,-9.0618,-9.0618,-9.0618,-9.0618,-9.0618,-9.0618,-9.0618,-9.0618,-9.0618,-9.0618,-9.0618,-9.0618,-9.0618,-9.0618,-9.0581,-9.0255,-8.9459,-8.8478,-8.7425,-8.6919,-8.6376,-8.5904,-8.5907,-8.5982,-8.6054,-8.6163,-8.6634,-8.6996,-8.7177,-8.7838,-8.8983,-9.0111,-9.1182,-9.1769,-9.2406,-9.2659,-9.3009,-9.346,-9.3977,-9.3977,-9.4015,-9.4015,-9.4015,-9.4015,-9.4015,-9.4073,-9.4102,-9.4265,-9.4486,-9.4767,-9.5021,-9.5239,-7.4869,-7.4869,-7.4869,-7.4869,-7.4869,-7.4869,-7.4869,-7.4869,-7.4869,-7.4869,-7.4869,-7.4869,-7.5006,-7.5278,-7.5782,-7.6088,-7.6355,-7.6818,-7.7016,-7.7016,-7.7016,-7.7212,-7.7507,-7.7925,-7.8405,-7.9256,-8.1133,-8.2321,-8.2998,-8.4717,-8.6109,-8.6642,-8.6887,-8.713,-8.7501,-8.769,-8.7831,-8.7878,-8.7925,-8.7925,-8.7925,-8.7925,-8.7925,-8.789,-8.8167,-8.8506,-8.8951,-8.8995,-8.9429,-9.034,-9.038,-9.0461,-9.0541,-9.0618,-9.0618,-9.0618,-9.0618,-9.0618,-9.0618,-9.0618,-9.0618,-9.0618,-9.0618,-9.0618,-9.0618,-9.0618,-9.0618,-9.0618,-9.0618,-9.0618,-9.0618,-9.0618,-9.0618,-9.0618,-9.0618,-9.0581,-9.0473,-9.0074,-8.9422,-8.8698,-8.7901,-8.7141,-8.6452,-8.598,-8.5944,-8.6018,-8.6344,-8.6597,-8.6778,-8.7358,-8.779,-8.7937,-8.89,-8.9898,-9.0944,-9.1861,-9.2535,-9.2968,-9.3251,-9.3347,-9.376,-9.4015,-9.4015,-9.4015,-9.4015,-9.4015,-9.4015,-9.4015,-9.4073,-9.418,-9.4339,-9.4636,-9.4971,-9.5191,-9.5417,-7.4869,-7.4869,-7.4869,-7.4869,-7.4869,-7.4869,-7.4869,-7.4869,-7.4869,-7.4869,-7.4869,-7.4869,-7.5006,-7.5278,-7.5782,-7.6088,-7.6355,-7.6752,-7.7016,-7.7016,-7.7016,-7.7277,-7.7732,-7.8246,-7.8659,-7.9412,-8.1263,-8.2419,-8.283,-8.4717,-8.6159,-8.6789,-8.7117,-8.7405,-8.7643,-8.7796,-8.7925,-8.7925,-8.7925,-8.7925,-8.7925,-8.7925,-8.7936,-8.8121,-8.8406,-8.8819,-8.9386,-8.9471,-8.9809,-9.0461,-9.0618,-9.0618,-9.0618,-9.0618,-9.0618,-9.0618,-9.0618,-9.0618,-9.0618,-9.0618,-9.0618,-9.0618,-9.0618,-9.0618,-9.0618,-9.0618,-9.0618,-9.0618,-9.0618,-9.0618,-9.0618,-9.0618,-9.0618,-9.0618,-9.0618,-9.0473,-9.0183,-8.9459,-8.8662,-8.7901,-8.7177,-8.6561,-8.609,-8.5909,-8.6054,-8.6271,-8.6706,-8.7213,-8.7467,-8.8155,-8.8558,-8.904,-8.9966,-9.0885,-9.1731,-9.2528,-9.3252,-9.3567,-9.3835,-9.3798,-9.3977,-9.4015,-9.4015,-9.4015,-9.4015,-9.4015,-9.4015,-9.4015,-9.4044,-9.4199,-9.4448,-9.4729,-9.5032,-9.5286,-9.5486,-7.4869,-7.4869,-7.4869,-7.4869,-7.4869,-7.4869,-7.4869,-7.4869,-7.4869,-7.4869,-7.4869,-7.4869,-7.4937,-7.5142,-7.5782,-7.6021,-7.6155,-7.6686,-7.7016,-7.7016,-7.7016,-7.7343,-7.8021,-7.8659,-7.8975,-7.932,-8.0577,-8.1759,-8.2774,-8.4277,-8.5651,-8.6936,-8.7357,-8.7643,-8.7796,-8.7878,-8.7925,-8.7925,-8.7925,-8.7925,-8.789,-8.7936,-8.8121,-8.8461,-8.8596,-8.9039,-8.9683,-8.9929,-9.0136,-9.0541,-9.0618,-9.0618,-9.0618,-9.0618,-9.0618,-9.0618,-9.0618,-9.0618,-9.0618,-9.0618,-9.0618,-9.0618,-9.0618,-9.0618,-9.0618,-9.0618,-9.0618,-9.0618,-9.0618,-9.0618,-9.0618,-9.0618,-9.0618,-9.0581,-9.0473,-9.0147,-8.9459,-8.8698,-8.7901,-8.7177,-8.6416,-8.5909,-8.5945,-8.5982,-8.6344,-8.6778,-8.7141,-8.7756,-8.8227,-8.8957,-8.9625,-9.0331,-9.0959,-9.1611,-9.2369,-9.2933,-9.3581,-9.377,-9.4015,-9.4015,-9.4015,-9.4015,-9.4015,-9.4015,-9.4015,-9.4015,-9.4015,-9.4015,-9.4151,-9.4394,-9.4625,-9.4782,-9.5067,-9.5379,-9.5509,-7.4869,-7.4869,-7.4869,-7.4869,-7.4869,-7.4869,-7.4869,-7.4869,-7.4869,-7.4869,-7.4869,-7.4869,-7.521,-7.5685,-7.5917,-7.6221,-7.662,-7.6884,-7.7016,-7.7016,-7.7016,-7.7408,-7.8085,-7.8786,-7.91,-7.9162,-7.9854,-8.0757,-8.2684,-8.4277,-8.5737,-8.7033,-8.7405,-8.7643,-8.7843,-8.7925,-8.7925,-8.7925,-8.7925,-8.7925,-8.7936,-8.8178,-8.8406,-8.8506,-8.917,-8.9599,-8.9929,-9.0258,-9.0461,-9.0578,-9.0618,-9.0618,-9.0618,-9.0618,-9.0618,-9.0618,-9.0618,-9.0618,-9.0618,-9.0618,-9.0618,-9.0618,-9.0618,-9.0618,-9.0618,-9.0618,-9.0618,-9.0618,-9.0618,-9.0618,-9.0618,-9.0618,-9.0618,-9.0545,-9.0147,-8.9676,-8.9205,-8.8191,-8.7213,-8.6959,-8.6308,-8.5982,-8.6054,-8.638,-8.6778,-8.7213,-8.7937,-8.877,-8.9133,-8.9643,-9.0311,-9.1031,-9.1692,-9.2294,-9.29,-9.3451,-9.38,-9.3889,-9.4015,-9.4015,-9.4015,-9.4015,-9.4015,-9.4015,-9.4015,-9.4015,-9.4015,-9.4015,-9.4293,-9.453,-9.4677,-9.4782,-9.5248,-9.5576,-9.5576,-7.5138,-7.4869,-7.4869,-7.4869,-7.4869,-7.4869,-7.4869,-7.4869,-7.4869,-7.4869,-7.4869,-7.4869,-7.521,-7.5685,-7.5917,-7.6288,-7.6752,-7.695,-7.7016,-7.7081,-7.7343,-7.7667,-7.8213,-7.8786,-7.91,-7.935,-8.0491,-8.1664,-8.2965,-8.4788,-8.6225,-8.7033,-8.7501,-8.7702,-8.7878,-8.7925,-8.7925,-8.7925,-8.7925,-8.7971,-8.8167,-8.8406,-8.8775,-8.9039,-8.9641,-8.9934,-9.0218,-9.0461,-9.0618,-9.0618,-9.0618,-9.0618,-9.0618,-9.0618,-9.0618,-9.0618,-9.0618,-9.0618,-9.0618,-9.0618,-9.0618,-9.0618,-9.0618,-9.0618,-9.0618,-9.0618,-9.0618,-9.0618,-9.0618,-9.0618,-9.0618,-9.0618,-9.0618,-9.0509,-8.9893,-8.9277,-8.8951,-8.7793,-8.6959,-8.6561,-8.6199,-8.6054,-8.6271,-8.6778,-8.7322,-8.7974,-8.8734,-8.935,-8.9857,-9.0368,-9.0827,-9.1363,-9.1904,-9.2387,-9.2982,-9.3522,-9.3822,-9.3948,-9.4015,-9.4015,-9.4015,-9.4015,-9.4015,-9.4015,-9.4015,-9.4015,-9.4015,-9.4073,-9.4293,-9.4503,-9.4613,-9.492,-9.5394,-9.5598,-9.5598,-7.5647,-7.5078,-7.5078,-7.5078,-7.5138,-7.5018,-7.5048,-7.4988,-7.4929,-7.4869,-7.4869,-7.4937,-7.521,-7.5482,-7.5954,-7.6288,-7.662,-7.6884,-7.7016,-7.7277,-7.7572,-7.8023,-7.8246,-7.8786,-7.9037,-7.9506,-8.2276,-8.2855,-8.3377,-8.5447,-8.6838,-8.713,-8.7643,-8.7878,-8.7925,-8.7925,-8.7925,-8.7925,-8.7925,-8.8075,-8.8406,-8.8596,-8.8995,-8.9641,-8.9893,-9.0218,-9.0461,-9.0618,-9.0618,-9.0618,-9.0618,-9.0618,-9.0618,-9.0618,-9.0618,-9.0618,-9.0618,-9.0618,-9.0618,-9.0618,-9.0618,-9.0618,-9.0618,-9.0618,-9.0618,-9.0618,-9.0618,-9.0618,-9.0618,-9.0618,-9.0618,-9.0618,-9.0618,-9.0473,-8.9857,-8.9096,-8.8408,-8.7575,-8.6742,-8.6054,-8.5909,-8.6271,-8.6742,-8.7213,-8.7648,-8.8662,-8.935,-8.9712,-8.9929,-9.0002,-9.0623,-9.1318,-9.1811,-9.2299,-9.2953,-9.3618,-9.3798,-9.3911,-9.3977,-9.4015,-9.4015,-9.4015,-9.4015,-9.4015,-9.4015,-9.4015,-9.4015,-9.4122,-9.4293,-9.4567,-9.4805,-9.5132,-9.5502,-9.5592,-9.5598,-7.6544,-7.6395,-7.6395,-7.6395,-7.6335,-7.5886,-7.5677,-7.5617,-7.5108,-7.4929,-7.4937,-7.5142,-7.5482,-7.5917,-7.6221,-7.6554,-7.6818,-7.695,-7.7147,-7.7442,-7.7861,-7.8246,-7.8501,-7.8912,-7.9037,-7.96,-8.1044,-8.2189,-8.3087,-8.4702,-8.6225,-8.7082,-8.7608,-8.7925,-8.7925,-8.7925,-8.7925,-8.7925,-8.7925,-8.8167,-8.8551,-8.8907,-8.9343,-8.9893,-9.0258,-9.0461,-9.0541,-9.0618,-9.0618,-9.0618,-9.0618,-9.0618,-9.0618,-9.0618,-9.0618,-9.0618,-9.0618,-9.0618,-9.0618,-9.0618,-9.0618,-9.0618,-9.0618,-9.0618,-9.0618,-9.0618,-9.0618,-9.0618,-9.0618,-9.0618,-9.0618,-9.0618,-9.0618,-9.0436,-8.9929,-8.9386,-8.8951,-8.7865,-8.6742,-8.6199,-8.5945,-8.6199,-8.6923,-8.7539,-8.8227,-8.9241,-8.9676,-9.0002,-8.9893,-8.9676,-9.0189,-9.0797,-9.1034,-9.1445,-9.2323,-9.2972,-9.3422,-9.3723,-9.3835,-9.4015,-9.4015,-9.4015,-9.4015,-9.4015,-9.4015,-9.4015,-9.4015,-9.4044,-9.4151,-9.4551,-9.4958,-9.5257,-9.5432,-9.5509,-9.5598,-7.7113,-7.6844,-7.6844,-7.6844,-7.6784,-7.6455,-7.6185,-7.5886,-7.5527,-7.5305,-7.5172,-7.5346,-7.5685,-7.6221,-7.6421,-7.6686,-7.695,-7.7016,-7.7212,-7.7538,-7.7925,-7.8246,-7.8564,-7.8912,-7.9132,-7.932,-8.0549,-8.1759,-8.3021,-8.449,-8.604,-8.7178,-8.769,-8.7878,-8.7925,-8.7925,-8.7925,-8.7936,-8.8121,-8.8406,-8.8819,-8.93,-8.9767,-9.0177,-9.0461,-9.0618,-9.0618,-9.0618,-9.0618,-9.0618,-9.0618,-9.0618,-9.0618,-9.0618,-9.0618,-9.0618,-9.0618,-9.0618,-9.0618,-9.0618,-9.0618,-9.0618,-9.0618,-9.0618,-9.0618,-9.0618,-9.0618,-9.0618,-9.0618,-9.0618,-9.0618,-9.0618,-9.0618,-9.0545,-9.0219,-8.9821,-8.9241,-8.7974,-8.6887,-8.6452,-8.6163,-8.638,-8.6923,-8.7503,-8.801,-8.8662,-8.8807,-8.9096,-8.9024,-8.8921,-8.9385,-8.9851,-8.9981,-9.0485,-9.1485,-9.2258,-9.2934,-9.331,-9.3685,-9.3865,-9.4015,-9.4015,-9.4015,-9.4015,-9.4015,-9.4015,-9.4015,-9.4044,-9.4151,-9.4594,-9.4933,-9.5219,-9.5409,-9.5531,-9.5598,-7.7622,-7.7113,-7.7113,-7.7143,-7.7113,-7.7023,-7.6634,-7.6096,-7.5946,-7.5674,-7.5437,-7.5414,-7.5887,-7.6421,-7.6554,-7.6752,-7.695,-7.7016,-7.7212,-7.7667,-7.7925,-7.8341,-7.8722,-7.8975,-7.91,-7.9225,-8.0392,-8.1687,-8.3099,-8.4596,-8.6006,-8.7275,-8.7784,-8.7878,-8.7925,-8.7925,-8.7925,-8.7936,-8.827,-8.8686,-8.917,-8.9599,-9.0095,-9.0461,-9.0541,-9.0618,-9.0618,-9.0618,-9.0618,-9.0618,-9.0618,-9.0618,-9.0618,-9.0618,-9.0618,-9.0618,-9.0618,-9.0618,-9.0618,-9.0618,-9.0618,-9.0618,-9.0618,-9.0618,-9.0618,-9.0618,-9.0618,-9.0618,-9.0618,-9.0618,-9.0618,-9.0618,-9.0618,-9.0581,-9.0581,-9.0219,-8.9386,-8.8082,-8.7358,-8.6887,-8.638,-8.6271,-8.667,-8.7213,-8.7611,-8.7974,-8.8043,-8.808,-8.8043,-8.8128,-8.8545,-8.8788,-8.8874,-8.9729,-9.0721,-9.1695,-9.2371,-9.3009,-9.3422,-9.3827,-9.4015,-9.4015,-9.4015,-9.4015,-9.4015,-9.4015,-9.4044,-9.4094,-9.4349,-9.4689,-9.4946,-9.5205,-9.5394,-9.5576,-9.5598,-7.8549,-7.846,-7.846,-7.846,-7.837,-7.7861,-7.7233,-7.6634,-7.6125,-7.5734,-7.5474,-7.5752,-7.6088,-7.6488,-7.6818,-7.695,-7.695,-7.7081,-7.7343,-7.7861,-7.8149,-7.8405,-7.8912,-7.9037,-7.91,-7.9381,-8.036,-8.1687,-8.3154,-8.4596,-8.6056,-8.7275,-8.7784,-8.7925,-8.7925,-8.7925,-8.7925,-8.8029,-8.8406,-8.8819,-8.93,-8.9726,-9.0177,-9.0541,-9.0618,-9.0618,-9.0618,-9.0618,-9.0618,-9.0618,-9.0618,-9.0618,-9.0618,-9.0618,-9.0618,-9.0618,-9.0618,-9.0618,-9.0618,-9.0618,-9.0618,-9.0618,-9.0618,-9.0618,-9.0618,-9.0618,-9.0618,-9.0618,-9.0618,-9.0618,-9.0618,-9.0618,-9.0618,-9.0618,-9.0545,-9.0255,-8.9459,-8.8553,-8.7648,-8.7104,-8.6525,-8.6054,-8.6489,-8.6815,-8.7104,-8.7394,-8.7575,-8.743,-8.7249,-8.7295,-8.7486,-8.7621,-8.7723,-8.8809,-9.0059,-9.1037,-9.192,-9.2671,-9.3235,-9.3865,-9.4015,-9.4015,-9.4015,-9.4015,-9.4015,-9.4015,-9.4073,-9.4151,-9.4394,-9.4715,-9.4971,-9.5215,-9.544,-9.5598,-9.5598,-7.8789,-7.8789,-7.8789,-7.8789,-7.8669,-7.8071,-7.7442,-7.6784,-7.6364,-7.5979,-7.5866,-7.6088,-7.6421,-7.6752,-7.6884,-7.7016,-7.7016,-7.7212,-7.7603,-7.8085,-7.831,-7.8596,-7.9037,-7.91,-7.91,-7.9443,-8.036,-8.177,-8.3287,-8.4649,-8.6106,-8.7418,-8.7878,-8.7925,-8.7925,-8.7925,-8.8029,-8.8213,-8.8641,-8.9083,-8.9556,-9.0012,-9.038,-9.0501,-9.0618,-9.0618,-9.0618,-9.0618,-9.0618,-9.0618,-9.0618,-9.0618,-9.0618,-9.0618,-9.0618,-9.0618,-9.0618,-9.0618,-9.0618,-9.0618,-9.0618,-9.0618,-9.0618,-9.0618,-9.0618,-9.0618,-9.0618,-9.0618,-9.0618,-9.0618,-9.0618,-9.0618,-9.0618,-9.0618,-9.0581,-9.0183,-8.9459,-8.8662,-8.7865,-8.7068,-8.6416,-8.609,-8.6163,-8.6452,-8.6634,-8.6815,-8.7032,-8.6851,-8.6561,-8.6568,-8.672,-8.7389,-8.773,-8.8659,-8.9938,-9.0962,-9.1695,-9.2409,-9.316,-9.379,-9.4015,-9.4015,-9.4015,-9.4015,-9.4015,-9.4015,-9.4102,-9.4151,-9.4486,-9.4741,-9.4996,-9.5239,-9.5486,-9.5598,-9.5598,-7.8789,-7.8789,-7.8789,-7.8789,-7.8669,-7.81,-7.7442,-7.6854,-7.6503,-7.6252,-7.6082,-7.6355,-7.6686,-7.695,-7.7016,-7.7016,-7.7081,-7.7377,-7.7732,-7.8182,-7.8437,-7.8786,-7.9037,-7.91,-7.91,-7.935,-8.0809,-8.2001,-8.3397,-8.4702,-8.6206,-8.7383,-8.7878,-8.7925,-8.7925,-8.7925,-8.8167,-8.8506,-8.8995,-8.9471,-9.0012,-9.038,-9.0618,-9.0618,-9.0618,-9.0618,-9.0618,-9.0618,-9.0618,-9.0618,-9.0618,-9.0618,-9.0618,-9.0618,-9.0618,-9.0618,-9.0618,-9.0618,-9.0618,-9.0618,-9.0618,-9.0618,-9.0618,-9.0618,-9.0618,-9.0618,-9.0618,-9.0618,-9.0618,-9.0618,-9.0618,-9.0618,-9.0618,-9.0545,-9.04,-9.0002,-8.9133,-8.8336,-8.7503,-8.6815,-8.6235,-8.6054,-8.609,-8.609,-8.6271,-8.6308,-8.6489,-8.6452,-8.6163,-8.6126,-8.6429,-8.7446,-8.8121,-8.8861,-8.9929,-9.1141,-9.177,-9.2296,-9.3122,-9.394,-9.4015,-9.4015,-9.4015,-9.4015,-9.4015,-9.4015,-9.4102,-9.4208,-9.4476,-9.4741,-9.5021,-9.5263,-9.5509,-9.5598,-9.5598,-7.8789,-7.8789,-7.8789,-7.8789,-7.8669,-7.8011,-7.7412,-7.6824,-7.6482,-7.6252,-7.6051,-7.6355,-7.6686,-7.695,-7.7016,-7.7147,-7.7343,-7.7507,-7.783,-7.8374,-7.8596,-7.8849,-7.9037,-7.91,-7.91,-7.9505,-8.1369,-8.2741,-8.3704,-8.4807,-8.6206,-8.7573,-8.7925,-8.7925,-8.7925,-8.7925,-8.8086,-8.8506,-8.8995,-8.9641,-9.034,-9.0541,-9.0618,-9.0618,-9.0618,-9.0618,-9.0618,-9.0618,-9.0618,-9.0618,-9.0618,-9.0618,-9.0618,-9.0618,-9.0618,-9.0618,-9.0618,-9.0618,-9.0618,-9.0618,-9.0618,-9.0618,-9.0618,-9.0618,-9.0618,-9.0618,-9.0618,-9.0618,-9.0618,-9.0618,-9.0618,-9.0618,-9.0618,-9.0364,-9.0074,-8.9386,-8.8553,-8.7974,-8.7141,-8.6561,-8.6018,-8.5945,-8.5945,-8.5945,-8.5945,-8.5909,-8.5909,-8.5909,-8.5985,-8.5986,-8.6538,-8.7626,-8.8561,-8.9302,-9.0258,-9.1432,-9.1996,-9.2371,-9.316,-9.3977,-9.4015,-9.4015,-9.4015,-9.4015,-9.4015,-9.4015,-9.4073,-9.4208,-9.4476,-9.4767,-9.507,-9.5348,-9.5554,-9.5598,-9.5598,-7.846,-7.8759,-7.84,-7.825,-7.81,-7.7173,-7.6714,-7.6533,-7.6274,-7.6227,-7.6319,-7.662,-7.6884,-7.695,-7.7016,-7.7081,-7.7277,-7.7572,-7.799,-7.8405,-7.8722,-7.8975,-7.9037,-7.91,-7.91,-7.9691,-8.1369,-8.2853,-8.3867,-8.5361,-8.695,-8.7702,-8.7925,-8.7925,-8.7925,-8.7925,-8.8132,-8.8596,-8.9213,-8.9893,-9.0421,-9.0618,-9.0618,-9.0618,-9.0618,-9.0618,-9.0618,-9.0618,-9.0618,-9.0618,-9.0618,-9.0618,-9.0618,-9.0618,-9.0618,-9.0618,-9.0618,-9.0618,-9.0618,-9.0618,-9.0618,-9.0618,-9.0618,-9.0618,-9.0618,-9.0618,-9.0618,-9.0618,-9.0618,-9.0618,-9.0618,-9.0618,-9.0618,-9.0364,-8.9821,-8.9096,-8.83,-8.7503,-8.6851,-8.6344,-8.5909,-8.5909,-8.5945,-8.6018,-8.5982,-8.5909,-8.5909,-8.5945,-8.6061,-8.621,-8.7008,-8.8102,-8.8949,-8.9773,-9.0817,-9.1883,-9.2333,-9.2747,-9.3272,-9.394,-9.4015,-9.4015,-9.4015,-9.4015,-9.4015,-9.4015,-9.4044,-9.4293,-9.461,-9.487,-9.5143,-9.5394,-9.5576,-9.5598,-9.5598,-7.7861,-7.825,-7.7771,-7.7562,-7.7472,-7.6365,-7.6124,-7.6348,-7.6055,-7.6155,-7.6488,-7.6818,-7.695,-7.7016,-7.7016,-7.7147,-7.7343,-7.7765,-7.8118,-7.8469,-7.8786,-7.9037,-7.91,-7.91,-7.91,-7.9163,-8.1545,-8.2909,-8.4083,-8.5702,-8.7275,-8.7878,-8.7925,-8.7925,-8.7925,-8.7936,-8.8167,-8.8775,-8.9471,-9.0095,-9.0501,-9.0618,-9.0618,-9.0618,-9.0618,-9.0618,-9.0618,-9.0618,-9.0618,-9.0618,-9.0618,-9.0618,-9.0618,-9.0618,-9.0618,-9.0618,-9.0618,-9.0618,-9.0618,-9.0618,-9.0618,-9.0618,-9.0618,-9.0618,-9.0618,-9.0618,-9.0618,-9.0618,-9.0618,-9.0618,-9.0618,-9.0618,-9.0618,-9.0255,-8.964,-8.8951,-8.8227,-8.7358,-8.667,-8.6235,-8.5909,-8.5909,-8.5982,-8.6126,-8.6126,-8.5945,-8.5945,-8.6018,-8.6316,-8.6611,-8.7589,-8.8729,-8.9845,-9.0645,-9.1529,-9.2371,-9.2747,-9.3084,-9.3648,-9.394,-9.3977,-9.4015,-9.4015,-9.4015,-9.4015,-9.4102,-9.4151,-9.4459,-9.4715,-9.4895,-9.5094,-9.5356,-9.5554,-9.5576,-9.5598,-7.6933,-7.6963,-7.6904,-7.6874,-7.6844,-7.6185,-7.6064,-7.6327,-7.6092,-7.6155,-7.6554,-7.6818,-7.7016,-7.7016,-7.7016,-7.7343,-7.7925,-7.8054,-7.8405,-7.8786,-7.9037,-7.91,-7.91,-7.91,-7.9163,-7.9443,-8.131,-8.2684,-8.3867,-8.5651,-8.7047,-8.7796,-8.7878,-8.7925,-8.7925,-8.789,-8.8315,-8.8951,-8.9556,-9.0095,-9.0461,-9.0618,-9.0618,-9.0618,-9.0618,-9.0618,-9.0618,-9.0618,-9.0618,-9.0618,-9.0618,-9.0618,-9.0618,-9.0618,-9.0618,-9.0618,-9.0618,-9.0618,-9.0618,-9.0618,-9.0618,-9.0618,-9.0618,-9.0618,-9.0618,-9.0618,-9.0618,-9.0618,-9.0618,-9.0618,-9.0618,-9.0618,-9.0618,-9.0292,-8.9676,-8.8879,-8.8046,-8.7032,-8.638,-8.6054,-8.5982,-8.6126,-8.6416,-8.667,-8.6525,-8.638,-8.6597,-8.667,-8.7001,-8.7411,-8.8396,-8.9507,-9.0778,-9.1703,-9.2421,-9.298,-9.3385,-9.3498,-9.3798,-9.3977,-9.4015,-9.4015,-9.4015,-9.4015,-9.4015,-9.416,-9.4293,-9.454,-9.4689,-9.4819,-9.5045,-9.5379,-9.5554,-9.5598,-9.5598,-7.6275,-7.6245,-7.5826,-7.5886,-7.6215,-7.5557,-7.5601,-7.6048,-7.6008,-7.6288,-7.6818,-7.695,-7.7016,-7.7016,-7.7016,-7.7277,-7.7732,-7.799,-7.8405,-7.8722,-7.8975,-7.91,-7.91,-7.91,-7.91,-7.9443,-8.0869,-8.2401,-8.3616,-8.5309,-8.672,-8.7431,-8.7843,-8.7925,-8.7925,-8.7936,-8.8406,-8.8995,-8.9429,-8.9809,-9.0461,-9.0618,-9.0618,-9.0618,-9.0618,-9.0618,-9.0618,-9.0618,-9.0618,-9.0618,-9.0618,-9.0618,-9.0618,-9.0618,-9.0618,-9.0618,-9.0618,-9.0618,-9.0618,-9.0618,-9.0618,-9.0618,-9.0618,-9.0618,-9.0618,-9.0618,-9.0618,-9.0618,-9.0618,-9.0618,-9.0618,-9.0618,-9.0545,-9.0292,-8.9748,-8.8879,-8.8118,-8.7213,-8.6597,-8.6452,-8.6525,-8.667,-8.6996,-8.7322,-8.7068,-8.6815,-8.7104,-8.7394,-8.7727,-8.8135,-8.9057,-8.9996,-9.1243,-9.2082,-9.2778,-9.3365,-9.3986,-9.4015,-9.4015,-9.4015,-9.4015,-9.4015,-9.4015,-9.4015,-9.4073,-9.4208,-9.4376,-9.453,-9.4715,-9.4946,-9.5191,-9.5486,-9.5576,-9.5598,-9.5598,-7.5587,-7.5557,-7.5078,-7.5138,-7.5497,-7.5215,-7.5444,-7.5984,-7.6118,-7.6421,-7.7016,-7.7016,-7.7016,-7.7016,-7.7147,-7.7343,-7.7797,-7.8118,-7.8437,-7.8786,-7.8975,-7.91,-7.91,-7.91,-7.91,-7.9412,-8.036,-8.177,-8.3507,-8.4702,-8.6256,-8.7431,-8.7925,-8.7925,-8.7925,-8.7936,-8.827,-8.8819,-8.9256,-8.9556,-9.0299,-9.0541,-9.0618,-9.0618,-9.0618,-9.0618,-9.0618,-9.0618,-9.0618,-9.0618,-9.0618,-9.0618,-9.0618,-9.0618,-9.0618,-9.0618,-9.0618,-9.0618,-9.0618,-9.0618,-9.0618,-9.0618,-9.0618,-9.0618,-9.0618,-9.0618,-9.0618,-9.0618,-9.0618,-9.0618,-9.0618,-9.0618,-9.0618,-9.04,-8.9785,-8.9024,-8.8626,-8.7937,-8.7394,-8.6996,-8.7141,-8.7319,-8.7464,-8.779,-8.7862,-8.7611,-8.7611,-8.801,-8.8522,-8.9007,-8.9603,-9.0554,-9.1523,-9.2262,-9.2955,-9.3475,-9.3986,-9.4015,-9.4015,-9.4015,-9.4015,-9.4015,-9.4102,-9.4151,-9.4236,-9.4321,-9.453,-9.4819,-9.4996,-9.5119,-9.5394,-9.5576,-9.5576,-9.5598,-9.5598,-7.4929,-7.4899,-7.4967,-7.4967,-7.5057,-7.524,-7.5617,-7.6118,-7.6355,-7.6686,-7.695,-7.7016,-7.7016,-7.7081,-7.7277,-7.7603,-7.799,-7.8374,-7.8691,-7.8975,-7.9037,-7.91,-7.91,-7.91,-7.91,-7.9381,-8.0178,-8.1512,-8.354,-8.4437,-8.6056,-8.7431,-8.7925,-8.7925,-8.7925,-8.7925,-8.8121,-8.8506,-8.896,-8.9471,-8.9934,-9.038,-9.0541,-9.0618,-9.0618,-9.0618,-9.0618,-9.0618,-9.0618,-9.0618,-9.0618,-9.0618,-9.0618,-9.0618,-9.0618,-9.0618,-9.0618,-9.0618,-9.0618,-9.0618,-9.0618,-9.0618,-9.0618,-9.0618,-9.0618,-9.0618,-9.0618,-9.0618,-9.0618,-9.0618,-9.0618,-9.0618,-9.0618,-9.0436,-8.9857,-8.9386,-8.8988,-8.8698,-8.8118,-8.7684,-8.7826,-8.808,-8.8077,-8.8222,-8.855,-8.8478,-8.8261,-8.8553,-8.9247,-8.9654,-9.0181,-9.074,-9.1577,-9.2212,-9.283,-9.3543,-9.3986,-9.3986,-9.4015,-9.4015,-9.4015,-9.4015,-9.4094,-9.4293,-9.4404,-9.4431,-9.4767,-9.5167,-9.5239,-9.531,-9.5425,-9.5598,-9.5598,-9.5598,-9.5598,-7.4869,-7.4937,-7.5142,-7.521,-7.521,-7.5346,-7.5752,-7.6355,-7.6686,-7.6884,-7.695,-7.7016,-7.7016,-7.7081,-7.7408,-7.7732,-7.8118,-7.8437,-7.8754,-7.9037,-7.91,-7.91,-7.91,-7.91,-7.91,-7.9163,-7.9782,-8.116,-8.3507,-8.4136,-8.5719,-8.7253,-8.7925,-8.7925,-8.7925,-8.789,-8.8121,-8.8506,-8.8995,-8.9429,-8.9887,-9.0299,-9.0618,-9.0618,-9.0618,-9.0618,-9.0618,-9.0618,-9.0618,-9.0618,-9.0618,-9.0618,-9.0618,-9.0618,-9.0618,-9.0618,-9.0618,-9.0618,-9.0618,-9.0618,-9.0618,-9.0618,-9.0618,-9.0618,-9.0618,-9.0618,-9.0618,-9.0618,-9.0618,-9.0618,-9.0618,-9.0618,-9.0618,-9.0618,-9.0183,-8.9821,-8.9495,-8.9241,-8.8843,-8.8481,-8.8444,-8.9133,-8.9383,-8.9202,-8.9347,-8.9567,-8.9386,-8.9495,-9.0041,-9.0186,-9.0489,-9.0876,-9.1473,-9.212,-9.2773,-9.3488,-9.3927,-9.3986,-9.4015,-9.4015,-9.4015,-9.4015,-9.418,-9.4376,-9.4459,-9.4567,-9.4971,-9.531,-9.544,-9.5531,-9.5576,-9.5598,-9.5598,-9.5598,-9.5598,-7.4869,-7.4937,-7.5278,-7.5482,-7.5617,-7.5752,-7.6155,-7.6686,-7.6884,-7.7016,-7.7016,-7.7016,-7.7081,-7.7277,-7.7538,-7.7925,-7.8341,-7.8659,-7.8849,-7.91,-7.91,-7.91,-7.91,-7.91,-7.91,-7.91,-7.9443,-8.0597,-8.3397,-8.3507,-8.5189,-8.7205,-8.7925,-8.7925,-8.7925,-8.7936,-8.7983,-8.8315,-8.8686,-8.9091,-8.9599,-9.0017,-9.0421,-9.0578,-9.0618,-9.0618,-9.0618,-9.0618,-9.0618,-9.0618,-9.0618,-9.0618,-9.0618,-9.0618,-9.0618,-9.0618,-9.0618,-9.0618,-9.0618,-9.0618,-9.0618,-9.0618,-9.0618,-9.0618,-9.0618,-9.0618,-9.0618,-9.0618,-9.0618,-9.0618,-9.0618,-9.0618,-9.0618,-9.0618,-9.0473,-9.011,-9.0038,-8.9785,-8.9676,-8.9314,-8.9277,-9.0002,-9.0436,-9.0436,-9.0292,-9.0436,-9.0545,-9.0618,-9.0618,-9.0618,-9.0621,-9.0939,-9.1435,-9.2124,-9.274,-9.3395,-9.377,-9.3986,-9.4015,-9.4044,-9.4073,-9.4102,-9.4265,-9.4513,-9.4689,-9.4921,-9.5191,-9.5463,-9.5531,-9.5576,-9.5598,-9.5598,-9.5598,-9.5598,-9.5598,-7.4869,-7.4937,-7.5278,-7.5617,-7.5923,-7.6355,-7.6686,-7.7016,-7.7016,-7.7016,-7.7016,-7.7016,-7.7147,-7.7538,-7.7861,-7.8246,-7.8564,-7.8912,-7.9037,-7.91,-7.91,-7.91,-7.91,-7.91,-7.91,-7.91,-7.9567,-8.0863,-8.3287,-8.437,-8.5836,-8.73,-8.7843,-8.7925,-8.7925,-8.7925,-8.7971,-8.8121,-8.8416,-8.8907,-8.9343,-8.9726,-9.0218,-9.0461,-9.0618,-9.0618,-9.0618,-9.0618,-9.0618,-9.0618,-9.0618,-9.0618,-9.0618,-9.0618,-9.0618,-9.0618,-9.0618,-9.0618,-9.0618,-9.0618,-9.0618,-9.0618,-9.0618,-9.0618,-9.0618,-9.0618,-9.0618,-9.0618,-9.0618,-9.0618,-9.0618,-9.0618,-9.0618,-9.0618,-9.0618,-9.0509,-9.0509,-9.0436,-9.0436,-9.0328,-9.0292,-9.0545,-9.0545,-9.0618,-9.0618,-9.0618,-9.0618,-9.0618,-9.0618,-9.0618,-9.0661,-9.078,-9.1323,-9.2089,-9.274,-9.3332,-9.377,-9.4015,-9.4102,-9.4131,-9.416,-9.4265,-9.454,-9.4767,-9.5021,-9.5263,-9.5425,-9.5531,-9.5576,-9.5598,-9.5598,-9.5598,-9.5598,-9.5598,-9.5598,-7.5006,-7.5278,-7.5685,-7.6021,-7.6324,-7.6686,-7.6884,-7.7016,-7.7016,-7.7016,-7.7016,-7.7016,-7.7212,-7.7538,-7.7925,-7.8246,-7.8628,-7.8912,-7.9037,-7.91,-7.91,-7.91,-7.91,-7.91,-7.91,-7.9412,-8.0117,-8.1362,-8.3582,-8.5086,-8.6553,-8.7796,-8.7925,-8.7925,-8.7925,-8.7925,-8.7925,-8.7983,-8.827,-8.8686,-8.917,-8.9599,-9.0095,-9.0461,-9.0618,-9.0618,-9.0618,-9.0618,-9.0618,-9.0618,-9.0618,-9.0618,-9.0618,-9.0618,-9.0618,-9.0618,-9.0618,-9.0618,-9.0618,-9.0618,-9.0618,-9.0618,-9.0618,-9.0618,-9.0618,-9.0618,-9.0618,-9.0618,-9.0618,-9.0618,-9.0618,-9.0618,-9.0618,-9.0618,-9.0618,-9.0618,-9.0618,-9.0618,-9.0618,-9.0618,-9.0618,-9.0618,-9.0618,-9.0618,-9.0618,-9.0618,-9.0618,-9.0618,-9.0618,-9.0618,-9.0621,-9.074,-9.1284,-9.2018,-9.2606,-9.32,-9.3679,-9.4015,-9.4131,-9.4274,-9.4376,-9.454,-9.4767,-9.5021,-9.5239,-9.5402,-9.5516,-9.5598,-9.5598,-9.5598,-9.5598,-9.5598,-9.5598,-9.5598,-9.5598,-7.5074,-7.5414,-7.5819,-7.6374,-7.7054,-7.7284,-7.757,-7.7693,-7.7262,-7.7016,-7.7016,-7.7016,-7.7277,-7.7732,-7.8021,-7.8341,-7.8849,-7.8975,-7.91,-7.91,-7.91,-7.91,-7.91,-7.91,-7.91,-7.9567,-8.0509,-8.1795,-8.3995,-8.6221,-8.7925,-8.7878,-8.7925,-8.7925,-8.7925,-8.7925,-8.7925,-8.7936,-8.8213,-8.8596,-8.9083,-8.9514,-8.9934,-9.0461,-9.0618,-9.0618,-9.0618,-9.0618,-9.0618,-9.0618,-9.0618,-9.0618,-9.0618,-9.0618,-9.0618,-9.0618,-9.0618,-9.0618,-9.0618,-9.0618,-9.0618,-9.0618,-9.0618,-9.0618,-9.0618,-9.0618,-9.0618,-9.0618,-9.0618,-9.0618,-9.0618,-9.0618,-9.0618,-9.0618,-9.0618,-9.0618,-9.0618,-9.0618,-9.0618,-9.0618,-9.0618,-9.0618,-9.0618,-9.0618,-9.0618,-9.0618,-9.0618,-9.0618,-9.0618,-9.0618,-9.0618,-9.0661,-9.1284,-9.1983,-9.2542,-9.3072,-9.3611,-9.4007,-9.4236,-9.4404,-9.4567,-9.4767,-9.5045,-9.5239,-9.5486,-9.5576,-9.5598,-9.5598,-9.5598,-9.5598,-9.5598,-9.5598,-9.5598,-9.5598,-9.5598,-7.5142,-7.5512,-7.5917,-7.6849,-7.7903,-7.8093,-7.8462,-7.8924,-7.7816,-7.7169,-7.7169,-7.7139,-7.7566,-7.7957,-7.8182,-7.8532,-7.8912,-7.91,-7.91,-7.91,-7.91,-7.91,-7.91,-7.91,-7.91,-7.9597,-8.0863,-8.2731,-8.437,-8.6454,-8.7925,-8.7925,-8.7925,-8.7925,-8.7925,-8.7925,-8.7995,-8.8241,-8.8275,-8.8573,-8.9031,-8.9343,-8.9641,-9.0421,-9.0618,-9.0618,-9.0618,-9.0618,-9.0618,-9.0618,-9.0618,-9.0618,-9.0618,-9.0618,-9.0618,-9.0618,-9.0618,-9.0618,-9.0618,-9.0618,-9.0618,-9.0618,-9.0618,-9.0618,-9.0618,-9.0618,-9.0618,-9.0618,-9.0618,-9.0618,-9.0618,-9.0618,-9.0618,-9.0618,-9.0618,-9.0618,-9.0618,-9.0618,-9.0618,-9.0618,-9.0618,-9.0618,-9.0618,-9.0618,-9.0618,-9.0618,-9.0618,-9.0618,-9.0618,-9.0618,-9.0618,-9.0657,-9.1208,-9.1839,-9.2333,-9.2905,-9.3543,-9.3969,-9.4311,-9.4583,-9.4793,-9.5045,-9.5324,-9.5463,-9.5554,-9.5576,-9.5598,-9.5598,-9.5598,-9.5598,-9.5598,-9.5598,-9.5598,-9.5598,-9.5598,-7.5482,-7.5947,-7.7038,-7.7745,-7.8026,-7.8616,-7.8924,-7.9078,-7.8801,-7.8308,-7.7877,-7.805,-7.8164,-7.8179,-7.8341,-7.8722,-7.8975,-7.91,-7.91,-7.91,-7.91,-7.91,-7.91,-7.91,-7.91,-7.9873,-8.1421,-8.39,-8.5971,-8.7335,-8.7925,-8.7925,-8.7925,-8.7925,-8.7925,-8.796,-8.8159,-8.8545,-8.878,-8.887,-8.928,-8.9371,-8.9641,-9.0299,-9.0618,-9.0618,-9.0618,-9.0618,-9.0618,-9.0618,-9.0618,-9.0618,-9.0618,-9.0618,-9.0618,-9.0618,-9.0618,-9.0618,-9.0618,-9.0618,-9.0618,-9.0618,-9.0618,-9.0618,-9.0618,-9.0618,-9.0618,-9.0618,-9.0618,-9.0618,-9.0657,-9.0657,-9.0657,-9.0657,-9.0618,-9.0618,-9.0618,-9.0618,-9.0618,-9.0618,-9.0618,-9.0618,-9.0618,-9.0618,-9.0618,-9.0618,-9.0618,-9.0618,-9.0618,-9.0618,-9.0618,-9.0701,-9.113,-9.1694,-9.2194,-9.2769,-9.3444,-9.4104,-9.4557,-9.4819,-9.5045,-9.5263,-9.5486,-9.5531,-9.5598,-9.5598,-9.5598,-9.5598,-9.5598,-9.5598,-9.5598,-9.5598,-9.5598,-9.5598,-9.5598,-7.5647,-7.6112,-7.7422,-7.8216,-7.8585,-7.9263,-7.9694,-7.994,-7.9971,-7.9706,-7.91,-7.8804,-7.8571,-7.8493,-7.8625,-7.8786,-7.9069,-7.91,-7.91,-7.91,-7.91,-7.91,-7.91,-7.91,-7.91,-7.9843,-8.2584,-8.5128,-8.7309,-8.7784,-8.7925,-8.7925,-8.7925,-8.796,-8.7995,-8.8206,-8.858,-8.8966,-8.9353,-8.9635,-8.9832,-8.9875,-8.98,-9.0316,-9.0461,-9.0537,-9.0618,-9.0618,-9.0618,-9.0618,-9.0618,-9.0618,-9.0618,-9.0618,-9.0618,-9.0618,-9.0618,-9.0618,-9.0618,-9.0618,-9.0618,-9.0618,-9.0618,-9.0618,-9.0701,-9.0701,-9.0819,-9.0819,-9.0657,-9.0618,-9.0931,-9.1009,-9.0975,-9.1014,-9.074,-9.0618,-9.0618,-9.0618,-9.0618,-9.0618,-9.0618,-9.0618,-9.0618,-9.0618,-9.0618,-9.0618,-9.0618,-9.0618,-9.0618,-9.0657,-9.0657,-9.074,-9.1168,-9.1657,-9.2194,-9.2769,-9.3339,-9.4001,-9.4767,-9.5045,-9.5286,-9.5463,-9.5598,-9.5598,-9.5598,-9.5598,-9.5598,-9.5598,-9.5598,-9.5598,-9.5598,-9.5598,-9.5598,-9.5598,-9.5598,-7.5813,-7.6398,-7.7642,-7.8585,-7.9293,-7.994,-8.0494,-8.0956,-8.1017,-8.0915,-8.0544,-7.9495,-7.9134,-7.8961,-7.8971,-7.8974,-7.9069,-7.9132,-7.91,-7.91,-7.91,-7.91,-7.91,-7.91,-7.9567,-8.1155,-8.3821,-8.584,-8.7784,-8.7925,-8.7925,-8.7925,-8.7995,-8.8065,-8.8229,-8.8721,-8.9317,-8.9669,-9.0067,-9.0504,-9.062,-9.0579,-9.028,-9.0247,-9.0295,-9.0537,-9.0541,-9.0618,-9.0618,-9.0618,-9.0618,-9.0618,-9.0618,-9.0618,-9.0618,-9.0618,-9.0618,-9.0618,-9.0618,-9.0618,-9.0618,-9.0618,-9.0618,-9.0657,-9.074,-9.0936,-9.1014,-9.1053,-9.0858,-9.0975,-9.1281,-9.1279,-9.1282,-9.1206,-9.0897,-9.0618,-9.0618,-9.0618,-9.0618,-9.0618,-9.0618,-9.0618,-9.0618,-9.0618,-9.0618,-9.0618,-9.0618,-9.0618,-9.0657,-9.0661,-9.0701,-9.0819,-9.113,-9.1657,-9.2194,-9.2732,-9.3308,-9.4198,-9.4921,-9.5239,-9.5509,-9.5576,-9.5598,-9.5598,-9.5598,-9.5598,-9.5598,-9.5598,-9.5598,-9.5598,-9.5598,-9.5598,-9.5598,-9.5598,-9.5598,-7.6526,-7.7709,-7.8488,-7.9263,-7.994,-8.0617,-8.1025,-8.1048,-8.1117,-8.1162,-8.1262,-8.0911,-8.0304,-7.9536,-7.9762,-7.9669,-7.9227,-7.9195,-7.91,-7.91,-7.91,-7.91,-7.91,-7.916,-8.0625,-8.2756,-8.5182,-8.715,-8.7889,-8.7925,-8.7925,-8.7995,-8.858,-8.8756,-8.8931,-8.9493,-9.0195,-9.0511,-9.0792,-9.1218,-9.0891,-9.0737,-9.0445,-9.0345,-9.0336,-9.0403,-9.0461,-9.0618,-9.0618,-9.0618,-9.0618,-9.0618,-9.0618,-9.0618,-9.0618,-9.0618,-9.0618,-9.0618,-9.0618,-9.0618,-9.0618,-9.0618,-9.0618,-9.0621,-9.0858,-9.1246,-9.1397,-9.162,-9.162,-9.1875,-9.2055,-9.1583,-9.1433,-9.1206,-9.0936,-9.0701,-9.0618,-9.0618,-9.0618,-9.0618,-9.0618,-9.0618,-9.0618,-9.0618,-9.0618,-9.0618,-9.0618,-9.0618,-9.0618,-9.0661,-9.074,-9.0975,-9.1132,-9.1694,-9.2229,-9.2732,-9.3332,-9.4281,-9.5045,-9.5348,-9.5531,-9.5576,-9.5598,-9.5598,-9.5598,-9.5598,-9.5598,-9.5598,-9.5598,-9.5598,-9.5598,-9.5598,-9.5598,-9.5598,-9.5598]},{"header":{"parameterUnit":"m.s-1","parameterCategory":1,"la1":31.0,"la2":29.5877,"lo1":-88.7671,"lo2":-86.6584,"dy":0.0162,"dx":0.0185,"nx":115,"ny":88,"refTime":"2023-03-14T18:00:00:Z","depth":0,"parameterNumber":3,"parameterNumberName":"V-component_of_WINDS"},"data":[0.0,0.0,0.0,0.0,0.0,0.0,0.0,0.0,0.0,0.0,0.0,0.0,0.0,0.0,0.0,0.0,0.0,0.0,0.0,0.0,0.0,0.0,0.0,0.0,0.0,0.0,0.0,0.0,0.0,0.0,0.0,0.0,0.0,0.0,0.0,0.0,0.0,0.0,0.0,0.0,0.0,0.0,0.0,0.0,0.0,0.0,0.0,0.0,0.0,0.0,0.0,0.0,0.0,0.0,0.0,0.0,0.0,0.0,0.0,0.0,0.0,0.0,0.0,0.0,0.0,0.0,0.0,0.0,0.0,0.0,0.0,0.0,0.0,0.0,0.0,0.0,0.0,0.0,0.0,0.0,0.0,0.0,0.0,0.0,0.0,0.0,0.0,0.0,0.0,0.0,0.0,0.0,0.0,0.0,0.0,0.0,0.0,0.0,0.0,0.0,0.0,0.0,0.0,0.0,0.0,0.0,0.0,0.0,0.0,0.0,0.0,0.0,0.0,0.0,0.0,0.0,0.0,0.0,0.0,0.0,0.0,0.0,0.0,0.0,0.0,0.0,0.0,0.0,0.0,0.0,0.0,0.0,0.0,0.0,0.0,0.0,0.0,0.0,0.0,0.0,0.0,0.0,0.0,0.0,0.0,0.0,0.0,0.0,0.0,0.0,0.0,0.0,0.0,0.0,0.0,0.0,0.0,0.0,0.0,0.0,0.0,0.0,0.0,0.0,0.0,0.0,0.0,0.0,0.0,0.0,0.0,0.0,0.0,0.0,0.0,0.0,0.0,0.0,0.0,0.0,0.0,0.0,0.0,0.0,0.0,0.0,0.0,0.0,0.0,0.0,0.0,0.0,0.0,0.0,0.0,0.0,0.0,0.0,0.0,0.0,0.0,0.0,0.0,0.0,0.0,0.0,0.0,0.0,0.0,0.0,0.0,0.0,0.0,0.0,0.0,0.0,0.0,0.0,0.0,0.0,0.0,0.0,0.0,0.0,0.0,0.0,0.0,0.0,0.0,0.0,0.0,0.0,0.0,0.0,0.0,0.0,0.0,0.0,0.0,0.0,0.0,0.0,0.0,0.0,0.0,0.0,0.0,0.0,0.0,0.0,0.0,0.0,0.0,0.0,0.0,0.0,0.0,0.0,0.0,0.0,0.0,0.0,0.0,0.0,0.0,0.0,0.0,0.0,0.0,0.0,0.0,0.0,0.0,0.0,0.0,0.0,0.0,0.0,0.0,0.0,0.0,0.0,0.0,0.0,0.0,0.0,0.0,0.0,0.0,0.0,0.0,0.0,0.0,0.0,0.0,0.0,0.0,0.0,0.0,0.0,0.0,0.0,0.0,0.0,0.0,0.0,0.0,0.0,0.0,0.0,0.0,0.0,0.0,0.0,0.0,0.0,0.0,0.0,0.0,0.0,0.0,0.0,0.0,0.0,0.0,0.0,0.0,0.0,0.0,0.0,0.0,0.0,0.0,0.0,0.0,0.0,0.0,0.0,0.0,0.0,0.0,0.0,0.0,0.0,0.0,0.0,0.0,0.0,0.0,0.0,0.0,0.0,0.0,0.0,0.0,0.0,0.0,0.0,0.0,0.0,0.0,0.0,0.0,0.0,0.0,0.0,0.0,0.0,0.0,0.0,0.0,0.0,0.0,0.0,0.0,0.0,0.0,0.0,0.0,0.0,0.0,0.0,0.0,0.0,0.0,0.0,0.0,0.0,0.0,0.0,0.0,0.0,0.0,0.0,0.0,0.0,0.0,0.0,0.0,0.0,0.0,0.0,0.0,0.0,0.0,0.0,0.0,0.0,0.0,0.0,0.0,0.0,0.0,0.0,0.0,0.0,0.0,0.0,0.0,0.0,0.0,0.0,0.0,0.0,0.0,0.0,0.0,0.0,0.0,0.0,0.0,0.0,0.0,0.0,0.0,0.0,0.0,0.0,0.0,0.0,0.0,0.0,0.0,0.0,0.0,0.0,0.0,0.0,0.0,0.0,0.0,0.0,0.0,0.0,0.0,0.0,0.0,0.0,0.0,0.0,0.0,0.0,0.0,0.0,0.0,0.0,0.0,0.0,0.0,0.0,0.0,0.0,0.0,0.0,0.0,0.0,0.0,0.0,0.0,0.0,0.0,0.0,0.0,0.0,0.0,0.0,0.0,0.0,0.0,0.0,0.0,0.0,0.0,0.0,0.0,0.0,0.0,0.0,0.0,0.0,0.0,0.0,0.0,0.0,0.0,0.0,0.0,0.0,0.0,0.0,0.0,0.0,0.0,0.0,0.0,0.0,0.0,0.0,0.0,0.0,0.0,0.0,0.0,0.0,0.0,0.0,0.0,0.0,0.0,0.0,0.0,0.0,0.0,0.0,0.0,0.0,0.0,0.0,0.0,0.0,0.0,0.0,0.0,0.0,0.0,0.0,0.0,0.0,0.0,0.0,0.0,0.0,0.0,0.0,0.0,0.0,0.0,0.0,0.0,0.0,0.0,0.0,0.0,0.0,0.0,0.0,0.0,0.0,0.0,0.0,0.0,0.0,0.0,0.0,0.0,0.0,0.0,0.0,0.0,0.0,0.0,0.0,0.0,0.0,0.0,0.0,0.0,0.0,0.0,0.0,0.0,0.0,0.0,0.0,0.0,0.0,0.0,0.0,0.0,0.0,0.0,0.0,0.0,0.0,0.0,0.0,0.0,0.0,0.0,0.0,0.0,0.0,0.0,0.0,0.0,0.0,0.0,0.0,0.0,0.0,0.0,0.0,0.0,0.0,0.0,0.0,0.0,0.0,0.0,0.0,0.0,0.0,0.0,0.0,0.0,0.0,0.0,0.0,0.0,0.0,0.0,0.0,0.0,0.0,0.0,0.0,0.0,0.0,0.0,0.0,0.0,0.0,0.0,0.0,0.0,0.0,0.0,0.0,0.0,0.0,0.0,0.0,0.0,0.0,0.0,0.0,0.0,0.0,0.0,0.0,0.0,0.0,0.0,0.0,0.0,0.0,0.0,0.0,0.0,0.0,0.0,0.0,0.0,0.0,0.0,0.0,0.0,0.0,0.0,0.0,0.0,0.0,0.0,0.0,0.0,0.0,0.0,0.0,0.0,0.0,0.0,0.0,0.0,0.0,0.0,0.0,0.0,0.0,0.0,0.0,0.0,0.0,0.0,0.0,0.0,0.0,0.0,0.0,0.0,0.0,0.0,0.0,0.0,0.0,0.0,0.0,0.0,0.0,0.0,0.0,0.0,0.0,0.0,0.0,0.0,0.0,0.0,0.0,0.0,0.0,0.0,0.0,0.0,0.0,0.0,0.0,0.0,0.0,0.0,0.0,0.0,0.0,0.0,0.0,0.0,0.0,0.0,0.0,0.0,0.0,0.0,0.0,0.0,0.0,0.0,0.0,0.0,0.0,0.0,0.0,0.0,0.0,0.0,0.0,0.0,0.0,0.0,0.0,0.0,0.0,0.0,0.0,0.0,0.0,0.0,0.0,0.0,0.0,0.0,0.0,0.0,0.0,0.0,0.0,0.0,0.0,0.0,0.0,0.0,0.0,0.0,0.0,0.0,0.0,0.0,0.0,0.0,0.0,0.0,0.0,0.0,0.0,0.0,0.0,0.0,0.0,0.0,0.0,0.0,0.0,0.0,0.0,0.0,0.0,0.0,0.0,0.0,0.0,0.0,0.0,0.0,0.0,0.0,0.0,0.0,0.0,0.0,0.0,0.0,0.0,0.0,0.0,0.0,0.0,0.0,0.0,0.0,0.0,0.0,0.0,0.0,0.0,0.0,0.0,0.0,0.0,0.0,0.0,0.0,0.0,0.0,0.0,0.0,0.0,0.0,0.0,0.0,0.0,0.0,0.0,0.0,0.0,0.0,0.0,0.0,0.0,0.0,0.0,0.0,0.0,0.0,0.0,0.0,0.0,0.0,0.0,0.0,0.0,0.0,0.0,0.0,0.0,0.0,0.0,0.0,0.0,0.0,0.0,0.0,0.0,0.0,0.0,0.0,0.0,0.0,0.0,0.0,0.0,0.0,0.0,0.0,0.0,0.0,0.0,0.0,0.0,0.0,0.0,0.0,0.0,0.0,0.0,0.0,0.0,0.0,0.0,0.0,0.0,0.0,0.0,0.0,0.0,0.0,0.0,0.0,0.0,0.0,0.0,0.0,0.0,0.0,0.0,0.0,0.0,0.0,0.0,0.0,0.0,0.0,0.0,0.0,0.0,0.0,0.0,0.0,0.0,0.0,0.0,0.0,0.0,0.0,0.0,0.0,0.0,0.0,0.0,-3.8461,0.0,0.0,0.0,0.0,0.0,0.0,0.0,0.0,0.0,0.0,0.0,0.0,0.0,0.0,0.0,0.0,0.0,0.0,0.0,0.0,0.0,0.0,0.0,0.0,0.0,0.0,0.0,0.0,0.0,0.0,0.0,0.0,0.0,0.0,0.0,0.0,0.0,0.0,0.0,0.0,0.0,0.0,0.0,0.0,0.0,0.0,0.0,0.0,0.0,0.0,0.0,0.0,0.0,0.0,0.0,0.0,0.0,0.0,0.0,0.0,0.0,0.0,0.0,0.0,0.0,0.0,0.0,0.0,0.0,0.0,0.0,0.0,0.0,0.0,0.0,0.0,0.0,0.0,0.0,0.0,0.0,0.0,0.0,0.0,0.0,0.0,0.0,0.0,0.0,0.0,0.0,0.0,0.0,0.0,0.0,0.0,0.0,0.0,0.0,0.0,0.0,0.0,0.0,0.0,0.0,0.0,0.0,0.0,0.0,0.0,-4.0016,-3.9691,-3.8946,-3.8615,-3.8726,0.0,0.0,0.0,0.0,0.0,0.0,0.0,0.0,0.0,0.0,0.0,0.0,0.0,0.0,0.0,0.0,0.0,0.0,0.0,0.0,0.0,0.0,0.0,0.0,0.0,0.0,0.0,0.0,0.0,0.0,0.0,0.0,0.0,0.0,0.0,0.0,0.0,0.0,0.0,0.0,0.0,0.0,0.0,0.0,0.0,0.0,0.0,0.0,0.0,0.0,0.0,0.0,0.0,0.0,0.0,0.0,0.0,0.0,0.0,0.0,0.0,0.0,0.0,0.0,0.0,0.0,0.0,0.0,0.0,0.0,0.0,0.0,0.0,0.0,0.0,0.0,0.0,0.0,0.0,0.0,0.0,0.0,0.0,0.0,0.0,0.0,0.0,0.0,0.0,0.0,0.0,0.0,0.0,0.0,0.0,0.0,0.0,0.0,0.0,0.0,0.0,0.0,0.0,0.0,0.0,0.0,0.0,0.0,0.0,0.0,0.0,0.0,-3.8217,-3.795,-3.8681,0.0,0.0,0.0,0.0,0.0,0.0,0.0,0.0,0.0,0.0,0.0,0.0,0.0,0.0,0.0,0.0,0.0,0.0,0.0,0.0,0.0,0.0,0.0,0.0,0.0,0.0,0.0,0.0,0.0,0.0,0.0,0.0,0.0,0.0,0.0,0.0,0.0,0.0,0.0,0.0,0.0,0.0,0.0,0.0,0.0,0.0,0.0,0.0,0.0,0.0,0.0,0.0,0.0,0.0,0.0,0.0,0.0,0.0,0.0,0.0,0.0,0.0,0.0,0.0,0.0,0.0,0.0,0.0,0.0,0.0,0.0,0.0,0.0,0.0,0.0,0.0,0.0,0.0,0.0,0.0,0.0,0.0,0.0,0.0,0.0,0.0,0.0,0.0,0.0,0.0,0.0,0.0,0.0,0.0,0.0,0.0,0.0,0.0,0.0,0.0,0.0,0.0,0.0,0.0,0.0,0.0,0.0,0.0,0.0,0.0,-4.0541,-4.0214,-3.9407,0.0,-3.7415,0.0,0.0,0.0,0.0,0.0,0.0,0.0,0.0,0.0,0.0,0.0,0.0,0.0,0.0,0.0,0.0,0.0,0.0,0.0,0.0,0.0,0.0,0.0,0.0,0.0,0.0,0.0,0.0,0.0,0.0,0.0,0.0,0.0,0.0,0.0,0.0,0.0,0.0,0.0,0.0,0.0,0.0,0.0,0.0,0.0,0.0,0.0,0.0,0.0,0.0,0.0,0.0,0.0,0.0,0.0,0.0,0.0,0.0,0.0,0.0,0.0,0.0,0.0,0.0,0.0,0.0,0.0,0.0,0.0,0.0,0.0,0.0,0.0,0.0,0.0,0.0,0.0,0.0,0.0,0.0,0.0,0.0,0.0,0.0,0.0,0.0,0.0,0.0,0.0,0.0,0.0,0.0,0.0,0.0,0.0,0.0,0.0,0.0,0.0,0.0,0.0,0.0,0.0,0.0,0.0,0.0,0.0,0.0,0.0,0.0,-3.9118,-3.8991,-3.7929,-3.7011,0.0,0.0,0.0,0.0,0.0,0.0,0.0,0.0,0.0,0.0,0.0,0.0,0.0,0.0,0.0,0.0,0.0,0.0,0.0,0.0,0.0,0.0,0.0,0.0,0.0,0.0,0.0,0.0,0.0,0.0,0.0,0.0,0.0,0.0,0.0,0.0,0.0,0.0,0.0,0.0,0.0,0.0,0.0,0.0,0.0,0.0,0.0,0.0,0.0,0.0,0.0,0.0,0.0,0.0,0.0,0.0,0.0,0.0,0.0,0.0,0.0,0.0,0.0,0.0,0.0,0.0,0.0,0.0,0.0,0.0,0.0,0.0,0.0,0.0,0.0,0.0,0.0,0.0,0.0,0.0,0.0,0.0,0.0,0.0,0.0,0.0,0.0,0.0,0.0,0.0,0.0,0.0,0.0,0.0,0.0,0.0,0.0,0.0,0.0,0.0,0.0,0.0,0.0,0.0,0.0,0.0,0.0,0.0,0.0,0.0,-3.9493,-3.8279,-3.7796,-3.6654,-3.5996,-3.6016,0.0,0.0,0.0,0.0,0.0,0.0,0.0,0.0,0.0,0.0,0.0,0.0,0.0,0.0,0.0,0.0,0.0,0.0,0.0,0.0,0.0,0.0,0.0,0.0,0.0,0.0,0.0,0.0,0.0,0.0,0.0,0.0,0.0,0.0,0.0,0.0,0.0,0.0,0.0,0.0,0.0,0.0,0.0,0.0,0.0,0.0,0.0,0.0,0.0,0.0,0.0,0.0,0.0,0.0,0.0,0.0,0.0,0.0,0.0,0.0,0.0,0.0,0.0,0.0,0.0,0.0,0.0,0.0,0.0,0.0,0.0,0.0,0.0,0.0,0.0,0.0,0.0,0.0,0.0,0.0,0.0,0.0,0.0,0.0,0.0,0.0,0.0,0.0,0.0,0.0,0.0,0.0,0.0,0.0,0.0,0.0,0.0,0.0,0.0,0.0,0.0,0.0,0.0,0.0,0.0,0.0,0.0,0.0,-4.1315,-4.0192,-3.8793,-3.7213,-3.6384,-3.5996,0.0,0.0,0.0,0.0,0.0,0.0,0.0,0.0,0.0,0.0,0.0,0.0,0.0,0.0,0.0,0.0,0.0,0.0,0.0,0.0,0.0,0.0,0.0,0.0,0.0,0.0,0.0,0.0,0.0,0.0,0.0,0.0,0.0,0.0,0.0,0.0,0.0,0.0,0.0,0.0,0.0,0.0,0.0,0.0,0.0,0.0,0.0,0.0,0.0,0.0,0.0,0.0,0.0,0.0,0.0,0.0,0.0,0.0,0.0,0.0,0.0,0.0,0.0,0.0,0.0,0.0,0.0,0.0,0.0,0.0,0.0,0.0,0.0,0.0,0.0,0.0,0.0,0.0,0.0,0.0,0.0,0.0,0.0,0.0,0.0,0.0,0.0,0.0,0.0,0.0,0.0,0.0,0.0,0.0,0.0,0.0,0.0,0.0,0.0,0.0,0.0,0.0,0.0,0.0,0.0,0.0,0.0,0.0,0.0,-4.0517,-3.8441,-3.6789,-3.5724,-3.454,-3.4126,0.0,0.0,0.0,0.0,0.0,0.0,0.0,0.0,0.0,0.0,0.0,0.0,0.0,0.0,0.0,0.0,0.0,0.0,0.0,0.0,0.0,0.0,0.0,0.0,0.0,0.0,0.0,0.0,0.0,0.0,0.0,0.0,0.0,0.0,0.0,0.0,0.0,0.0,0.0,0.0,0.0,0.0,0.0,0.0,0.0,0.0,0.0,0.0,0.0,0.0,0.0,0.0,0.0,0.0,0.0,0.0,0.0,0.0,0.0,0.0,0.0,0.0,0.0,0.0,0.0,0.0,0.0,0.0,0.0,0.0,0.0,0.0,0.0,0.0,0.0,0.0,0.0,0.0,0.0,0.0,0.0,0.0,0.0,0.0,0.0,0.0,0.0,0.0,0.0,0.0,0.0,0.0,0.0,0.0,0.0,0.0,0.0,0.0,0.0,0.0,0.0,0.0,0.0,0.0,0.0,0.0,0.0,0.0,0.0,-3.897,0.0,-3.5021,-3.4508,-3.3381,-3.3033,0.0,0.0,0.0,0.0,0.0,0.0,0.0,0.0,0.0,0.0,0.0,0.0,0.0,0.0,0.0,0.0,0.0,0.0,0.0,0.0,0.0,0.0,0.0,0.0,0.0,0.0,0.0,0.0,0.0,0.0,0.0,0.0,0.0,0.0,0.0,0.0,0.0,0.0,0.0,0.0,0.0,0.0,0.0,0.0,0.0,0.0,0.0,0.0,0.0,0.0,0.0,0.0,0.0,0.0,0.0,0.0,0.0,0.0,0.0,0.0,0.0,0.0,0.0,0.0,0.0,0.0,0.0,0.0,0.0,0.0,0.0,0.0,0.0,0.0,0.0,0.0,0.0,0.0,0.0,0.0,0.0,0.0,0.0,0.0,0.0,0.0,0.0,0.0,0.0,0.0,0.0,0.0,0.0,0.0,0.0,0.0,0.0,0.0,0.0,0.0,0.0,0.0,0.0,0.0,0.0,0.0,0.0,0.0,-3.9386,-3.6634,-3.4746,-3.3835,-3.3765,-3.3069,-3.3051,0.0,0.0,0.0,0.0,0.0,0.0,0.0,0.0,0.0,0.0,0.0,0.0,0.0,0.0,0.0,0.0,0.0,0.0,0.0,0.0,0.0,0.0,0.0,0.0,0.0,0.0,0.0,0.0,0.0,0.0,0.0,0.0,0.0,0.0,0.0,0.0,0.0,0.0,0.0,0.0,0.0,0.0,0.0,0.0,0.0,0.0,0.0,0.0,0.0,0.0,0.0,0.0,0.0,0.0,0.0,0.0,0.0,0.0,0.0,0.0,0.0,0.0,0.0,0.0,0.0,0.0,0.0,0.0,0.0,0.0,0.0,0.0,0.0,0.0,0.0,0.0,0.0,0.0,0.0,0.0,0.0,0.0,0.0,0.0,0.0,0.0,0.0,0.0,0.0,0.0,0.0,0.0,0.0,0.0,0.0,0.0,0.0,0.0,0.0,0.0,0.0,0.0,0.0,0.0,0.0,0.0,0.0,0.0,0.0,-3.6227,-3.4605,-3.3786,-3.3786,-3.3051,-3.2835,0.0,0.0,0.0,0.0,0.0,0.0,0.0,0.0,0.0,0.0,0.0,0.0,0.0,0.0,0.0,0.0,0.0,0.0,0.0,0.0,0.0,0.0,0.0,0.0,0.0,0.0,0.0,0.0,0.0,0.0,0.0,0.0,0.0,0.0,0.0,0.0,0.0,0.0,0.0,0.0,0.0,0.0,0.0,0.0,0.0,0.0,0.0,0.0,0.0,0.0,0.0,0.0,0.0,0.0,0.0,0.0,0.0,0.0,0.0,0.0,0.0,0.0,0.0,0.0,0.0,0.0,0.0,0.0,0.0,0.0,0.0,0.0,0.0,0.0,0.0,0.0,0.0,0.0,0.0,0.0,0.0,0.0,0.0,0.0,0.0,0.0,0.0,0.0,0.0,0.0,0.0,0.0,0.0,0.0,0.0,0.0,0.0,0.0,0.0,0.0,0.0,0.0,0.0,0.0,0.0,0.0,0.0,0.0,0.0,-3.6073,-3.4664,-3.3792,-3.3573,-3.3353,-3.2973,-3.2689,0.0,0.0,0.0,0.0,0.0,0.0,0.0,0.0,0.0,0.0,0.0,0.0,0.0,0.0,0.0,0.0,0.0,0.0,0.0,0.0,0.0,0.0,0.0,0.0,0.0,0.0,0.0,0.0,0.0,0.0,0.0,0.0,0.0,0.0,0.0,0.0,0.0,0.0,0.0,0.0,0.0,0.0,0.0,0.0,0.0,0.0,0.0,0.0,0.0,0.0,0.0,0.0,0.0,0.0,0.0,0.0,0.0,0.0,0.0,0.0,0.0,0.0,0.0,0.0,0.0,0.0,0.0,0.0,0.0,0.0,0.0,0.0,0.0,0.0,0.0,0.0,0.0,0.0,0.0,0.0,0.0,0.0,0.0,0.0,0.0,0.0,0.0,0.0,0.0,0.0,0.0,0.0,0.0,0.0,0.0,0.0,0.0,0.0,0.0,0.0,0.0,0.0,0.0,0.0,0.0,0.0,0.0,0.0,-3.623,-3.49,-3.3965,-3.3449,-3.3821,-3.3631,0.0,0.0,0.0,0.0,0.0,0.0,0.0,0.0,0.0,0.0,0.0,0.0,0.0,0.0,0.0,0.0,0.0,0.0,0.0,0.0,0.0,0.0,0.0,0.0,0.0,0.0,0.0,0.0,0.0,0.0,0.0,0.0,0.0,0.0,0.0,0.0,0.0,0.0,0.0,0.0,0.0,0.0,0.0,0.0,0.0,0.0,0.0,0.0,0.0,0.0,0.0,0.0,0.0,0.0,0.0,0.0,0.0,0.0,0.0,0.0,0.0,0.0,0.0,0.0,0.0,0.0,0.0,0.0,0.0,0.0,0.0,0.0,0.0,0.0,0.0,0.0,0.0,0.0,0.0,0.0,0.0,0.0,0.0,0.0,0.0,0.0,0.0,0.0,0.0,0.0,0.0,0.0,0.0,0.0,0.0,0.0,0.0,0.0,0.0,0.0,0.0,0.0,0.0,0.0,0.0,0.0,0.0,0.0,0.0,-3.788,-3.7284,-3.6307,-3.5078,-3.5121,-3.4929,0.0,0.0,0.0,0.0,0.0,0.0,0.0,0.0,0.0,0.0,0.0,0.0,0.0,0.0,0.0,0.0,0.0,0.0,0.0,0.0,0.0,0.0,0.0,0.0,0.0,0.0,0.0,0.0,0.0,0.0,0.0,0.0,0.0,0.0,0.0,0.0,0.0,0.0,0.0,0.0,0.0,0.0,0.0,0.0,0.0,0.0,0.0,0.0,0.0,0.0,0.0,0.0,0.0,0.0,0.0,0.0,0.0,0.0,0.0,0.0,0.0,0.0,0.0,0.0,0.0,0.0,0.0,0.0,0.0,0.0,0.0,0.0,0.0,0.0,0.0,0.0,0.0,0.0,0.0,0.0,0.0,0.0,0.0,0.0,0.0,0.0,0.0,0.0,0.0,0.0,0.0,0.0,0.0,0.0,0.0,0.0,0.0,0.0,0.0,0.0,0.0,0.0,0.0,0.0,0.0,0.0,0.0,0.0,-3.8595,-3.8294,-3.8398,-3.811,-3.7356,-3.6843,-3.634,0.0,0.0,0.0,0.0,0.0,0.0,0.0,0.0,0.0,0.0,0.0,0.0,0.0,0.0,0.0,0.0,0.0,0.0,0.0,0.0,0.0,0.0,0.0,0.0,0.0,0.0,0.0,0.0,0.0,0.0,0.0,0.0,0.0,0.0,0.0,0.0,0.0,0.0,0.0,0.0,0.0,0.0,0.0,0.0,0.0,0.0,0.0,0.0,0.0,0.0,0.0,0.0,0.0,0.0,0.0,0.0,0.0,0.0,0.0,0.0,0.0,0.0,0.0,0.0,0.0,0.0,0.0,0.0,0.0,0.0,0.0,0.0,0.0,0.0,0.0,0.0,0.0,0.0,0.0,0.0,0.0,0.0,0.0,0.0,0.0,0.0,0.0,0.0,0.0,0.0,0.0,0.0,0.0,0.0,0.0,0.0,0.0,0.0,0.0,0.0,0.0,0.0,0.0,0.0,0.0,0.0,0.0,0.0,-3.8731,-3.8027,-3.8782,-3.9413,-3.9862,-3.878,-3.7809,0.0,0.0,0.0,0.0,0.0,0.0,0.0,0.0,0.0,0.0,0.0,0.0,0.0,0.0,0.0,0.0,0.0,0.0,0.0,0.0,0.0,0.0,0.0,0.0,0.0,0.0,0.0,0.0,0.0,0.0,0.0,0.0,0.0,0.0,0.0,0.0,0.0,0.0,0.0,0.0,0.0,0.0,0.0,0.0,0.0,0.0,0.0,0.0,0.0,0.0,0.0,0.0,0.0,0.0,0.0,0.0,0.0,0.0,0.0,0.0,0.0,0.0,0.0,0.0,0.0,0.0,0.0,0.0,0.0,0.0,0.0,0.0,0.0,0.0,0.0,0.0,0.0,0.0,0.0,0.0,0.0,0.0,0.0,0.0,0.0,0.0,0.0,0.0,0.0,0.0,0.0,0.0,0.0,0.0,0.0,0.0,0.0,0.0,0.0,0.0,0.0,0.0,0.0,0.0,0.0,0.0,0.0,0.0,-3.8661,-3.8746,-3.9574,-4.0282,-4.071,-3.9862,-3.8924,0.0,0.0,0.0,0.0,0.0,0.0,0.0,0.0,0.0,0.0,0.0,0.0,0.0,0.0,0.0,0.0,0.0,0.0,0.0,0.0,0.0,0.0,0.0,0.0,0.0,0.0,0.0,0.0,0.0,0.0,0.0,0.0,0.0,0.0,0.0,0.0,0.0,0.0,0.0,0.0,0.0,0.0,0.0,0.0,0.0,0.0,0.0,0.0,-2.9913,0.0,0.0,0.0,0.0,0.0,0.0,0.0,0.0,0.0,0.0,0.0,0.0,0.0,0.0,0.0,0.0,0.0,0.0,0.0,0.0,0.0,0.0,0.0,0.0,0.0,0.0,0.0,0.0,0.0,0.0,0.0,0.0,0.0,0.0,0.0,0.0,0.0,0.0,0.0,0.0,0.0,0.0,0.0,0.0,0.0,0.0,0.0,0.0,0.0,0.0,0.0,0.0,0.0,0.0,0.0,0.0,0.0,0.0,0.0,-3.8867,-3.9251,-4.0088,-4.0824,-4.1416,-4.0926,-4.0054,0.0,0.0,0.0,0.0,0.0,0.0,0.0,0.0,0.0,0.0,0.0,0.0,0.0,0.0,0.0,0.0,0.0,0.0,0.0,0.0,0.0,0.0,0.0,0.0,0.0,0.0,0.0,0.0,0.0,0.0,0.0,0.0,0.0,0.0,0.0,0.0,0.0,0.0,0.0,0.0,0.0,0.0,0.0,0.0,0.0,0.0,0.0,0.0,0.0,0.0,0.0,0.0,0.0,0.0,0.0,0.0,0.0,0.0,0.0,0.0,0.0,0.0,0.0,0.0,0.0,0.0,0.0,0.0,0.0,0.0,0.0,0.0,0.0,0.0,0.0,0.0,0.0,0.0,0.0,0.0,0.0,0.0,0.0,0.0,0.0,0.0,0.0,0.0,0.0,0.0,0.0,0.0,0.0,0.0,0.0,0.0,0.0,0.0,0.0,0.0,0.0,0.0,0.0,0.0,0.0,0.0,0.0,-3.8896,-3.909,-3.9565,-4.0279,-4.1089,-4.1976,-4.1686,-4.1025,-3.9896,0.0,0.0,0.0,0.0,0.0,0.0,0.0,0.0,0.0,0.0,0.0,0.0,0.0,0.0,0.0,0.0,0.0,0.0,0.0,0.0,0.0,0.0,0.0,0.0,0.0,0.0,0.0,0.0,0.0,0.0,0.0,0.0,0.0,0.0,0.0,0.0,0.0,0.0,-3.149,-3.1728,0.0,0.0,0.0,0.0,0.0,0.0,0.0,0.0,-2.9913,0.0,0.0,0.0,0.0,0.0,0.0,0.0,0.0,0.0,0.0,0.0,0.0,0.0,0.0,0.0,0.0,0.0,0.0,0.0,0.0,0.0,0.0,0.0,0.0,0.0,0.0,0.0,0.0,0.0,0.0,0.0,0.0,0.0,0.0,0.0,0.0,0.0,0.0,0.0,0.0,0.0,0.0,0.0,0.0,0.0,0.0,0.0,0.0,0.0,0.0,0.0,0.0,0.0,0.0,0.0,0.0,-3.859,-3.8247,-3.8477,-3.9509,-4.0329,-4.0911,-4.1444,-4.1529,-4.1152,-4.04,0.0,0.0,0.0,0.0,0.0,0.0,0.0,0.0,0.0,0.0,0.0,0.0,0.0,0.0,0.0,0.0,0.0,0.0,0.0,0.0,0.0,0.0,0.0,0.0,0.0,0.0,0.0,0.0,0.0,0.0,0.0,0.0,0.0,0.0,0.0,0.0,0.0,0.0,0.0,-3.0747,-3.0616,0.0,0.0,0.0,0.0,0.0,0.0,0.0,0.0,-3.0003,0.0,0.0,0.0,0.0,0.0,0.0,0.0,0.0,0.0,0.0,0.0,0.0,0.0,0.0,0.0,0.0,0.0,0.0,0.0,0.0,0.0,0.0,0.0,0.0,0.0,0.0,0.0,0.0,0.0,0.0,0.0,0.0,0.0,0.0,0.0,0.0,0.0,0.0,0.0,0.0,0.0,0.0,0.0,0.0,0.0,0.0,0.0,0.0,0.0,0.0,0.0,0.0,0.0,0.0,0.0,-3.9074,-3.8386,-3.8512,-3.9436,-4.0287,-4.1029,-4.1656,-4.1354,-4.102,0.0,0.0,0.0,0.0,0.0,0.0,0.0,0.0,0.0,0.0,0.0,0.0,0.0,0.0,0.0,0.0,0.0,0.0,0.0,0.0,0.0,0.0,0.0,0.0,0.0,0.0,0.0,0.0,0.0,0.0,0.0,0.0,0.0,0.0,0.0,0.0,0.0,0.0,0.0,0.0,-3.0761,-3.076,-3.0217,0.0,0.0,0.0,0.0,0.0,0.0,-3.002,-3.0093,0.0,0.0,0.0,0.0,0.0,0.0,0.0,0.0,0.0,0.0,0.0,0.0,0.0,0.0,0.0,0.0,0.0,0.0,0.0,0.0,0.0,0.0,0.0,0.0,0.0,0.0,0.0,0.0,0.0,0.0,0.0,0.0,0.0,0.0,0.0,0.0,0.0,0.0,0.0,0.0,0.0,0.0,0.0,0.0,0.0,0.0,0.0,0.0,0.0,0.0,0.0,0.0,0.0,0.0,0.0,-3.9721,-3.8874,-3.882,-3.9573,-4.0331,-4.1127,-4.1922,-4.1267,-4.1024,0.0,0.0,0.0,0.0,0.0,0.0,0.0,0.0,0.0,0.0,0.0,0.0,0.0,0.0,0.0,0.0,0.0,0.0,0.0,0.0,0.0,0.0,0.0,0.0,0.0,0.0,0.0,0.0,0.0,0.0,0.0,0.0,0.0,0.0,0.0,0.0,0.0,0.0,0.0,0.0,0.0,-3.1063,-3.0587,-3.0863,0.0,0.0,0.0,0.0,-3.0459,-3.0154,0.0,0.0,0.0,0.0,0.0,0.0,0.0,0.0,0.0,0.0,0.0,0.0,0.0,0.0,0.0,0.0,0.0,0.0,0.0,0.0,0.0,0.0,0.0,0.0,0.0,0.0,0.0,0.0,0.0,0.0,0.0,0.0,0.0,0.0,0.0,0.0,0.0,0.0,0.0,0.0,0.0,0.0,0.0,0.0,0.0,0.0,0.0,0.0,0.0,0.0,0.0,0.0,0.0,0.0,0.0,0.0,-4.0147,-3.926,-3.9214,-3.9933,-4.0829,-4.1506,-4.2012,-4.1638,-4.1283,0.0,0.0,0.0,0.0,0.0,0.0,0.0,0.0,0.0,0.0,0.0,0.0,0.0,0.0,0.0,0.0,0.0,0.0,0.0,0.0,0.0,0.0,0.0,0.0,0.0,0.0,0.0,0.0,0.0,0.0,0.0,0.0,0.0,0.0,0.0,0.0,0.0,0.0,0.0,0.0,0.0,-3.1117,-3.1067,-3.0934,-3.0847,0.0,0.0,-3.074,-3.0408,-3.0327,0.0,0.0,0.0,0.0,0.0,0.0,0.0,0.0,0.0,0.0,0.0,0.0,0.0,0.0,0.0,0.0,0.0,0.0,0.0,0.0,0.0,0.0,0.0,0.0,0.0,0.0,0.0,0.0,0.0,0.0,0.0,0.0,0.0,0.0,0.0,0.0,0.0,0.0,0.0,0.0,0.0,0.0,0.0,0.0,0.0,0.0,0.0,0.0,0.0,0.0,0.0,0.0,0.0,0.0,0.0,-3.9347,-4.0518,-3.9454,-3.9473,-4.076,-4.1148,-4.1792,-4.2729,-4.194,-4.1369,0.0,0.0,0.0,0.0,0.0,0.0,0.0,0.0,0.0,0.0,0.0,0.0,0.0,0.0,0.0,0.0,0.0,0.0,0.0,0.0,0.0,0.0,0.0,0.0,0.0,0.0,0.0,0.0,0.0,0.0,0.0,0.0,0.0,0.0,0.0,0.0,0.0,0.0,0.0,0.0,0.0,0.0,-3.1391,-3.1403,0.0,0.0,0.0,-3.1313,-3.074,0.0,0.0,0.0,0.0,0.0,0.0,0.0,0.0,0.0,0.0,0.0,0.0,0.0,0.0,0.0,0.0,0.0,0.0,0.0,0.0,0.0,0.0,0.0,0.0,0.0,0.0,0.0,0.0,0.0,0.0,0.0,0.0,0.0,0.0,0.0,0.0,0.0,0.0,0.0,0.0,0.0,0.0,0.0,0.0,0.0,0.0,0.0,0.0,0.0,0.0,0.0,0.0,0.0,0.0,0.0,0.0,0.0,-4.1339,-3.9922,-4.0032,-4.1576,-4.1737,-4.2331,-4.3343,-4.2385,0.0,0.0,0.0,0.0,0.0,0.0,0.0,0.0,0.0,0.0,0.0,0.0,0.0,0.0,0.0,0.0,0.0,0.0,0.0,0.0,0.0,0.0,0.0,0.0,0.0,0.0,0.0,-3.0474,0.0,0.0,0.0,0.0,0.0,0.0,0.0,0.0,0.0,0.0,0.0,0.0,0.0,0.0,-3.1805,-3.1569,-3.1754,-3.188,0.0,0.0,-3.1595,-3.0928,-3.0541,-3.0415,0.0,0.0,0.0,0.0,0.0,0.0,0.0,0.0,0.0,0.0,0.0,0.0,0.0,0.0,0.0,0.0,0.0,0.0,0.0,0.0,0.0,0.0,0.0,0.0,0.0,0.0,0.0,0.0,0.0,0.0,0.0,0.0,0.0,0.0,0.0,0.0,0.0,0.0,0.0,0.0,0.0,0.0,0.0,0.0,0.0,0.0,0.0,0.0,0.0,0.0,0.0,0.0,0.0,0.0,-4.0542,-4.2582,-4.0984,-4.093,-4.2508,-4.3034,-4.3343,-4.3361,-4.2994,-4.2454,0.0,0.0,0.0,0.0,0.0,0.0,0.0,0.0,0.0,0.0,0.0,0.0,0.0,0.0,0.0,0.0,0.0,0.0,0.0,0.0,0.0,0.0,0.0,0.0,0.0,0.0,0.0,0.0,0.0,0.0,0.0,0.0,0.0,0.0,0.0,0.0,0.0,0.0,0.0,0.0,0.0,-3.1964,-3.1519,-3.1651,-3.1732,0.0,-3.1423,-3.1129,-3.0835,-3.0541,-3.0348,-3.0213,0.0,0.0,0.0,0.0,0.0,0.0,0.0,0.0,0.0,0.0,0.0,0.0,0.0,0.0,0.0,0.0,0.0,0.0,0.0,0.0,0.0,0.0,0.0,0.0,0.0,0.0,0.0,0.0,0.0,0.0,0.0,0.0,0.0,0.0,0.0,0.0,0.0,0.0,0.0,0.0,0.0,0.0,0.0,0.0,0.0,0.0,0.0,0.0,0.0,0.0,0.0,0.0,0.0,-4.0678,-4.2011,-4.1377,-4.1781,-4.3375,-4.3722,-4.4032,-4.4562,-4.3721,-4.2876,0.0,0.0,0.0,0.0,0.0,0.0,0.0,0.0,0.0,0.0,0.0,0.0,0.0,0.0,0.0,0.0,0.0,0.0,0.0,0.0,0.0,0.0,0.0,0.0,0.0,0.0,0.0,0.0,-3.0642,-3.0612,-3.0539,0.0,0.0,0.0,0.0,0.0,0.0,0.0,0.0,0.0,0.0,-3.1791,-3.1336,-3.1232,0.0,0.0,-3.1036,-3.0862,-3.0568,-3.0434,-3.0334,-3.0185,-3.0093,0.0,0.0,0.0,0.0,0.0,0.0,0.0,0.0,0.0,0.0,0.0,0.0,0.0,0.0,0.0,0.0,0.0,0.0,0.0,0.0,0.0,0.0,0.0,0.0,0.0,0.0,0.0,0.0,0.0,0.0,0.0,0.0,0.0,0.0,0.0,0.0,0.0,0.0,0.0,0.0,0.0,0.0,0.0,0.0,0.0,0.0,0.0,0.0,0.0,0.0,0.0,0.0,-4.0777,-4.1779,-4.1713,-4.2568,-4.4196,-4.4341,-4.4633,-4.526,-4.4251,-4.3353,0.0,0.0,0.0,0.0,0.0,0.0,0.0,0.0,0.0,0.0,0.0,0.0,0.0,0.0,0.0,0.0,0.0,0.0,0.0,0.0,0.0,0.0,0.0,0.0,0.0,0.0,0.0,0.0,-3.0744,-3.0554,-3.0313,0.0,0.0,0.0,0.0,0.0,0.0,0.0,0.0,0.0,0.0,-3.1429,-3.1171,-3.1053,-3.1072,-3.1164,-3.1175,-3.0948,-3.0654,-3.065,-3.0497,-2.9981,0.0,0.0,0.0,0.0,0.0,0.0,0.0,0.0,0.0,0.0,0.0,0.0,0.0,0.0,0.0,0.0,0.0,0.0,0.0,0.0,0.0,0.0,0.0,0.0,0.0,0.0,0.0,-5.4193,0.0,0.0,-5.2214,0.0,0.0,0.0,0.0,0.0,0.0,0.0,0.0,0.0,0.0,0.0,0.0,0.0,0.0,0.0,0.0,0.0,0.0,0.0,0.0,0.0,0.0,-4.0937,-4.2197,-4.2271,-4.3016,-4.4636,-4.5077,-4.5297,-4.5297,-4.4508,-4.3866,-4.3444,0.0,0.0,0.0,0.0,0.0,0.0,0.0,0.0,0.0,0.0,0.0,0.0,0.0,0.0,0.0,0.0,0.0,0.0,0.0,0.0,0.0,0.0,0.0,0.0,0.0,0.0,-3.0817,-3.0539,-3.0313,0.0,0.0,0.0,0.0,0.0,0.0,0.0,0.0,0.0,-3.0492,-3.0848,-3.1158,-3.1067,-3.1313,-3.1583,-3.207,-3.191,-3.161,-3.1158,-3.118,-3.0876,0.0,0.0,0.0,0.0,0.0,0.0,0.0,0.0,0.0,0.0,0.0,0.0,0.0,0.0,0.0,0.0,0.0,0.0,0.0,0.0,0.0,0.0,0.0,0.0,0.0,0.0,0.0,-5.5412,-5.4578,0.0,0.0,0.0,0.0,0.0,0.0,0.0,0.0,0.0,0.0,0.0,-5.3005,-5.2393,0.0,0.0,0.0,0.0,0.0,0.0,0.0,0.0,0.0,0.0,0.0,0.0,-4.1304,-4.1546,-4.2527,-4.3558,-4.4655,-4.5352,-4.57,-4.5682,-4.4893,-4.4031,-4.3096,0.0,0.0,0.0,0.0,0.0,0.0,0.0,0.0,0.0,0.0,0.0,0.0,0.0,0.0,0.0,0.0,0.0,0.0,0.0,0.0,0.0,0.0,0.0,0.0,0.0,-3.0817,0.0,0.0,0.0,0.0,0.0,0.0,0.0,0.0,0.0,0.0,-3.0621,-3.0695,-3.0464,-3.1028,-3.1348,-3.1276,-3.1298,-3.1277,0.0,0.0,0.0,0.0,0.0,0.0,0.0,0.0,0.0,0.0,0.0,0.0,0.0,0.0,-2.8082,-2.9127,-2.7797,-2.6673,-2.7317,0.0,0.0,0.0,0.0,0.0,0.0,0.0,0.0,0.0,0.0,0.0,0.0,0.0,0.0,-5.5976,-5.5197,-5.4502,0.0,0.0,0.0,0.0,0.0,0.0,0.0,0.0,-5.3717,-5.3738,-5.4181,-5.3561,-5.3148,-5.2941,-5.2449,-5.0895,0.0,0.0,0.0,0.0,0.0,0.0,0.0,0.0,-4.1271,-4.1365,-4.2747,-4.3866,-4.4655,-4.5462,-4.5883,-4.5883,-4.5095,-4.4178,-4.3133,-4.2179,-4.15,0.0,0.0,0.0,0.0,0.0,0.0,0.0,0.0,0.0,0.0,0.0,0.0,0.0,0.0,0.0,0.0,0.0,0.0,0.0,0.0,0.0,0.0,0.0,-3.0817,0.0,0.0,0.0,0.0,0.0,0.0,0.0,0.0,0.0,-3.015,-3.0268,-3.0368,-3.0209,-3.0604,-3.106,-3.1243,0.0,0.0,0.0,0.0,0.0,0.0,0.0,-3.1437,-3.1254,-3.1211,-3.0965,-3.0041,-2.9549,-2.9325,-2.9697,0.0,0.0,-2.816,-2.6146,-2.4549,-2.5578,-2.4064,-2.2626,-2.2781,-2.1066,-1.9545,0.0,0.0,0.0,0.0,-6.0793,0.0,0.0,0.0,-5.6428,-5.5999,0.0,-5.5474,0.0,0.0,0.0,0.0,-5.4913,-5.4759,0.0,0.0,-5.4185,-5.4084,-5.4439,-5.4544,-5.3779,-5.2592,-5.3034,-5.2271,-5.0282,-4.8734,-4.7248,0.0,0.0,0.0,0.0,0.0,-4.089,-4.1647,-4.2894,-4.3903,-4.4655,-4.5462,-4.5883,-4.5847,-4.5113,-4.4325,-4.3554,-4.3096,-4.2326,-4.1189,-4.0657,0.0,0.0,0.0,0.0,0.0,0.0,0.0,0.0,0.0,0.0,0.0,0.0,0.0,0.0,0.0,0.0,0.0,0.0,0.0,0.0,-3.0817,0.0,0.0,0.0,0.0,0.0,0.0,0.0,0.0,0.0,-3.0193,-3.0222,-3.0029,-2.9943,-2.9985,0.0,0.0,0.0,0.0,-3.1246,-3.2135,-3.2559,-3.2498,-3.1966,-3.1966,-3.1699,-3.0794,0.0,0.0,-2.8153,-2.7431,-2.7142,-2.7304,-2.6237,-2.5296,-2.6044,-2.4774,-2.3518,-2.2925,-2.2667,-2.2426,-2.1979,-2.0663,-1.9401,-6.5458,0.0,0.0,0.0,0.0,-5.9951,-5.8761,-5.7615,-5.675,-5.6398,-5.6398,-5.5949,0.0,0.0,0.0,0.0,0.0,0.0,-5.6746,-5.6877,-5.6757,-5.6432,-5.5994,-5.6325,-5.609,-5.5431,-5.5473,-5.4265,-5.1848,-5.0552,-4.9307,-4.7967,0.0,0.0,0.0,0.0,-4.1751,-4.1806,-4.3169,-4.416,-4.4673,-4.5462,-4.5755,-4.548,-4.5242,-4.4746,-4.394,-4.3536,-4.3023,-4.2381,-4.075,0.0,0.0,0.0,0.0,0.0,0.0,0.0,0.0,0.0,0.0,0.0,0.0,0.0,0.0,0.0,0.0,0.0,0.0,0.0,-3.0817,-3.0817,-3.0817,0.0,0.0,0.0,0.0,0.0,0.0,0.0,0.0,0.0,-3.0382,-3.0368,-3.0539,0.0,0.0,-3.1699,-3.2295,-3.1942,-3.1646,-3.1632,-3.1628,0.0,-3.1076,-3.124,-3.1418,-3.1151,-2.9777,-2.8975,-2.973,-2.8272,-2.7268,-2.8279,-2.6806,-2.5433,-2.5451,-2.3251,-2.1863,-2.262,-2.1966,-2.1161,-2.1494,-2.1187,-2.0723,-6.3961,-6.3207,-6.2606,-6.188,-6.114,-6.0535,-5.9566,-5.8318,-5.7843,-5.755,-5.7369,-5.6939,-5.6882,-5.7207,-5.745,0.0,0.0,0.0,-5.8112,-5.84,-5.832,-5.8055,-5.7846,-5.8122,-5.7888,-5.7238,-5.7326,-5.6302,-5.4342,-5.2444,-5.1124,-5.0122,0.0,-4.356,-4.3159,-4.229,-4.1843,-4.1941,-4.3188,-4.4105,-4.4673,-4.5462,-4.5773,-4.5535,-4.5223,-4.482,-4.4325,-4.3793,-4.3298,-4.2876,-4.115,-4.0008,0.0,0.0,0.0,0.0,0.0,0.0,0.0,0.0,0.0,0.0,0.0,-3.2808,-3.3009,0.0,0.0,0.0,-3.1559,-3.1198,-3.1212,-3.1212,0.0,0.0,0.0,0.0,0.0,0.0,0.0,-3.1198,-3.1133,-3.1109,-3.1152,-3.1224,-3.1196,-3.0932,-3.1222,-3.1627,-3.1829,0.0,-3.125,-3.1147,-3.1245,-3.124,-3.0884,-3.107,-3.1194,-3.1138,-2.8607,-2.7095,-2.8006,-2.6455,-2.5268,-2.6005,-2.5767,-2.5443,-2.5436,-2.3451,-2.1952,-2.2944,-2.1954,-2.125,-2.1971,-2.1574,-2.0828,-6.2896,-6.2507,-6.2571,-6.1737,-6.0549,-6.1095,-6.0518,-5.922,-5.9308,-5.9016,-5.8642,-5.8103,-5.8024,-5.8426,-5.8827,0.0,-5.8572,-5.8651,-5.9033,-5.97,-5.9276,-5.9342,-5.968,-5.968,-5.9162,-5.8197,-5.8592,-5.8248,-5.7041,-5.3949,-5.227,-5.191,-4.5941,-4.2712,-4.2447,-4.1621,-4.1519,-4.2271,-4.3114,-4.3921,-4.4655,-4.5407,-4.5792,-4.5773,-4.5058,-4.4655,-4.46,-4.3921,-4.3353,-4.2843,-4.1565,-4.0575,-3.9745,0.0,0.0,0.0,0.0,0.0,0.0,0.0,0.0,0.0,0.0,0.0,0.0,0.0,0.0,0.0,-3.1878,0.0,-3.1798,-3.1798,0.0,0.0,0.0,-3.1798,-3.1798,-3.1798,-3.1812,-3.1827,0.0,0.0,-3.2324,-3.2354,-3.1728,-3.0038,-3.0229,-3.0475,-3.0562,-3.0405,-3.0381,-3.0849,-3.1059,-3.1151,-3.1131,-3.1187,-3.1022,-3.065,-2.7519,-2.5362,-2.5018,-2.3619,-2.2279,-2.2539,-2.3936,-2.526,-2.5378,-2.4504,-2.3926,-2.3435,-2.2698,-2.2307,-2.2964,-2.2021,-2.0978,-6.3173,-6.3043,-6.2397,-6.1753,-6.0981,-6.0839,-6.0463,-6.0088,-5.9536,-5.926,-5.9098,-5.8627,-5.8497,-5.8579,-5.866,-5.9095,-5.9784,-5.9822,-6.0388,-6.1202,-6.1164,-6.0739,-6.0134,-6.0453,-6.0119,-5.9246,-5.9643,-5.8661,-5.6221,-5.3334,-5.0696,-4.8209,-4.4683,-4.3244,-4.3729,-4.2611,-4.2087,-4.2271,-4.3371,-4.4178,-4.4655,-4.4856,-4.4948,-4.4966,-4.4765,-4.4526,-4.4233,-4.3688,-4.3217,-4.28,-4.1515,-4.0561,-4.0106,-3.8907,0.0,0.0,0.0,0.0,0.0,0.0,0.0,0.0,0.0,-3.2119,-3.297,0.0,-3.1593,0.0,-3.2011,-3.1798,-3.1798,-3.1798,0.0,0.0,-3.1798,-3.1798,-3.1798,-3.1798,-3.19,-3.2134,-3.2163,-3.2208,-3.2419,-3.2745,-3.2537,-3.1469,-3.1525,-3.1649,-3.1561,-3.0998,-3.0506,-3.0609,-3.0513,-3.0353,-3.0687,-3.1035,-3.1045,-3.013,-2.8077,-2.642,-2.5473,-2.437,-2.3528,-2.3578,-2.456,-2.5076,-2.4535,-2.474,-2.4806,-2.4013,-2.3605,-2.3508,-2.3799,-2.3983,-2.3692,-6.3977,-6.3578,-6.3097,-6.2517,-6.1918,-6.1652,-6.1409,-6.1247,-6.0784,-6.0376,-5.9966,-5.9471,-5.9305,-5.9305,-5.9305,-5.9762,-6.0508,-6.0508,-6.1109,-6.2119,-6.1903,-6.1466,-6.1006,-6.1,-6.0507,-5.9581,-6.0003,-5.8861,-5.6273,-5.3669,-5.0984,-4.8211,-4.5052,-4.3678,-4.3938,-4.3025,-4.2546,-4.2564,-4.3554,-4.4178,-4.4398,-4.4581,-4.4673,-4.4655,-4.449,-4.4215,-4.3815,-4.3361,-4.2892,-4.2479,-4.1282,-4.0646,-4.0437,-3.927,-3.8409,0.0,0.0,0.0,0.0,0.0,0.0,0.0,0.0,0.0,0.0,0.0,-3.1751,-3.2333,-3.2322,-3.2237,-3.2222,-3.2354,-3.2441,-3.2441,-3.2573,-3.2661,-3.2661,-3.2661,-3.2719,-3.291,-3.2924,-3.2967,-3.3061,-3.3285,-3.3285,-3.2727,-3.248,-3.2233,-3.1685,-3.1111,-3.0664,-3.0664,-3.0482,-3.0408,-3.0702,-3.1337,-3.1355,-3.0024,-2.8533,-2.7042,-2.5755,-2.4622,-2.3951,-2.4048,-2.4838,-2.5324,-2.4838,-2.5129,-2.5324,-2.4827,-2.4643,-2.4546,-2.4058,-2.3365,-2.2387,-6.484,-6.4119,-6.4039,-6.3554,-6.2822,-6.2822,-6.2577,-6.2249,-6.2249,-6.1672,-6.0733,-6.0423,-6.0255,-6.0171,-6.0171,-6.046,-6.0965,-6.0965,-6.1518,-6.2432,-6.2023,-6.1758,-6.1686,-6.1181,-6.0507,-5.9666,-6.0003,-5.9111,-5.701,-5.4346,-5.1927,-4.9752,-4.6011,-4.3974,-4.3565,-4.3213,-4.2949,-4.2949,-4.3646,-4.4013,-4.4013,-4.4343,-4.4526,-4.4417,-4.4087,-4.3742,-4.3198,-4.2856,-4.2389,-4.1922,-4.1156,-4.0696,-4.0537,-3.9578,-3.8888,0.0,-3.8067,0.0,0.0,0.0,0.0,0.0,0.0,0.0,0.0,-3.2446,-3.212,-3.2441,-3.2734,-3.2895,-3.2895,-3.3144,-3.3215,-3.3319,-3.3554,-3.3729,-3.3729,-3.3729,-3.3729,-3.3729,-3.3729,-3.3729,-3.3788,-3.3788,-3.3788,-3.3711,-3.336,-3.2711,-3.1637,-3.1185,-3.0926,-3.0795,-3.0914,-3.1087,-3.1395,-3.189,-3.1826,-3.054,-2.9147,-2.7515,-2.5873,-2.4817,-2.4156,-2.4156,-2.4838,-2.5421,-2.5324,-2.5324,-2.5421,-2.5227,-2.5129,-2.4935,-2.4253,-2.2485,-2.0432,-6.4601,-6.4039,-6.3716,-6.3311,-6.2822,-6.2822,-6.2741,-6.2659,-6.2331,-6.1672,-6.0841,-6.0757,-6.0507,-6.0255,-6.0171,-6.046,-6.0965,-6.0965,-6.1326,-6.1927,-6.1855,-6.1542,-6.1133,-6.1013,-6.0676,-6.0111,-6.0171,-5.9726,-5.8856,-5.4585,-5.1927,-5.0697,-4.6369,-4.3954,-4.3567,0.0,0.0,0.0,-4.3518,-4.3609,-4.3609,-4.3683,-4.3522,-4.3162,-4.309,0.0,-4.2334,-4.1795,-4.1506,-4.1416,-4.0877,0.0,0.0,0.0,0.0,0.0,0.0,0.0,0.0,0.0,0.0,0.0,-3.4605,-3.3828,-3.3048,-3.2925,-3.31,-3.3422,-3.3524,-3.3554,-3.3554,-3.3597,-3.3641,-3.3641,-3.37,-3.3729,-3.3729,-3.3729,-3.3729,-3.3729,-3.3729,-3.3832,-3.408,-3.4124,-3.4124,-3.4139,-3.3865,-3.3508,-3.3052,-3.2025,-3.127,-3.0901,-3.138,-3.1902,-3.2329,-3.3019,-3.2891,-3.1637,-3.0478,-2.8741,-2.655,-2.5593,-2.4838,-2.4253,-2.4838,-2.5227,-2.4546,-2.4935,-2.5227,-2.4438,-2.4351,-2.4438,-2.5032,-2.474,-2.3853,-6.4681,-6.4039,-6.3878,-6.3392,0.0,-6.2822,-6.2822,-6.2741,-6.2577,-6.2084,-6.1506,-6.0983,-6.0674,-6.0507,-6.0255,-6.046,-6.0965,-6.0965,-6.1277,-6.1782,-6.1518,-6.1253,-6.0965,-6.07,-6.0351,-5.9835,-6.0087,-5.9388,-5.7636,-5.4325,-5.1736,-4.9991,-4.6443,-4.449,-4.4086,-4.4086,-4.3884,-4.3499,-4.3481,-4.3481,-4.3481,-4.3481,-4.3303,-4.2837,-4.2748,0.0,0.0,0.0,0.0,0.0,0.0,0.0,0.0,-4.0138,0.0,-3.9762,-3.8686,-3.7768,-3.7322,-3.6157,-3.5271,-3.4819,-3.4275,-3.3886,-3.3294,-3.338,-3.3554,-3.3715,-3.3729,-3.3729,-3.3729,-3.3875,-3.3978,-3.3978,-3.411,-3.4212,-3.4212,-3.4212,-3.4212,-3.4212,-3.4212,-3.4285,-3.4446,-3.4461,-3.4461,-3.4461,-3.4406,-3.4154,-3.3715,-3.2906,-3.225,-3.2063,-3.2267,-3.2564,-3.2672,-3.3347,-3.3271,-3.165,-3.0592,-2.9338,-2.7322,-2.6175,-2.5324,-2.4838,-2.5129,-2.5324,-2.4935,-2.5129,-2.5324,-2.4935,-2.474,-2.4838,-2.5324,-2.4243,-2.3072,-6.492,-6.4119,-6.4119,-6.3554,-6.2822,-6.2822,-6.2822,-6.2822,-6.2822,0.0,0.0,-6.134,-6.09,-6.0757,-6.0423,-6.0412,-6.082,-6.082,-6.1085,-6.1494,-6.1037,-6.082,-6.0796,-6.0388,-6.0003,-5.9666,-5.9558,-5.8321,-5.5904,-5.3526,-5.1128,-4.88,-4.6462,-4.5095,-4.4691,-4.4673,-4.4343,-4.3738,-4.3701,-4.3701,-4.3611,-4.3611,-4.3324,-4.2784,-4.2784,-4.2333,-4.1426,-4.1283,-4.1067,-4.0777,-4.0618,-4.0583,-4.0566,-4.0292,-4.0031,-3.9852,-3.8668,-3.75,-3.6601,-3.5621,-3.4712,-3.3905,-3.3905,-3.3875,-3.3832,-3.3817,-3.3846,-3.3905,-3.3905,-3.3905,-3.3905,-3.4139,-3.43,-3.43,-3.4549,-3.4695,-3.4695,-3.471,-3.468,-3.471,-3.468,-3.471,-3.4695,-3.4695,-3.471,-3.471,-3.4695,-3.4601,-3.4118,-3.3511,-3.3107,-3.3215,-3.3201,-3.3149,-3.3083,-3.3474,-3.3191,-3.1637,-3.0622,-2.955,-2.808,-2.6476,-2.5615,-2.5421,-2.5518,-2.5518,-2.5518,-2.5518,-2.5518,-2.5518,-2.5518,-2.5518,-2.5324,-2.3365,-2.1897,-6.492,-6.4119,-6.4119,-6.3554,-6.2822,-6.2822,-6.2822,-6.2822,-6.2822,-6.2577,-6.2167,-6.1647,-6.115,-6.0733,-6.0423,-6.0219,-6.0291,-6.0291,-6.0339,-6.0412,-6.0315,-6.0291,-6.0267,-6.0195,-6.0171,-6.0003,-5.8104,-5.6705,-5.5575,-5.1986,-4.9358,-4.8203,-4.6278,-4.5095,-4.471,-4.4673,-4.4618,-4.4508,-4.4508,-4.4325,-4.3868,-4.3849,-4.3408,-4.2487,-4.2469,-4.2209,-4.1635,-4.1344,-4.1172,-4.108,-4.0772,-4.0583,-4.0583,-4.0532,-4.0135,-3.9225,-3.8246,-3.7204,-3.6298,-3.5308,-3.4657,-3.4578,-3.4563,-3.4446,-3.4183,-3.4154,-3.4271,-3.4534,-3.4534,-3.4578,-3.4578,-3.4592,-3.4622,-3.4636,-3.4666,-3.471,-3.471,-3.471,-3.471,-3.471,-3.471,-3.471,-3.471,-3.471,-3.471,-3.471,-3.471,-3.471,-3.4414,-3.3742,-3.3445,-3.3728,-3.3822,-3.393,-3.4132,-3.4378,-3.3705,-3.2489,-3.0942,-2.9413,-2.8104,-2.6573,-2.5615,-2.5518,-2.5518,-2.5518,-2.5518,-2.5518,-2.5539,-2.555,-2.5561,-2.5561,-2.5572,-2.4294,-2.3199,-6.492,-6.4119,-6.4119,-6.3554,-6.2822,-6.2822,-6.2822,-6.2822,-6.2822,-6.2659,-6.2413,-6.1837,-6.1423,-6.1091,-6.0507,-6.0171,-6.0171,-6.0171,-6.0171,-6.0171,-6.0171,-6.0171,-6.0171,-6.0171,-6.0171,-6.0087,-5.8832,-5.7418,-5.5749,-5.2634,-5.0206,-4.8516,-4.6616,-4.5517,-4.5352,-4.5333,-4.524,-4.4943,-4.4801,-4.4398,-4.3938,-4.3938,-4.3385,-4.2458,-4.2365,-4.218,-4.1697,-4.1542,-4.1457,-4.1457,-4.1286,-4.1183,-4.1183,-4.1012,-4.0434,-3.9498,-3.8288,-3.7162,-3.6266,-3.5256,-3.471,-3.471,-3.471,-3.4636,-3.4505,-3.4475,-3.4549,-3.4695,-3.471,-3.471,-3.471,-3.471,-3.471,-3.471,-3.471,-3.471,-3.471,-3.471,-3.471,-3.471,-3.471,-3.471,-3.471,-3.471,-3.471,-3.471,-3.471,-3.471,-3.471,-3.432,-3.4024,-3.4305,-3.4305,-3.4305,-3.4305,-3.3785,-3.303,-3.211,-3.0217,-2.8801,-2.7742,-2.6573,-2.5615,-2.5518,-2.5518,-2.5518,-2.5529,-2.5626,-2.569,-2.5723,-2.5841,-2.5895,-2.5708,-2.4622,-2.3048,-6.492,-6.4119,-6.4119,-6.3554,-6.2822,-6.2822,-6.2822,-6.2822,-6.2822,-6.2822,-6.2659,-6.2027,-6.1614,-6.1448,-6.0674,-6.0255,-6.0171,-6.0171,-6.0171,-6.0171,-6.0171,-6.0171,-6.0171,-6.0171,-6.0171,-5.9919,-5.9111,-5.7441,-5.5049,-5.2724,-5.0398,-4.8254,-4.6616,-4.5883,-4.5883,-4.5789,-4.5506,-4.5093,-4.4795,-4.4394,-4.3838,-4.3838,-4.3373,-4.2533,-4.255,-4.2346,-4.1953,-4.1868,-4.1834,-4.1834,-4.1748,-4.1603,-4.14,-4.1069,-4.0453,-3.9177,-3.8113,-3.7118,-3.6106,-3.5311,-3.4812,-3.4812,-3.4739,-3.471,-3.471,-3.471,-3.471,-3.471,-3.471,-3.471,-3.4724,-3.4783,-3.4812,-3.4812,-3.4885,-3.4944,-3.4929,-3.4914,-3.4914,-3.4914,-3.4856,-3.4797,-3.4833,-3.471,-3.471,-3.471,-3.471,-3.471,-3.471,-3.471,-3.471,-3.471,-3.471,-3.432,-3.3728,-3.2988,-3.2043,-3.1054,-2.9149,-2.7909,-2.7164,-2.6186,-2.5658,-2.5583,-2.5604,-2.5658,-2.569,-2.5819,-2.5938,-2.5959,-2.6078,-2.6097,-2.5687,-2.4287,-2.2515,-6.492,-6.4119,-6.4039,-6.3554,-6.2822,-6.2822,-6.2822,-6.2822,-6.2822,-6.2822,-6.2741,-6.2331,-6.1944,-6.1448,-6.1008,-6.0507,-6.0255,-6.0171,-6.0171,-6.0171,-6.0171,-6.0171,-6.0171,-6.0171,-6.0003,-5.9388,-5.7441,-5.54,-5.2902,-5.0307,-4.8162,-4.6335,-4.5978,-4.5883,-4.5883,-4.5412,-4.5129,-4.5129,-4.4678,-4.4187,-4.3712,-4.3617,-4.3314,-4.2758,-4.2741,-4.2758,-4.269,-4.2416,-4.2227,-4.221,-4.1902,-4.134,-4.0497,-4.0353,-3.9396,-3.7596,-3.7184,-3.6692,-3.5817,-3.5375,-3.5119,-3.509,-3.4885,-3.4739,-3.4739,-3.4724,-3.471,-3.4739,-3.4724,-3.4739,-3.4724,-3.4958,-3.5119,-3.5134,-3.5353,-3.5558,-3.561,-3.5558,-3.5654,-3.5558,-3.5266,-3.5126,-3.5109,-3.4926,-3.471,-3.471,-3.471,-3.471,-3.471,-3.471,-3.471,-3.471,-3.471,-3.4118,-3.296,-3.2475,-3.1054,-2.886,-2.8019,-2.7283,-2.6327,-2.5863,-2.5583,-2.5809,-2.5841,-2.5906,-2.6046,-2.6196,-2.6196,-2.6207,-2.615,-2.5961,-2.4929,-2.3855,-2.2406,-6.4681,-6.4064,-6.3797,-6.3392,-6.2822,-6.2822,-6.2822,-6.2822,-6.2822,-6.2822,-6.2822,-6.2659,-6.2331,-6.1837,-6.1174,-6.0674,-6.0507,-6.0339,-6.0171,-6.0171,-6.0171,-6.0171,-6.0171,-6.0171,-5.9919,-5.9497,-5.8174,-5.5772,-5.2297,-4.8769,-4.671,-4.5978,-4.5883,-4.5883,-4.5883,-4.5412,-4.4939,-4.4655,-4.4198,-4.3626,-4.3244,-4.3435,-4.334,-4.2861,-4.2765,-4.2765,-4.2748,-4.2611,-4.2621,-4.2621,-4.2467,-4.1907,-4.0921,-4.0644,-3.9562,-3.7648,-3.6697,-3.6127,-3.5742,-3.5514,-3.5537,-3.5537,-3.5339,-3.5251,-3.5266,-3.5251,-3.5266,-3.5236,-3.509,-3.5046,-3.5222,-3.5368,-3.5552,-3.5566,-3.5669,-3.5742,-3.5742,-3.5742,-3.5742,-3.5728,-3.5625,-3.5471,-3.5479,-3.5252,-3.4926,-3.471,-3.471,-3.471,-3.471,-3.471,-3.471,-3.471,-3.471,-3.4024,-3.2569,-3.0661,-2.9338,-2.8116,-2.717,-2.6298,-2.6027,-2.5873,-2.5992,-2.6078,-2.6078,-2.611,-2.6185,-2.6358,-2.6444,-2.6455,-2.6483,-2.6141,-2.4401,-2.3686,-2.2458,-6.4466,-6.3878,-6.3473,-6.3148,-6.2822,-6.2822,-6.2822,-6.2822,-6.2822,-6.2822,-6.2822,-6.2822,-6.2659,-6.2249,-6.1399,-6.09,-6.0757,-6.0423,-6.0171,-6.0171,-6.0171,-6.0171,-6.0171,-6.0003,-5.975,-5.9327,-5.8818,-5.6339,-5.2117,-4.7976,-4.5883,-4.5883,-4.5883,-4.5789,-4.5601,-4.5129,-4.4673,-4.418,-4.3626,-4.3148,-4.2957,-4.3148,-4.3227,-4.2861,-4.2765,-4.2765,-4.2765,-4.2765,-4.2652,-4.2364,-4.2364,-4.177,-4.0481,-4.0158,-3.9243,-3.7581,-3.6512,-3.5909,-3.5909,-3.5822,-3.5778,-3.5778,-3.5801,-3.5742,-3.5742,-3.5742,-3.5786,-3.5749,-3.5558,-3.5529,-3.5698,-3.5719,-3.5778,-3.5778,-3.5836,-3.5909,-3.5924,-3.5909,-3.5924,-3.5909,-3.5851,-3.575,-3.5534,-3.5311,-3.5035,-3.4818,-3.471,-3.471,-3.471,-3.471,-3.471,-3.471,-3.4414,-3.3351,-3.1908,-3.028,-2.8488,-2.717,-2.644,-2.6059,-2.5938,-2.6142,-2.6293,-2.6272,-2.6304,-2.639,-2.6508,-2.6627,-2.667,-2.6713,-2.6708,-2.62,-2.4093,-2.3728,-2.2694,-6.428,-6.3473,-6.2985,-6.2822,-6.2822,-6.2822,-6.2822,-6.2822,-6.2822,-6.2822,-6.2822,-6.2822,-6.2822,-6.2659,-6.1812,-6.1233,-6.0841,-6.0423,-6.0171,-6.0171,-6.0171,-6.0171,-6.0171,-5.975,-5.9327,-5.8903,-5.8391,-5.5991,-5.1778,-4.7883,-4.5883,-4.5883,-4.5883,-4.5601,-4.5223,-4.4655,-4.4198,-4.3722,-4.3148,-4.2861,-4.2861,-4.2861,-4.2861,-4.2765,-4.2765,-4.2765,-4.2765,-4.2748,-4.2364,-4.1368,-4.1384,-4.0497,-3.8647,-3.8338,-3.7833,-3.6849,-3.6553,-3.6539,-3.648,-3.6246,-3.61,-3.607,-3.5866,-3.5772,-3.583,-3.583,-3.5851,-3.607,-3.607,-3.5953,-3.5778,-3.5968,-3.6085,-3.6114,-3.6363,-3.6495,-3.6524,-3.6466,-3.6553,-3.648,-3.6246,-3.5822,-3.5317,-3.5197,-3.5064,-3.4818,-3.471,-3.471,-3.471,-3.471,-3.471,-3.4428,-3.3662,-3.2016,-3.0579,-2.9592,-2.8439,-2.7157,-2.6321,-2.5981,-2.611,-2.625,-2.639,-2.6487,-2.6541,-2.6659,-2.6832,-2.6805,-2.6896,-2.6896,-2.6885,-2.6016,-2.4048,-2.3738,-2.2703,-6.3797,-6.3067,-6.2904,-6.2822,-6.2822,-6.2822,-6.2822,-6.2822,-6.2822,-6.2822,-6.2822,-6.2822,-6.2822,-6.2741,-6.1919,-6.1423,-6.1174,-6.0507,-6.0171,-6.0171,-6.0171,-6.0171,-6.0171,-5.975,-5.9243,-5.8818,-5.8329,-5.5881,-5.1688,-4.7791,-4.5883,-4.5789,-4.5506,-4.5318,-4.5034,-4.4275,-4.3817,-4.3513,-4.3053,-4.2765,-4.2765,-4.2765,-4.2765,-4.2765,-4.2765,-4.246,-4.1866,-4.1866,-4.1368,-4.0303,-4.0303,-3.9623,-3.8353,-3.7583,-3.6992,-3.6696,-3.6612,-3.6612,-3.6597,-3.6495,-3.6422,-3.6422,-3.6319,-3.6231,-3.6261,-3.6261,-3.6305,-3.6392,-3.6422,-3.6363,-3.6319,-3.6363,-3.6436,-3.6451,-3.6539,-3.6612,-3.6612,-3.6612,-3.6612,-3.6583,-3.6352,-3.5876,-3.5353,-3.5227,-3.505,-3.4818,-3.471,-3.471,-3.471,-3.471,-3.4724,-3.4645,-3.4385,-3.3253,-3.0574,-2.9418,-2.8253,-2.7024,-2.6207,-2.6315,-2.6444,-2.6584,-2.6724,-2.6724,-2.6778,-2.6799,-2.6826,-2.6826,-2.6847,-2.6847,-2.6847,-2.581,-2.4048,-2.3531,-2.2392,-6.3311,-6.2822,-6.2822,-6.2822,-6.2822,-6.2822,-6.2822,-6.2822,-6.2822,-6.2822,-6.2822,-6.2822,-6.2822,-6.2659,-6.1862,-6.1531,-6.1448,-6.059,-6.0171,-6.0171,-6.0171,-6.0171,-5.9919,-5.9497,-5.8988,-5.8391,-5.7424,-5.5093,-5.1757,-4.842,-4.6522,-4.5601,-4.5223,-4.4939,-4.456,-4.3895,-4.3531,-4.334,-4.2957,-4.2765,-4.2765,-4.2765,-4.2765,-4.2765,-4.2765,-4.2364,-4.1368,-4.1271,-4.0594,-3.9428,-3.9233,-3.8745,-3.778,-3.6992,-3.6612,-3.6612,-3.6612,-3.6612,-3.6612,-3.6612,-3.6597,-3.6597,-3.6597,-3.6612,-3.6612,-3.6612,-3.6612,-3.6612,-3.6612,-3.6612,-3.6612,-3.6597,-3.6612,-3.6612,-3.6612,-3.6612,-3.6612,-3.6612,-3.6553,-3.6422,-3.6119,-3.5725,-3.531,-3.5241,-3.5064,-3.471,-3.471,-3.471,-3.471,-3.4797,-3.4856,-3.4885,-3.5134,-3.3793,-3.1678,-3.0168,-2.8497,-2.7214,-2.6401,-2.6552,-2.6692,-2.6853,-2.6939,-2.6847,-2.6847,-2.6847,-2.6847,-2.6847,-2.6847,-2.6847,-2.6334,-2.5398,-2.4151,-2.3221,-2.208,-6.2822,-6.2822,-6.2822,-6.2822,-6.2822,-6.2822,-6.2822,-6.2822,-6.2822,-6.2822,-6.2822,-6.2822,-6.2741,-6.2577,-6.1837,-6.1531,-6.1282,-6.059,-6.0171,-6.0171,-6.0171,-5.9919,-5.9558,-5.9073,-5.8562,-5.7963,-5.5729,-5.3679,-5.1688,-4.9341,-4.7139,-4.5488,-4.5129,-4.456,-4.3609,-4.3626,-4.334,-4.2957,-4.2765,-4.2765,-4.2765,-4.2765,-4.2765,-4.2765,-4.2765,-4.2172,-4.1271,-4.1175,-4.0206,-3.8467,-3.8173,-3.7681,-3.6893,-3.6612,-3.6612,-3.6612,-3.6612,-3.6612,-3.6612,-3.6612,-3.6612,-3.6612,-3.6612,-3.6612,-3.6612,-3.6612,-3.6612,-3.6612,-3.6612,-3.6612,-3.6612,-3.6612,-3.6612,-3.6612,-3.6612,-3.6612,-3.6612,-3.6597,-3.6466,-3.6144,-3.586,-3.5544,-3.5338,-3.5118,-3.5035,-3.4818,-3.4739,-3.4768,-3.4812,-3.5002,-3.5149,-3.5222,-3.5044,-3.3935,-3.2464,-3.1063,-2.9155,-2.7482,-2.6898,-2.667,-2.6799,-2.6837,-2.6837,-2.6847,-2.6847,-2.6847,-2.6847,-2.6847,-2.6642,-2.654,-2.581,-2.4986,-2.3738,-2.2703,-2.1769,-6.2822,-6.2822,-6.2822,-6.2822,-6.2822,-6.2822,-6.2822,-6.2822,-6.2822,-6.2822,-6.2822,-6.2822,-6.2659,-6.2331,-6.1779,-6.134,-6.1008,-6.0423,-6.0171,-6.0171,-6.0171,-5.9919,-5.9473,-5.8988,-5.8415,-5.7188,-5.4211,-5.2318,-5.1236,-4.842,-4.6147,-4.5223,-4.475,-4.4275,-4.3626,-4.3244,-4.2957,-4.2861,-4.2765,-4.2765,-4.2765,-4.2765,-4.2765,-4.2748,-4.2172,-4.1271,-4.0303,-4.0206,-3.9233,-3.7189,-3.7091,-3.6893,-3.6696,-3.6612,-3.6612,-3.6612,-3.6612,-3.6612,-3.6612,-3.6612,-3.6612,-3.6612,-3.6612,-3.6612,-3.6612,-3.6612,-3.6612,-3.6612,-3.6612,-3.6612,-3.6612,-3.6612,-3.6612,-3.6612,-3.6612,-3.6597,-3.6553,-3.6392,-3.6129,-3.5836,-3.5514,-3.5207,-3.4929,-3.4847,-3.4833,-3.4753,-3.4885,-3.4988,-3.5061,-3.5295,-3.5581,-3.5529,-3.4907,-3.3723,-3.1871,-3.0514,-2.9065,-2.7649,-2.696,-2.6767,-2.6885,-2.6847,-2.6847,-2.6847,-2.6847,-2.6847,-2.6847,-2.6847,-2.6642,-2.6118,-2.5388,-2.4254,-2.291,-2.1977,-2.1154,-6.2822,-6.2822,-6.2822,-6.2822,-6.2822,-6.2822,-6.2822,-6.2822,-6.2822,-6.2822,-6.2822,-6.2822,-6.2659,-6.2331,-6.1779,-6.134,-6.1008,-6.0507,-6.0171,-6.0171,-6.0171,-5.9835,-5.9243,-5.8562,-5.8072,-5.7037,-5.4298,-5.2381,-5.1507,-4.842,-4.6053,-4.4939,-4.4388,-4.3817,-4.334,-4.294,-4.2765,-4.2765,-4.2765,-4.2765,-4.2765,-4.2765,-4.2652,-4.2268,-4.1577,-4.0594,-3.9331,-3.9136,-3.8353,-3.6893,-3.6612,-3.6612,-3.6612,-3.6612,-3.6612,-3.6612,-3.6612,-3.6612,-3.6612,-3.6612,-3.6612,-3.6612,-3.6612,-3.6612,-3.6612,-3.6612,-3.6612,-3.6612,-3.6612,-3.6612,-3.6612,-3.6612,-3.6612,-3.6612,-3.6612,-3.6553,-3.6436,-3.6144,-3.5822,-3.5514,-3.5222,-3.4973,-3.4783,-3.471,-3.4768,-3.4856,-3.5031,-3.5236,-3.5339,-3.5617,-3.5555,-3.5298,-3.4535,-3.2967,-3.1027,-2.973,-2.8733,-2.7827,-2.6907,-2.6896,-2.6837,-2.6847,-2.6847,-2.6847,-2.6847,-2.6847,-2.6847,-2.6847,-2.6745,-2.5902,-2.4976,-2.3728,-2.2486,-2.1561,-2.0841,-6.2822,-6.2822,-6.2822,-6.2822,-6.2822,-6.2822,-6.2822,-6.2822,-6.2822,-6.2822,-6.2822,-6.2822,-6.2741,-6.2495,-6.1779,-6.1423,-6.1257,-6.059,-6.0171,-6.0171,-6.0171,-5.975,-5.8927,-5.8072,-5.7642,-5.7233,-5.5379,-5.3476,-5.1597,-4.9026,-4.6747,-4.4655,-4.3912,-4.334,-4.294,-4.2861,-4.2765,-4.2765,-4.2765,-4.2765,-4.2748,-4.2652,-4.2268,-4.1368,-4.1078,-4.0109,-3.8647,-3.8173,-3.7681,-3.6696,-3.6612,-3.6612,-3.6612,-3.6612,-3.6612,-3.6612,-3.6612,-3.6612,-3.6612,-3.6612,-3.6612,-3.6612,-3.6612,-3.6612,-3.6612,-3.6612,-3.6612,-3.6612,-3.6612,-3.6612,-3.6612,-3.6612,-3.6612,-3.6597,-3.6553,-3.6422,-3.6144,-3.5836,-3.5514,-3.5222,-3.4914,-3.471,-3.4724,-3.4739,-3.4885,-3.5061,-3.5207,-3.5456,-3.5646,-3.5715,-3.5304,-3.4675,-3.4008,-3.2329,-3.0347,-2.8968,-2.8053,-2.7553,-2.6847,-2.6847,-2.6847,-2.6847,-2.6847,-2.6847,-2.6847,-2.6847,-2.6847,-2.6847,-2.6221,-2.5182,-2.4142,-2.3193,-2.2166,-2.1145,-2.0737,-6.2822,-6.2822,-6.2822,-6.2822,-6.2822,-6.2822,-6.2822,-6.2822,-6.2822,-6.2822,-6.2822,-6.2822,-6.2413,-6.1837,-6.1614,-6.1174,-6.0674,-6.0339,-6.0171,-6.0171,-6.0171,-5.9666,-5.8841,-5.79,-5.747,-5.7251,-5.5396,-5.3578,-5.1667,-4.9026,-4.6672,-4.4465,-4.3817,-4.334,-4.2844,-4.2765,-4.2765,-4.2765,-4.2765,-4.2765,-4.2652,-4.2059,-4.1577,-4.1271,-3.9818,-3.8843,-3.8173,-3.7386,-3.6893,-3.6711,-3.6612,-3.6612,-3.6612,-3.6612,-3.6612,-3.6612,-3.6612,-3.6612,-3.6612,-3.6612,-3.6612,-3.6612,-3.6612,-3.6612,-3.6612,-3.6612,-3.6612,-3.6612,-3.6612,-3.6612,-3.6612,-3.6612,-3.6612,-3.6583,-3.6422,-3.6231,-3.6041,-3.5631,-3.5236,-3.5134,-3.4871,-3.4739,-3.4768,-3.49,-3.5061,-3.5236,-3.5529,-3.5866,-3.6012,-3.6104,-3.5802,-3.4262,-3.3147,-3.1554,-2.9849,-2.8348,-2.7451,-2.7144,-2.6847,-2.6847,-2.6847,-2.6847,-2.6847,-2.6847,-2.6847,-2.6847,-2.6847,-2.6847,-2.5707,-2.4667,-2.3935,-2.3193,-2.1552,-2.0424,-2.0424,-6.3048,-6.2822,-6.2822,-6.2822,-6.2822,-6.2822,-6.2822,-6.2822,-6.2822,-6.2822,-6.2822,-6.2822,-6.2413,-6.1837,-6.1614,-6.1091,-6.0507,-6.0255,-6.0171,-6.0087,-5.975,-5.9327,-5.8671,-5.79,-5.747,-5.7124,-5.4676,-5.2907,-5.1215,-4.8216,-4.5847,-4.4465,-4.3626,-4.3131,-4.2861,-4.2765,-4.2765,-4.2765,-4.2765,-4.2669,-4.2172,-4.1577,-4.0691,-4.0109,-3.8745,-3.8059,-3.7485,-3.6893,-3.6612,-3.6612,-3.6612,-3.6612,-3.6612,-3.6612,-3.6612,-3.6612,-3.6612,-3.6612,-3.6612,-3.6612,-3.6612,-3.6612,-3.6612,-3.6612,-3.6612,-3.6612,-3.6612,-3.6612,-3.6612,-3.6612,-3.6612,-3.6612,-3.6612,-3.6568,-3.6319,-3.607,-3.5939,-3.547,-3.5134,-3.4973,-3.4827,-3.4768,-3.4856,-3.5061,-3.528,-3.5544,-3.5851,-3.61,-3.6305,-3.6396,-3.5663,-3.3819,-3.232,-3.0912,-2.9206,-2.7703,-2.7236,-2.6939,-2.6847,-2.6847,-2.6847,-2.6847,-2.6847,-2.6847,-2.6847,-2.6847,-2.6847,-2.6642,-2.5707,-2.477,-2.4029,-2.2788,-2.1258,-2.032,-2.032,-6.3475,-6.2998,-6.2998,-6.2998,-6.3048,-6.2948,-6.2973,-6.2923,-6.2873,-6.2822,-6.2822,-6.2741,-6.2413,-6.2084,-6.1506,-6.1091,-6.0674,-6.0339,-6.0171,-5.9835,-5.9388,-5.8794,-5.8562,-5.79,-5.7556,-5.6973,-5.3686,-5.2277,-5.0843,-4.712,-4.4845,-4.4275,-4.334,-4.2861,-4.2765,-4.2765,-4.2765,-4.2765,-4.2765,-4.2364,-4.1577,-4.1078,-4.0206,-3.8745,-3.8157,-3.7485,-3.6893,-3.6612,-3.6612,-3.6612,-3.6612,-3.6612,-3.6612,-3.6612,-3.6612,-3.6612,-3.6612,-3.6612,-3.6612,-3.6612,-3.6612,-3.6612,-3.6612,-3.6612,-3.6612,-3.6612,-3.6612,-3.6612,-3.6612,-3.6612,-3.6612,-3.6612,-3.6612,-3.6553,-3.6305,-3.5997,-3.5719,-3.5383,-3.5046,-3.4768,-3.471,-3.4856,-3.5046,-3.5236,-3.5412,-3.5822,-3.61,-3.6246,-3.6334,-3.6363,-3.4787,-3.2337,-3.1277,-3.0436,-2.8641,-2.6955,-2.6896,-2.6928,-2.6837,-2.6847,-2.6847,-2.6847,-2.6847,-2.6847,-2.6847,-2.6847,-2.6847,-2.6324,-2.5707,-2.4677,-2.3747,-2.2401,-2.0954,-2.0537,-2.032,-6.4228,-6.4103,-6.4103,-6.4103,-6.4053,-6.3676,-6.35,-6.345,-6.3023,-6.2873,-6.2741,-6.2495,-6.2084,-6.1614,-6.1174,-6.0757,-6.0423,-6.0255,-6.0003,-5.9558,-5.9073,-5.8562,-5.822,-5.7728,-5.7556,-5.6909,-5.5181,-5.3247,-5.1166,-4.8289,-4.5847,-4.437,-4.3322,-4.2765,-4.2765,-4.2765,-4.2765,-4.2765,-4.2765,-4.2172,-4.1175,-4.04,-3.9428,-3.8157,-3.7386,-3.6893,-3.6696,-3.6612,-3.6612,-3.6612,-3.6612,-3.6612,-3.6612,-3.6612,-3.6612,-3.6612,-3.6612,-3.6612,-3.6612,-3.6612,-3.6612,-3.6612,-3.6612,-3.6612,-3.6612,-3.6612,-3.6612,-3.6612,-3.6612,-3.6612,-3.6612,-3.6612,-3.6612,-3.6539,-3.6334,-3.6114,-3.5939,-3.55,-3.5046,-3.4827,-3.4724,-3.4827,-3.5119,-3.5368,-3.5646,-3.6056,-3.6231,-3.6363,-3.6319,-3.6231,-3.417,-3.1819,-3.1013,-3.0154,-2.7896,-2.6659,-2.6788,-2.6875,-2.6907,-2.6847,-2.6847,-2.6847,-2.6847,-2.6847,-2.6847,-2.6847,-2.6847,-2.6745,-2.6221,-2.4893,-2.3456,-2.2211,-2.1266,-2.0737,-2.032,-6.4705,-6.4479,-6.4479,-6.4479,-6.4429,-6.4153,-6.3927,-6.3676,-6.3375,-6.2909,-6.252,-6.2249,-6.1837,-6.1174,-6.0924,-6.059,-6.0255,-6.0171,-5.9919,-5.9497,-5.8988,-5.8562,-5.8134,-5.7728,-5.7493,-5.7233,-5.5489,-5.3476,-5.1125,-4.8658,-4.611,-4.418,-4.3244,-4.2861,-4.2765,-4.2765,-4.2765,-4.2652,-4.2268,-4.1577,-4.0594,-3.9526,-3.8451,-3.7583,-3.6893,-3.6612,-3.6612,-3.6612,-3.6612,-3.6612,-3.6612,-3.6612,-3.6612,-3.6612,-3.6612,-3.6612,-3.6612,-3.6612,-3.6612,-3.6612,-3.6612,-3.6612,-3.6612,-3.6612,-3.6612,-3.6612,-3.6612,-3.6612,-3.6612,-3.6612,-3.6612,-3.6612,-3.6612,-3.6583,-3.6451,-3.629,-3.6056,-3.5544,-3.5105,-3.4929,-3.4812,-3.49,-3.5119,-3.5353,-3.5558,-3.5822,-3.588,-3.5997,-3.5968,-3.5701,-3.3977,-3.2149,-3.1313,-2.9947,-2.7425,-2.6455,-2.6648,-2.6756,-2.6864,-2.6805,-2.6847,-2.6847,-2.6847,-2.6847,-2.6847,-2.6847,-2.6847,-2.6745,-2.6221,-2.4574,-2.323,-2.2202,-2.137,-2.0633,-2.032,-6.5132,-6.4705,-6.4705,-6.4731,-6.4705,-6.463,-6.4304,-6.3852,-6.3726,-6.3077,-6.2323,-6.2167,-6.1589,-6.0924,-6.0757,-6.0507,-6.0255,-6.0171,-5.9919,-5.9327,-5.8988,-5.85,-5.7986,-5.7642,-5.747,-5.7297,-5.5511,-5.3302,-5.0923,-4.8473,-4.6092,-4.399,-4.3053,-4.2861,-4.2765,-4.2765,-4.2765,-4.2652,-4.1866,-4.0885,-3.9818,-3.8843,-3.778,-3.6893,-3.6696,-3.6612,-3.6612,-3.6612,-3.6612,-3.6612,-3.6612,-3.6612,-3.6612,-3.6612,-3.6612,-3.6612,-3.6612,-3.6612,-3.6612,-3.6612,-3.6612,-3.6612,-3.6612,-3.6612,-3.6612,-3.6612,-3.6612,-3.6612,-3.6612,-3.6612,-3.6612,-3.6612,-3.6612,-3.6597,-3.6597,-3.6451,-3.6114,-3.5588,-3.5295,-3.5105,-3.49,-3.4856,-3.5017,-3.5236,-3.5397,-3.5544,-3.5684,-3.5698,-3.5684,-3.5159,-3.3657,-3.1988,-3.0927,-2.9371,-2.6981,-2.6293,-2.6487,-2.667,-2.6788,-2.6794,-2.6847,-2.6847,-2.6847,-2.6847,-2.6847,-2.6847,-2.6745,-2.6426,-2.5501,-2.4048,-2.3014,-2.2089,-2.1258,-2.0424,-2.032,-6.5911,-6.5835,-6.5835,-6.5835,-6.576,-6.5333,-6.4806,-6.4304,-6.3877,-6.3127,-6.2216,-6.1754,-6.134,-6.0841,-6.0423,-6.0255,-6.0255,-6.0087,-5.975,-5.9073,-5.8756,-5.8415,-5.7728,-5.7556,-5.747,-5.7015,-5.5488,-5.3302,-5.0832,-4.8473,-4.5998,-4.399,-4.3053,-4.2765,-4.2765,-4.2765,-4.2765,-4.246,-4.1577,-4.0594,-3.9526,-3.8549,-3.7583,-3.6696,-3.6612,-3.6612,-3.6612,-3.6612,-3.6612,-3.6612,-3.6612,-3.6612,-3.6612,-3.6612,-3.6612,-3.6612,-3.6612,-3.6612,-3.6612,-3.6612,-3.6612,-3.6612,-3.6612,-3.6612,-3.6612,-3.6612,-3.6612,-3.6612,-3.6612,-3.6612,-3.6612,-3.6612,-3.6612,-3.6612,-3.6583,-3.6466,-3.6144,-3.5778,-3.5412,-3.5192,-3.4958,-3.4768,-3.4944,-3.5075,-3.5192,-3.531,-3.5383,-3.5324,-3.5251,-3.4717,-3.3692,-3.2,-3.0312,-2.8535,-2.6463,-2.632,-2.6358,-2.6573,-2.6735,-2.6805,-2.6847,-2.6847,-2.6847,-2.6847,-2.6847,-2.6847,-2.6642,-2.6221,-2.5182,-2.3945,-2.291,-2.1873,-2.1049,-2.032,-2.032,-6.6112,-6.6112,-6.6112,-6.6112,-6.6011,-6.5509,-6.4982,-6.4429,-6.3652,-6.2771,-6.1985,-6.134,-6.0924,-6.0507,-6.0339,-6.0171,-6.0171,-5.9919,-5.9412,-5.8841,-5.8477,-5.8158,-5.7556,-5.747,-5.747,-5.6928,-5.5488,-5.3102,-5.054,-4.8381,-4.5904,-4.3704,-4.2861,-4.2765,-4.2765,-4.2765,-4.246,-4.2076,-4.0981,-4.0012,-3.894,-3.7976,-3.7091,-3.6795,-3.6612,-3.6612,-3.6612,-3.6612,-3.6612,-3.6612,-3.6612,-3.6612,-3.6612,-3.6612,-3.6612,-3.6612,-3.6612,-3.6612,-3.6612,-3.6612,-3.6612,-3.6612,-3.6612,-3.6612,-3.6612,-3.6612,-3.6612,-3.6612,-3.6612,-3.6612,-3.6612,-3.6612,-3.6612,-3.6612,-3.6597,-3.6436,-3.6144,-3.5822,-3.55,-3.5178,-3.4914,-3.4783,-3.4812,-3.4929,-3.5002,-3.5075,-3.5163,-3.509,-3.4973,-3.4537,-3.3832,-3.1376,-2.9567,-2.7848,-2.6321,-2.6298,-2.6293,-2.6498,-2.6713,-2.6783,-2.6847,-2.6847,-2.6847,-2.6847,-2.6847,-2.6847,-2.654,-2.6221,-2.4986,-2.3841,-2.2806,-2.1769,-2.0841,-2.032,-2.032,-6.6112,-6.6112,-6.6112,-6.6112,-6.6011,-6.5534,-6.4982,-6.4345,-6.3486,-6.2439,-6.1472,-6.1008,-6.059,-6.0255,-6.0171,-6.0171,-6.0087,-5.9642,-5.9243,-5.8647,-5.8306,-5.79,-5.7556,-5.747,-5.747,-5.7124,-5.4763,-5.2745,-5.0358,-4.8289,-4.5716,-4.3687,-4.2861,-4.2765,-4.2765,-4.2765,-4.2172,-4.1271,-4.0206,-3.9136,-3.7976,-3.7091,-3.6612,-3.6612,-3.6612,-3.6612,-3.6612,-3.6612,-3.6612,-3.6612,-3.6612,-3.6612,-3.6612,-3.6612,-3.6612,-3.6612,-3.6612,-3.6612,-3.6612,-3.6612,-3.6612,-3.6612,-3.6612,-3.6612,-3.6612,-3.6612,-3.6612,-3.6612,-3.6612,-3.6612,-3.6612,-3.6612,-3.6612,-3.6583,-3.6524,-3.6363,-3.6012,-3.569,-3.5353,-3.5075,-3.4841,-3.4768,-3.4783,-3.4783,-3.4856,-3.4871,-3.4944,-3.4929,-3.4812,-3.4797,-3.3719,-3.0752,-2.8632,-2.7062,-2.6212,-2.6242,-2.6315,-2.6465,-2.6702,-2.6826,-2.6847,-2.6847,-2.6847,-2.6847,-2.6847,-2.6847,-2.654,-2.6016,-2.4873,-2.3841,-2.2703,-2.1665,-2.0737,-2.032,-2.032,-6.6112,-6.6112,-6.6112,-6.6112,-6.6011,-6.5459,-6.4957,-6.432,-6.3327,-6.2439,-6.1448,-6.1008,-6.059,-6.0255,-6.0171,-6.0003,-5.975,-5.9473,-5.9049,-5.8391,-5.8158,-5.7814,-5.7556,-5.747,-5.747,-5.6841,-5.3857,-5.1577,-4.9922,-4.8104,-4.5716,-4.3305,-4.2765,-4.2765,-4.2765,-4.2765,-4.2251,-4.1271,-4.0206,-3.8745,-3.7189,-3.6696,-3.6612,-3.6612,-3.6612,-3.6612,-3.6612,-3.6612,-3.6612,-3.6612,-3.6612,-3.6612,-3.6612,-3.6612,-3.6612,-3.6612,-3.6612,-3.6612,-3.6612,-3.6612,-3.6612,-3.6612,-3.6612,-3.6612,-3.6612,-3.6612,-3.6612,-3.6612,-3.6612,-3.6612,-3.6612,-3.6612,-3.6612,-3.6509,-3.6392,-3.6114,-3.5778,-3.5544,-3.5207,-3.4973,-3.4753,-3.4724,-3.4724,-3.4724,-3.4724,-3.471,-3.471,-3.471,-3.4522,-3.4414,-3.3544,-3.0708,-2.8668,-2.7089,-2.6201,-2.6218,-2.6379,-2.6487,-2.6713,-2.6837,-2.6847,-2.6847,-2.6847,-2.6847,-2.6847,-2.6847,-2.6642,-2.6016,-2.4873,-2.3738,-2.2495,-2.1466,-2.0529,-2.032,-2.032,-6.5835,-6.6086,-6.5785,-6.566,-6.5534,-6.4756,-6.4086,-6.3511,-6.2597,-6.1727,-6.1115,-6.0674,-6.0339,-6.0255,-6.0171,-6.0087,-5.9835,-5.9388,-5.8903,-5.8415,-5.7986,-5.7642,-5.7556,-5.747,-5.747,-5.6581,-5.3857,-5.1396,-4.9648,-4.7195,-4.4542,-4.3131,-4.2765,-4.2765,-4.2765,-4.2765,-4.2155,-4.1078,-3.972,-3.8157,-3.6992,-3.6612,-3.6612,-3.6612,-3.6612,-3.6612,-3.6612,-3.6612,-3.6612,-3.6612,-3.6612,-3.6612,-3.6612,-3.6612,-3.6612,-3.6612,-3.6612,-3.6612,-3.6612,-3.6612,-3.6612,-3.6612,-3.6612,-3.6612,-3.6612,-3.6612,-3.6612,-3.6612,-3.6612,-3.6612,-3.6612,-3.6612,-3.6612,-3.6509,-3.629,-3.5997,-3.5675,-3.5353,-3.509,-3.4885,-3.471,-3.471,-3.4724,-3.4753,-3.4739,-3.471,-3.471,-3.4724,-3.4226,-3.3634,-3.2531,-3.0767,-2.9116,-2.7553,-2.6794,-2.6347,-2.6476,-2.6595,-2.6745,-2.6826,-2.6847,-2.6847,-2.6847,-2.6847,-2.6847,-2.6847,-2.6745,-2.5707,-2.4358,-2.3324,-2.2184,-2.1258,-2.0424,-2.032,-2.032,-6.5333,-6.566,-6.5258,-6.5082,-6.5007,-6.4078,-6.3452,-6.2937,-6.2001,-6.1257,-6.0841,-6.0423,-6.0255,-6.0171,-6.0171,-6.0003,-5.975,-5.9134,-5.8733,-5.8329,-5.79,-5.7556,-5.747,-5.747,-5.747,-5.7383,-5.359,-5.1306,-4.9282,-4.6654,-4.399,-4.2861,-4.2765,-4.2765,-4.2765,-4.2652,-4.2172,-4.0691,-3.9136,-3.778,-3.6795,-3.6612,-3.6612,-3.6612,-3.6612,-3.6612,-3.6612,-3.6612,-3.6612,-3.6612,-3.6612,-3.6612,-3.6612,-3.6612,-3.6612,-3.6612,-3.6612,-3.6612,-3.6612,-3.6612,-3.6612,-3.6612,-3.6612,-3.6612,-3.6612,-3.6612,-3.6612,-3.6612,-3.6612,-3.6612,-3.6612,-3.6612,-3.6612,-3.6466,-3.6217,-3.5939,-3.5646,-3.5295,-3.5017,-3.4841,-3.471,-3.471,-3.4739,-3.4797,-3.4797,-3.4724,-3.4724,-3.4753,-3.4219,-3.3573,-3.2313,-3.0986,-2.9518,-2.8038,-2.7004,-2.6487,-2.6595,-2.6692,-2.6853,-2.6826,-2.6837,-2.6847,-2.6847,-2.6847,-2.6847,-2.654,-2.6221,-2.5089,-2.3945,-2.3221,-2.2392,-2.1249,-2.0529,-2.0424,-2.032,-6.4555,-6.458,-6.453,-6.4505,-6.4479,-6.3927,-6.3402,-6.2779,-6.1893,-6.1257,-6.0757,-6.0423,-6.0171,-6.0171,-6.0171,-5.975,-5.8988,-5.8818,-5.8415,-5.79,-5.7556,-5.747,-5.747,-5.747,-5.7383,-5.6928,-5.3946,-5.1667,-4.9648,-4.6747,-4.4353,-4.294,-4.2861,-4.2765,-4.2765,-4.2748,-4.177,-4.0303,-3.894,-3.778,-3.6893,-3.6612,-3.6612,-3.6612,-3.6612,-3.6612,-3.6612,-3.6612,-3.6612,-3.6612,-3.6612,-3.6612,-3.6612,-3.6612,-3.6612,-3.6612,-3.6612,-3.6612,-3.6612,-3.6612,-3.6612,-3.6612,-3.6612,-3.6612,-3.6612,-3.6612,-3.6612,-3.6612,-3.6612,-3.6612,-3.6612,-3.6612,-3.6612,-3.648,-3.6231,-3.5909,-3.5573,-3.5163,-3.49,-3.4768,-3.4739,-3.4797,-3.4914,-3.5017,-3.4958,-3.49,-3.4988,-3.5017,-3.482,-3.4102,-3.2721,-3.1367,-2.9934,-2.8584,-2.7157,-2.6771,-2.6778,-2.681,-2.6896,-2.6837,-2.6847,-2.6847,-2.6847,-2.6847,-2.6847,-2.6334,-2.5707,-2.478,-2.4048,-2.3531,-2.2599,-2.1145,-2.0529,-2.032,-2.032,-6.4002,-6.3977,-6.3626,-6.3676,-6.3952,-6.34,-6.2737,-6.2134,-6.1687,-6.1091,-6.0423,-6.0255,-6.0171,-6.0171,-6.0171,-5.9835,-5.9243,-5.8903,-5.8415,-5.7986,-5.7642,-5.747,-5.747,-5.747,-5.747,-5.6928,-5.4675,-5.2117,-4.9994,-4.7288,-4.4903,-4.3591,-4.2844,-4.2765,-4.2765,-4.2652,-4.1577,-4.0206,-3.9233,-3.8353,-3.6893,-3.6612,-3.6612,-3.6612,-3.6612,-3.6612,-3.6612,-3.6612,-3.6612,-3.6612,-3.6612,-3.6612,-3.6612,-3.6612,-3.6612,-3.6612,-3.6612,-3.6612,-3.6612,-3.6612,-3.6612,-3.6612,-3.6612,-3.6612,-3.6612,-3.6612,-3.6612,-3.6612,-3.6612,-3.6612,-3.6612,-3.6612,-3.6583,-3.648,-3.6261,-3.5909,-3.5602,-3.5236,-3.4988,-3.4929,-3.4958,-3.5017,-3.5149,-3.528,-3.5178,-3.5075,-3.5192,-3.531,-3.511,-3.4717,-3.3408,-3.2091,-3.064,-2.9586,-2.8144,-2.7545,-2.695,-2.6847,-2.6847,-2.6847,-2.6847,-2.6847,-2.6847,-2.6847,-2.6642,-2.6016,-2.5398,-2.4667,-2.3945,-2.3014,-2.1977,-2.0841,-2.0424,-2.032,-2.032,-6.3425,-6.34,-6.2998,-6.3048,-6.335,-6.2834,-6.2191,-6.1531,-6.1365,-6.0924,-6.0171,-6.0171,-6.0171,-6.0171,-6.0003,-5.975,-5.9158,-5.8733,-5.8306,-5.79,-5.7642,-5.747,-5.747,-5.747,-5.747,-5.7037,-5.5488,-5.3102,-5.0176,-4.8289,-4.5622,-4.3591,-4.2765,-4.2765,-4.2765,-4.2652,-4.1866,-4.0594,-3.9623,-3.894,-3.7288,-3.6696,-3.6612,-3.6612,-3.6612,-3.6612,-3.6612,-3.6612,-3.6612,-3.6612,-3.6612,-3.6612,-3.6612,-3.6612,-3.6612,-3.6612,-3.6612,-3.6612,-3.6612,-3.6612,-3.6612,-3.6612,-3.6612,-3.6612,-3.6612,-3.6612,-3.6612,-3.6612,-3.6612,-3.6612,-3.6612,-3.6612,-3.6612,-3.6524,-3.6275,-3.5968,-3.5807,-3.5529,-3.531,-3.5149,-3.5207,-3.539,-3.5449,-3.5581,-3.561,-3.5397,-3.5397,-3.5558,-3.5541,-3.5061,-3.4283,-3.2847,-3.1514,-3.0423,-2.942,-2.8133,-2.695,-2.6847,-2.6847,-2.6847,-2.6847,-2.6847,-2.654,-2.6221,-2.5913,-2.5604,-2.4667,-2.3531,-2.2806,-2.2288,-2.1258,-2.0424,-2.0424,-2.032,-2.032,-6.2873,-6.2847,-6.2766,-6.2766,-6.2841,-6.2438,-6.1919,-6.1365,-6.1008,-6.059,-6.0255,-6.0171,-6.0171,-6.0087,-5.9835,-5.9412,-5.8903,-5.8391,-5.7963,-5.7642,-5.7556,-5.747,-5.747,-5.747,-5.747,-5.7015,-5.5751,-5.3569,-5.0196,-4.875,-4.5998,-4.3591,-4.2765,-4.2765,-4.2765,-4.2765,-4.2268,-4.1271,-4.019,-3.9136,-3.8059,-3.7091,-3.6696,-3.6612,-3.6612,-3.6612,-3.6612,-3.6612,-3.6612,-3.6612,-3.6612,-3.6612,-3.6612,-3.6612,-3.6612,-3.6612,-3.6612,-3.6612,-3.6612,-3.6612,-3.6612,-3.6612,-3.6612,-3.6612,-3.6612,-3.6612,-3.6612,-3.6612,-3.6612,-3.6612,-3.6612,-3.6612,-3.6612,-3.6539,-3.6305,-3.6114,-3.5953,-3.5836,-3.5602,-3.5427,-3.5596,-3.5698,-3.5809,-3.5868,-3.5889,-3.586,-3.5772,-3.5778,-3.5832,-3.5655,-3.4956,-3.3926,-3.2542,-3.1189,-2.9939,-2.8042,-2.695,-2.695,-2.6847,-2.6847,-2.6847,-2.6847,-2.6426,-2.5707,-2.5295,-2.5192,-2.3738,-2.208,-2.1769,-2.1457,-2.0937,-2.032,-2.032,-2.032,-2.032,-6.2822,-6.2741,-6.2495,-6.2413,-6.2413,-6.2249,-6.1754,-6.1008,-6.059,-6.0339,-6.0255,-6.0171,-6.0171,-6.0087,-5.9666,-5.9243,-5.8733,-5.8306,-5.7877,-5.7556,-5.747,-5.747,-5.747,-5.747,-5.747,-5.7383,-5.6384,-5.4101,-5.0176,-4.919,-4.6542,-4.386,-4.2765,-4.2765,-4.2765,-4.2748,-4.2268,-4.1271,-4.0206,-3.9233,-3.8271,-3.7288,-3.6612,-3.6612,-3.6612,-3.6612,-3.6612,-3.6612,-3.6612,-3.6612,-3.6612,-3.6612,-3.6612,-3.6612,-3.6612,-3.6612,-3.6612,-3.6612,-3.6612,-3.6612,-3.6612,-3.6612,-3.6612,-3.6612,-3.6612,-3.6612,-3.6612,-3.6612,-3.6612,-3.6612,-3.6612,-3.6612,-3.6612,-3.6612,-3.6436,-3.629,-3.6158,-3.6056,-3.5895,-3.5749,-3.5734,-3.6012,-3.6226,-3.6153,-3.6212,-3.6187,-3.6114,-3.6158,-3.6265,-3.6323,-3.5987,-3.4998,-3.3746,-3.2057,-3.0368,-2.8359,-2.7155,-2.695,-2.6847,-2.6847,-2.6847,-2.6847,-2.6118,-2.5398,-2.5089,-2.4677,-2.291,-2.1457,-2.1049,-2.0633,-2.0424,-2.032,-2.032,-2.032,-2.032,-6.2822,-6.2741,-6.2331,-6.2084,-6.1919,-6.1754,-6.1257,-6.059,-6.0339,-6.0171,-6.0171,-6.0171,-6.0087,-5.9835,-5.9497,-5.8988,-5.85,-5.8072,-5.7814,-5.747,-5.747,-5.747,-5.747,-5.747,-5.747,-5.747,-5.6928,-5.5005,-5.0358,-5.0176,-4.7343,-4.3955,-4.2765,-4.2765,-4.2765,-4.2652,-4.2556,-4.177,-4.0885,-3.9899,-3.8843,-3.7863,-3.6992,-3.6711,-3.6612,-3.6612,-3.6612,-3.6612,-3.6612,-3.6612,-3.6612,-3.6612,-3.6612,-3.6612,-3.6612,-3.6612,-3.6612,-3.6612,-3.6612,-3.6612,-3.6612,-3.6612,-3.6612,-3.6612,-3.6612,-3.6612,-3.6612,-3.6612,-3.6612,-3.6612,-3.6612,-3.6612,-3.6612,-3.6612,-3.6553,-3.6407,-3.6378,-3.6275,-3.6231,-3.6085,-3.607,-3.6363,-3.6539,-3.6539,-3.648,-3.6539,-3.6583,-3.6612,-3.6612,-3.6612,-3.6498,-3.5593,-3.4186,-3.2284,-3.0469,-2.8665,-2.7553,-2.695,-2.6847,-2.6745,-2.6642,-2.654,-2.581,-2.4883,-2.4048,-2.3117,-2.1977,-2.0945,-2.0633,-2.0424,-2.032,-2.032,-2.032,-2.032,-2.032,-6.2822,-6.2741,-6.2331,-6.1919,-6.1482,-6.1008,-6.059,-6.0171,-6.0171,-6.0171,-6.0171,-6.0171,-6.0003,-5.9497,-5.9073,-5.8562,-5.8134,-5.7728,-5.7556,-5.747,-5.747,-5.747,-5.747,-5.747,-5.747,-5.747,-5.6755,-5.4543,-5.054,-4.8711,-4.6242,-4.3764,-4.2844,-4.2765,-4.2765,-4.2765,-4.2669,-4.2268,-4.1464,-4.04,-3.9428,-3.8549,-3.7485,-3.6893,-3.6612,-3.6612,-3.6612,-3.6612,-3.6612,-3.6612,-3.6612,-3.6612,-3.6612,-3.6612,-3.6612,-3.6612,-3.6612,-3.6612,-3.6612,-3.6612,-3.6612,-3.6612,-3.6612,-3.6612,-3.6612,-3.6612,-3.6612,-3.6612,-3.6612,-3.6612,-3.6612,-3.6612,-3.6612,-3.6612,-3.6612,-3.6568,-3.6568,-3.6539,-3.6539,-3.6495,-3.648,-3.6583,-3.6583,-3.6612,-3.6612,-3.6612,-3.6612,-3.6612,-3.6612,-3.6612,-3.64,-3.6103,-3.4485,-3.2384,-3.0469,-2.8869,-2.7553,-2.6847,-2.654,-2.6437,-2.6334,-2.581,-2.478,-2.3738,-2.2703,-2.1665,-2.0937,-2.0633,-2.0424,-2.032,-2.032,-2.032,-2.032,-2.032,-2.032,-6.2659,-6.2331,-6.1837,-6.1423,-6.0983,-6.059,-6.0339,-6.0171,-6.0171,-6.0171,-6.0171,-6.0171,-5.9919,-5.9497,-5.8988,-5.8562,-5.8049,-5.7728,-5.7556,-5.747,-5.747,-5.747,-5.747,-5.747,-5.747,-5.7037,-5.5839,-5.3725,-4.9974,-4.7529,-4.5056,-4.294,-4.2765,-4.2765,-4.2765,-4.2765,-4.2765,-4.2556,-4.1866,-4.0885,-3.9818,-3.8843,-3.778,-3.6893,-3.6612,-3.6612,-3.6612,-3.6612,-3.6612,-3.6612,-3.6612,-3.6612,-3.6612,-3.6612,-3.6612,-3.6612,-3.6612,-3.6612,-3.6612,-3.6612,-3.6612,-3.6612,-3.6612,-3.6612,-3.6612,-3.6612,-3.6612,-3.6612,-3.6612,-3.6612,-3.6612,-3.6612,-3.6612,-3.6612,-3.6612,-3.6612,-3.6612,-3.6612,-3.6612,-3.6612,-3.6612,-3.6612,-3.6612,-3.6612,-3.6612,-3.6612,-3.6612,-3.6612,-3.6612,-3.6612,-3.6498,-3.6202,-3.4698,-3.2585,-3.0873,-2.9162,-2.786,-2.6847,-2.6437,-2.5923,-2.5398,-2.478,-2.3738,-2.2703,-2.1769,-2.1041,-2.052,-2.032,-2.032,-2.032,-2.032,-2.032,-2.032,-2.032,-2.032,-6.2577,-6.2167,-6.1672,-6.1296,-6.0881,-6.0653,-6.0604,-6.07,-6.0364,-6.0171,-6.0171,-6.0171,-5.9835,-5.9243,-5.8927,-5.85,-5.7814,-5.7642,-5.747,-5.747,-5.747,-5.747,-5.747,-5.747,-5.747,-5.6755,-5.5203,-5.2992,-4.9354,-4.5604,-4.2765,-4.2861,-4.2765,-4.2765,-4.2765,-4.2765,-4.2765,-4.2652,-4.2076,-4.1078,-4.0012,-3.9038,-3.8059,-3.6893,-3.6612,-3.6612,-3.6612,-3.6612,-3.6612,-3.6612,-3.6612,-3.6612,-3.6612,-3.6612,-3.6612,-3.6612,-3.6612,-3.6612,-3.6612,-3.6612,-3.6612,-3.6612,-3.6612,-3.6612,-3.6612,-3.6612,-3.6612,-3.6612,-3.6612,-3.6612,-3.6612,-3.6612,-3.6612,-3.6612,-3.6612,-3.6612,-3.6612,-3.6612,-3.6612,-3.6612,-3.6612,-3.6612,-3.6612,-3.6612,-3.6612,-3.6612,-3.6612,-3.6612,-3.6612,-3.6612,-3.6612,-3.64,-3.4698,-3.2799,-3.1189,-2.9569,-2.7951,-2.6734,-2.5913,-2.5295,-2.4677,-2.3738,-2.2599,-2.1769,-2.0841,-2.0424,-2.032,-2.032,-2.032,-2.032,-2.032,-2.032,-2.032,-2.032,-2.032,-6.2495,-6.2109,-6.1614,-6.1265,-6.1002,-6.1013,-6.1301,-6.1662,-6.0796,-6.0291,-6.0291,-6.0267,-5.9653,-5.9012,-5.8647,-5.8243,-5.7728,-5.747,-5.747,-5.747,-5.747,-5.747,-5.747,-5.747,-5.747,-5.6645,-5.4543,-5.1445,-4.8711,-4.5245,-4.2765,-4.2765,-4.2765,-4.2765,-4.2765,-4.2765,-4.2799,-4.2919,-4.2579,-4.1774,-4.0222,-3.9428,-3.8745,-3.6992,-3.6612,-3.6612,-3.6612,-3.6612,-3.6612,-3.6612,-3.6612,-3.6612,-3.6612,-3.6612,-3.6612,-3.6612,-3.6612,-3.6612,-3.6612,-3.6612,-3.6612,-3.6612,-3.6612,-3.6612,-3.6612,-3.6612,-3.6612,-3.6612,-3.6612,-3.6612,-3.6612,-3.6612,-3.6612,-3.6612,-3.6612,-3.6612,-3.6612,-3.6612,-3.6612,-3.6612,-3.6612,-3.6612,-3.6612,-3.6612,-3.6612,-3.6612,-3.6612,-3.6612,-3.6612,-3.6612,-3.6612,-3.6513,-3.4897,-3.32,-3.168,-2.9963,-2.8042,-2.6723,-2.5491,-2.4461,-2.3635,-2.2599,-2.157,-2.0945,-2.0529,-2.0424,-2.032,-2.032,-2.032,-2.032,-2.032,-2.032,-2.032,-2.032,-2.032,-6.2084,-6.1638,-6.1279,-6.1014,-6.1098,-6.1422,-6.1662,-6.1782,-6.1566,-6.1181,-6.0845,-6.0432,-5.9707,-5.8912,-5.85,-5.7986,-5.7642,-5.747,-5.747,-5.747,-5.747,-5.747,-5.747,-5.747,-5.747,-5.6188,-5.3636,-4.9668,-4.6073,-4.3782,-4.2765,-4.2765,-4.2765,-4.2765,-4.2765,-4.2782,-4.2998,-4.3186,-4.3061,-4.2151,-4.0335,-3.9557,-3.8745,-3.7288,-3.6612,-3.6612,-3.6612,-3.6612,-3.6612,-3.6612,-3.6612,-3.6612,-3.6612,-3.6612,-3.6612,-3.6612,-3.6612,-3.6612,-3.6612,-3.6612,-3.6612,-3.6612,-3.6612,-3.6612,-3.6612,-3.6612,-3.6612,-3.6612,-3.6612,-3.6612,-3.6513,-3.6513,-3.6513,-3.6513,-3.6612,-3.6612,-3.6612,-3.6612,-3.6612,-3.6612,-3.6612,-3.6612,-3.6612,-3.6612,-3.6612,-3.6612,-3.6612,-3.6612,-3.6612,-3.6612,-3.6612,-3.6301,-3.521,-3.36,-3.2083,-3.0254,-2.8235,-2.6097,-2.4564,-2.3531,-2.2599,-2.1665,-2.0841,-2.0633,-2.032,-2.032,-2.032,-2.032,-2.032,-2.032,-2.032,-2.032,-2.032,-2.032,-2.032,-6.1944,-6.1497,-6.1172,-6.1109,-6.1398,-6.1927,-6.2263,-6.2456,-6.248,-6.1993,-6.1246,-6.0605,-5.9882,-5.9014,-5.8446,-5.79,-5.7579,-5.747,-5.747,-5.747,-5.747,-5.747,-5.747,-5.747,-5.747,-5.6297,-5.2485,-4.8409,-4.4008,-4.3053,-4.2765,-4.2765,-4.2765,-4.2782,-4.2799,-4.2902,-4.3203,-4.3392,-4.358,-4.2634,-4.082,-4.025,-3.9163,-3.7757,-3.6893,-3.6809,-3.6612,-3.6612,-3.6612,-3.6612,-3.6612,-3.6612,-3.6612,-3.6612,-3.6612,-3.6612,-3.6612,-3.6612,-3.6612,-3.6612,-3.6612,-3.6612,-3.6612,-3.6612,-3.6301,-3.6301,-3.6004,-3.6004,-3.6513,-3.6612,-3.5933,-3.5735,-3.5607,-3.5508,-3.6202,-3.6612,-3.6612,-3.6612,-3.6612,-3.6612,-3.6612,-3.6612,-3.6612,-3.6612,-3.6612,-3.6612,-3.6612,-3.6612,-3.6612,-3.6513,-3.6513,-3.6202,-3.511,-3.37,-3.2083,-3.0254,-2.8314,-2.6179,-2.3738,-2.2599,-2.1561,-2.0945,-2.032,-2.032,-2.032,-2.032,-2.032,-2.032,-2.032,-2.032,-2.032,-2.032,-2.032,-2.032,-2.032,-6.1804,-6.1453,-6.1208,-6.1398,-6.1951,-6.2456,-6.2889,-6.3249,-6.3298,-6.2793,-6.1803,-6.0861,-6.0175,-5.9367,-5.8569,-5.8039,-5.7579,-5.7493,-5.747,-5.747,-5.747,-5.747,-5.747,-5.747,-5.6755,-5.474,-5.124,-4.7215,-4.3053,-4.2765,-4.2765,-4.2765,-4.2799,-4.2833,-4.3032,-4.3272,-4.3563,-4.3734,-4.3807,-4.3532,-4.2377,-4.116,-3.9724,-3.8424,-3.7401,-3.6809,-3.6696,-3.6612,-3.6612,-3.6612,-3.6612,-3.6612,-3.6612,-3.6612,-3.6612,-3.6612,-3.6612,-3.6612,-3.6612,-3.6612,-3.6612,-3.6612,-3.6612,-3.6513,-3.6202,-3.5706,-3.5508,-3.5408,-3.5905,-3.5607,-3.4925,-3.5039,-3.4812,-3.5011,-3.5805,-3.6612,-3.6612,-3.6612,-3.6612,-3.6612,-3.6612,-3.6612,-3.6612,-3.6612,-3.6612,-3.6612,-3.6612,-3.6612,-3.6513,-3.64,-3.6301,-3.6004,-3.521,-3.37,-3.2083,-3.0242,-2.8416,-2.5461,-2.3117,-2.1769,-2.0737,-2.0424,-2.032,-2.032,-2.032,-2.032,-2.032,-2.032,-2.032,-2.032,-2.032,-2.032,-2.032,-2.032,-2.032,-6.1419,-6.1123,-6.1459,-6.1927,-6.2456,-6.2985,-6.3161,-6.3322,-6.3233,-6.2984,-6.2214,-6.1387,-6.0376,-5.8988,-5.8484,-5.8016,-5.7694,-5.7539,-5.747,-5.747,-5.747,-5.747,-5.7337,-5.6987,-5.4895,-5.2215,-4.918,-4.5852,-4.3104,-4.2765,-4.2765,-4.2799,-4.3203,-4.3289,-4.3375,-4.3649,-4.3991,-4.4145,-4.4282,-4.4121,-4.3719,-4.2311,-4.0506,-3.9283,-3.8113,-3.7446,-3.6893,-3.6612,-3.6612,-3.6612,-3.6612,-3.6612,-3.6612,-3.6612,-3.6612,-3.6612,-3.6612,-3.6612,-3.6612,-3.6612,-3.6612,-3.6612,-3.6612,-3.6498,-3.5905,-3.4798,-3.4399,-3.38,-3.38,-3.2986,-3.2598,-3.4014,-3.4413,-3.5011,-3.5706,-3.6301,-3.6612,-3.6612,-3.6612,-3.6612,-3.6612,-3.6612,-3.6612,-3.6612,-3.6612,-3.6612,-3.6612,-3.6612,-3.6612,-3.64,-3.6202,-3.5607,-3.5096,-3.36,-3.1982,-3.0242,-2.8201,-2.5152,-2.2599,-2.1466,-2.0633,-2.0424,-2.032,-2.032,-2.032,-2.032,-2.032,-2.032,-2.032,-2.032,-2.032,-2.032,-2.032,-2.032,-2.032]}]]